Date StartTime U_cm/s V_cm/s W_cm/s Ustd_cm/s Vstd_cm/s Wstd_cm/s Uvar_(cm/s)^2 Vvar_(cm/s)^2 Wvar_(cm/s)^2 KE_(m/s)^2 TurbulentKE_(m/s)^2 HorizWindSpeed_cm/s FrictionSpeec_cm/s DragCoef SpeedOfSound_m/s SonicTemperature_C Pressure_mb 
08/26/2013  00:00:00       -0.936       -3.999        8.063       33.686       23.094       17.347     1134.750      533.321      300.905        0.103        0.098        4.107       12.273        8.929      343.136       19.034      860.700
08/26/2013  00:01:00       -7.662      -35.440       -3.109       19.801       22.930        8.767      392.075      525.804       76.863        0.116        0.050       36.258        4.433        0.015      343.111       18.993      860.726
08/26/2013  00:02:00        7.359      -83.309       11.746       35.126       32.100       22.778     1233.861     1030.387      518.855        0.496        0.139       83.633       14.511        0.030      343.290       19.298      860.766
08/26/2013  00:03:00      -16.178     -124.301       -6.006       43.895       54.160       27.096     1926.776     2933.261      734.202        1.067        0.280      125.350       27.810        0.049      343.316       19.342      860.761
08/26/2013  00:04:00       -9.847     -100.433        7.047       31.600       52.807       25.125      998.544     2788.596      631.261        0.733        0.221      100.915       24.448        0.059      343.292       19.301      860.756
08/26/2013  00:05:00      -50.225      -65.664        7.751       75.806       81.828       34.193     5746.479     6695.825     1169.169        1.025        0.681       82.670       36.190        0.192      343.230       19.194      860.757
08/26/2013  00:06:00     -130.538      -71.289       -5.635       55.902       53.168       25.770     3124.988     2826.836      664.069        1.438        0.331      148.736       22.888        0.024      343.257       19.241      860.704
08/26/2013  00:07:00     -111.969     -156.502        8.491       68.784       85.296       34.669     4731.245     7275.435     1201.961        2.515        0.660      192.432       37.481        0.038      343.182       19.112      860.716
08/26/2013  00:08:00      -87.816     -119.213        4.097       60.715       99.732       34.308     3686.314     9946.519     1177.068        1.837        0.740      148.065       30.292        0.042      343.168       19.088      860.723
08/26/2013  00:09:00     -139.400     -115.743       10.312       66.370       59.063       41.609     4404.935     3488.416     1731.338        2.128        0.481      181.187       30.572        0.028      343.178       19.107      860.700
08/26/2013  00:10:00     -147.863      -83.725       -1.617       55.535       61.799       32.582     3084.171     3819.077     1061.595        1.842        0.398      169.921       31.793        0.035      343.147       19.053      860.686
08/26/2013  00:11:00     -121.144      -97.715       -4.699      100.157      108.890       47.763    10031.412    11856.928     2281.299        2.420        1.208      155.641       54.557        0.123      343.176       19.101      860.722
08/26/2013  00:12:00     -110.234      -71.543        1.144      126.560       78.325       39.293    16017.455     6134.845     1543.932        2.048        1.185      131.415       57.185        0.189      343.235       19.203      860.754
08/26/2013  00:13:00     -175.978     -141.312       -3.382       93.892       63.743       48.732     8815.764     4063.194     2374.796        3.310        0.763      225.693       55.550        0.061      343.326       19.356      860.743
08/26/2013  00:14:00     -113.353      -65.581       -9.002       99.392       92.766       44.022     9878.787     8605.457     1937.921        1.882        1.021      130.957       48.857        0.139      343.329       19.363      860.725
08/26/2013  00:15:00      -89.473      -34.808        0.710       62.162       49.496       32.373     3864.096     2449.850     1048.035        0.829        0.368       96.006       32.033        0.111      343.244       19.221      860.731
08/26/2013  00:16:00      -39.864       15.875       11.478       42.663       36.007       24.662     1820.114     1296.506      608.219        0.285        0.186       42.909       19.023        0.197      343.162       19.078      860.767
08/26/2013  00:17:00      -82.398      -13.064       -4.101       88.444       69.456       35.129     7822.331     4824.155     1234.015        1.043        0.694       83.427       21.978        0.069      343.244       19.218      860.809
08/26/2013  00:18:00        5.996       37.316      -10.814       45.417       90.479       18.657     2062.659     8186.429      348.097        0.607        0.530       37.795       21.208        0.315      342.971       18.754      860.803
08/26/2013  00:19:00       12.220       73.121       -5.333       43.901       45.884       27.033     1927.291     2105.356      730.807        0.514        0.238       74.135       25.222        0.116      343.040       18.871      860.752
08/26/2013  00:20:00        9.660       81.480        2.578       42.897       73.192       32.280     1840.127     5357.086     1042.018        0.749        0.412       82.050       40.005        0.238      343.087       18.951      860.760
08/26/2013  00:21:00       30.146       92.717       -8.725       26.594       64.739       27.447      707.241     4191.109      753.316        0.762        0.283       97.494       31.418        0.104      342.917       18.662      860.811
08/26/2013  00:22:00       11.666      118.808       -7.339       25.383       93.776       36.513      644.278     8794.022     1333.226        1.254        0.539      119.379       50.664        0.180      342.895       18.623      860.812
08/26/2013  00:23:00       -0.487       41.517       -3.370       33.350       50.038       22.712     1112.216     2503.794      515.822        0.293        0.207       41.520       25.226        0.369      342.728       18.340      860.798
08/26/2013  00:24:00        0.546      156.541      -15.561       27.907       52.077       20.860      778.778     2711.965      435.139        1.434        0.196      156.542       25.317        0.026      342.617       18.150      860.789
08/26/2013  00:25:00      127.105       68.446       17.008       64.400       36.029       36.106     4147.333     1298.122     1303.668        1.394        0.337      144.363       28.303        0.038      342.782       18.433      860.784
08/26/2013  00:26:00      116.277       80.867       23.207       54.274       32.208       37.944     2945.708     1037.366     1439.711        1.301        0.271      141.633       22.383        0.025      342.778       18.425      860.829
08/26/2013  00:27:00       27.157      112.054       -7.424       58.102       69.013       35.493     3375.813     4762.842     1259.736        1.137        0.470      115.298       35.432        0.094      342.843       18.538      860.818
08/26/2013  00:28:00       -6.640      173.957      -21.250       18.958       24.327       13.477      359.423      591.802      181.634        1.594        0.057      174.083       10.110        0.003      342.822       18.501      860.830
08/26/2013  00:29:00      -15.087      191.981      -27.295       25.698       26.278       15.978      660.385      690.559      255.296        1.972        0.080      192.573       11.021        0.003      342.742       18.364      860.850
08/26/2013  00:30:00       15.285      179.847      -15.003       40.911       55.440       36.087     1673.709     3073.574     1302.257        1.943        0.302      180.495       34.798        0.037      342.694       18.280      860.863
08/26/2013  00:31:00       83.481       93.223       -0.407       53.241       53.067       39.048     2834.622     2816.157     1524.770        1.142        0.359      125.138       29.845        0.057      342.603       18.127      860.882
08/26/2013  00:32:00      112.837       70.127        4.713       44.810       35.823       32.651     2007.919     1283.315     1066.061        1.101        0.218      132.853       21.788        0.027      342.593       18.112      860.903
08/26/2013  00:33:00       51.922       82.509        2.278       51.847       39.840       37.164     2688.139     1587.237     1381.151        0.758        0.283       97.487       26.903        0.076      342.610       18.140      860.921
08/26/2013  00:34:00      123.228       73.684       17.283       40.320       33.580       35.436     1625.716     1127.604     1255.710        1.246        0.200      143.578       25.936        0.033      342.606       18.132      860.942
08/26/2013  00:35:00      136.675       76.127       14.833       53.045       39.480       29.377     2813.795     1558.707      863.013        1.496        0.262      156.446       12.749        0.007      342.653       18.212      860.933
08/26/2013  00:36:00      167.281       83.728       16.645       41.089       39.570       35.927     1688.310     1565.808     1290.726        1.991        0.227      187.065       22.753        0.015      342.870       18.580      860.927
08/26/2013  00:37:00      231.740      116.982        3.572       49.088       36.141       37.152     2409.628     1306.161     1380.242        3.625        0.255      259.593       26.787        0.011      342.885       18.602      860.921
08/26/2013  00:38:00      141.778      133.578       91.526      107.755       70.327       88.208    11611.035     4945.865     7780.570        3.532        1.217      194.792       80.661        0.171      342.641       18.188      860.875
08/26/2013  00:39:00      112.511      210.550      145.084       82.719       82.902       83.742     6842.512     6872.819     7012.797        4.938        1.036      238.726       70.711        0.088      342.662       18.224      860.863
08/26/2013  00:40:00      247.052      132.478       68.452      133.151       82.172       76.391    17729.097     6752.191     5835.644        5.679        1.516      280.331       72.560        0.067      342.817       18.489      860.847
08/26/2013  00:41:00      107.628      120.565       78.336      107.871       76.084       77.764    11636.257     5788.705     6047.279        2.786        1.174      161.616       70.061        0.188      342.771       18.411      860.869
08/26/2013  00:42:00      163.381      142.769       66.895       99.490       56.014       71.226     9898.311     3137.536     5073.094        3.483        0.905      216.971       55.214        0.065      342.906       18.640      860.922
08/26/2013  00:43:00      106.215       63.402       18.016       94.877       58.624       40.284     9001.564     3436.726     1622.805        1.484        0.703      123.699       32.490        0.069      342.882       18.601      860.943
08/26/2013  00:44:00       15.788        5.264        7.879       48.575       40.044       32.894     2359.528     1603.505     1081.987        0.269        0.252       16.642       23.749        2.036      342.804       18.470      860.944
08/26/2013  00:45:00       44.590       -9.058       14.204       82.377       73.047       34.844     6786.008     5335.823     1214.104        0.780        0.667       45.501       35.247        0.600      342.707       18.305      861.009
08/26/2013  00:46:00     -112.818     -131.130      -17.380       93.349       54.777       29.551     8714.093     3000.506      873.253        2.140        0.629      172.983       32.764        0.036      342.826       18.505      861.074
08/26/2013  00:47:00      -89.594      -68.499       -6.330      154.379       77.292       44.529    23832.991     5974.073     1982.825        2.227        1.589      112.779       52.042        0.213      342.800       18.462      861.012
08/26/2013  00:48:00       -3.993      -23.934       17.314       88.507       65.403       43.608     7833.541     4277.537     1901.633        0.745        0.701       24.265       32.492        1.793      343.022       18.842      861.001
08/26/2013  00:49:00       29.250       18.457       24.789       22.065       22.017       22.892      486.882      484.756      524.032        0.165        0.075       34.586        9.829        0.081      342.652       18.212      861.011
08/26/2013  00:50:00      -48.087       45.521      -10.786       52.497       61.658       25.956     2755.906     3801.732      673.733        0.586        0.362       66.216       36.274        0.300      342.882       18.603      861.030
08/26/2013  00:51:00       11.739       80.158      -12.352       36.100       41.551       23.553     1303.179     1726.466      554.729        0.515        0.179       81.013       25.097        0.096      342.937       18.695      861.021
08/26/2013  00:52:00       25.305      136.554      -13.036       46.696       64.890       34.763     2180.473     4210.763     1208.487        1.353        0.380      138.878       33.285        0.057      343.076       18.932      860.999
08/26/2013  00:53:00      -23.261      172.279      -18.781       56.455       76.805       39.900     3187.192     5899.069     1592.020        2.062        0.534      173.842       41.207        0.056      343.079       18.935      860.996
08/26/2013  00:54:00       73.667       88.791        0.992       47.913       51.112       43.015     2295.627     2612.477     1850.261        1.003        0.338      115.372       33.593        0.085      343.021       18.840      860.981
08/26/2013  00:55:00       83.525       93.764        4.714       50.460       62.194       43.088     2546.237     3868.049     1856.618        1.203        0.414      125.571       36.314        0.084      343.008       18.817      861.001
08/26/2013  00:56:00      120.216      102.331       15.396       49.254       45.184       46.393     2425.940     2041.635     2152.306        1.589        0.331      157.872       38.372        0.059      343.055       18.896      861.049
08/26/2013  00:57:00      126.254       81.808       15.161       53.655       42.078       37.255     2878.844     1770.549     1387.958        1.445        0.302      150.442       21.935        0.021      342.985       18.777      861.072
08/26/2013  00:58:00      149.652       82.275       10.949       49.866       47.382       34.599     2486.611     2245.009     1197.099        1.761        0.296      170.777       18.761        0.012      342.912       18.653      861.069
08/26/2013  00:59:00      153.861       95.757       21.737       36.104       27.606       31.916     1303.512      762.107     1018.621        1.820        0.154      181.226       15.297        0.007      342.853       18.555      861.063
08/26/2013  01:00:00      127.555       95.377       11.740       72.238       48.474       50.927     5218.349     2349.734     2593.574        1.783        0.508      159.270       35.589        0.050      342.799       18.461      861.057
08/26/2013  01:01:00       51.809       52.186       14.040       61.111       49.543       44.409     3734.516     2454.489     1972.133        0.688        0.408       73.536       35.034        0.227      342.739       18.360      861.042
08/26/2013  01:02:00       16.624       65.605       -0.140       26.788       35.571       26.480      717.605     1265.301      701.209        0.363        0.134       67.678       23.508        0.121      342.752       18.381      861.060
08/26/2013  01:03:00       51.519       47.334       17.994       19.035       23.586       19.984      362.350      556.315      399.370        0.327        0.066       69.962        8.931        0.016      342.754       18.386      861.118
08/26/2013  01:04:00       28.202        3.561       11.577       26.230       25.362       18.401      688.027      643.229      338.602        0.131        0.083       28.425       13.639        0.230      342.459       17.882      861.150
08/26/2013  01:05:00       21.489      -14.405       -7.611       15.839       18.752       20.846      250.878      351.652      434.567        0.088        0.052       25.870       15.596        0.363      342.242       17.514      861.179
08/26/2013  01:06:00       69.815       58.757       14.597       24.062       32.973       24.939      578.995     1087.225      621.947        0.541        0.114       91.250       11.993        0.017      342.508       17.967      861.192
08/26/2013  01:07:00       84.437       78.335        7.475       22.459       26.779       27.496      504.413      717.100      756.025        0.765        0.099      115.178       13.773        0.014      342.336       17.674      861.177
08/26/2013  01:08:00      125.819       69.000       13.173       28.380       19.730       24.341      805.425      389.285      592.481        1.128        0.089      143.497       12.975        0.008      342.700       18.296      861.161
08/26/2013  01:09:00      127.121       73.182       11.508       33.513       20.122       23.097     1123.101      404.907      533.488        1.185        0.103      146.682       17.847        0.015      342.635       18.182      861.112
08/26/2013  01:10:00      103.042       82.292       12.785       41.360       27.431       25.855     1710.675      752.485      668.470        1.034        0.157      131.869       15.857        0.014      342.573       18.078      861.041
08/26/2013  01:11:00      146.218       95.663       28.589       45.035       31.551       29.769     2028.180      995.479      886.219        1.763        0.195      174.732       12.572        0.005      342.514       17.976      861.018
08/26/2013  01:12:00      128.261       98.919       25.038       43.057       26.431       30.964     1853.909      698.590      958.790        1.519        0.176      161.975       20.418        0.016      342.527       17.999      861.046
08/26/2013  01:13:00      115.119       71.436       35.973       26.010       28.842       23.578      676.514      831.888      555.922        1.086        0.103      135.483       14.059        0.011      342.501       17.955      861.081
08/26/2013  01:14:00       94.283       67.298       22.735       41.753       36.003       28.600     1743.333     1296.233      817.968        0.890        0.193      115.837       19.496        0.028      342.462       17.888      861.095
08/26/2013  01:15:00       15.617       28.458        9.955       23.634       27.275       25.797      558.571      743.908      665.473        0.156        0.098       32.462       16.312        0.253      342.345       17.690      861.120
08/26/2013  01:16:00       15.940       41.429       -2.358       27.990       21.708       25.330      783.451      471.218      641.602        0.194        0.095       44.390       18.067        0.166      342.453       17.873      861.135
08/26/2013  01:17:00        0.214       36.720        4.062       31.936       23.004       17.810     1019.933      529.187      317.190        0.162        0.093       36.721       15.094        0.169      342.409       17.798      861.116
08/26/2013  01:18:00      -16.908       51.968       -5.570       33.008       32.955       19.393     1089.501     1086.057      376.086        0.278        0.128       54.649       18.160        0.110      342.502       17.956      861.099
08/26/2013  01:19:00        7.235       42.275       10.135       26.469       32.010       21.382      700.628     1024.652      457.178        0.206        0.109       42.889       21.856        0.260      342.392       17.769      861.098
08/26/2013  01:20:00       27.049       92.585        1.109       27.921       48.263       25.058      779.600     2329.332      627.883        0.652        0.187       96.455       26.092        0.073      342.476       17.912      861.106
08/26/2013  01:21:00       27.925      123.821        1.281       35.261       50.197       34.451     1243.334     2519.724     1186.868        1.053        0.247      126.931       35.186        0.077      342.534       18.010      861.105
08/26/2013  01:22:00       23.778      148.887      -17.171       31.571       26.836       23.821      996.737      720.189      567.450        1.266        0.114      150.774       14.958        0.010      342.621       18.159      861.094
08/26/2013  01:23:00       29.895      135.339      -15.486       27.321       44.232       25.731      746.458     1956.453      662.071        1.141        0.168      138.601       24.724        0.032      342.600       18.123      861.080
08/26/2013  01:24:00       29.124      129.410      -17.644       40.333       49.246       35.018     1626.713     2425.174     1226.225        1.159        0.264      132.646       33.242        0.063      342.686       18.269      861.080
08/26/2013  01:25:00       29.908      150.988      -20.912       30.938       39.139       21.488      957.136     1531.883      461.725        1.354        0.148      153.922       19.675        0.016      342.793       18.450      861.085
08/26/2013  01:26:00       24.798      103.789      -10.192       34.485       63.884       34.212     1189.184     4081.132     1170.475        0.896        0.322      106.710       37.784        0.125      342.734       18.351      861.097
08/26/2013  01:27:00       18.339       59.046       -9.698       31.322       36.729       17.591      981.091     1349.050      309.432        0.328        0.132       61.828       16.549        0.072      342.724       18.334      861.113
08/26/2013  01:28:00       14.816       16.467        1.571       13.821       23.945       13.160      191.017      573.363      173.199        0.072        0.047       22.151       11.112        0.252      342.667       18.235      861.138
08/26/2013  01:29:00       15.351       19.873        2.072       17.435       14.811        9.054      303.976      219.370       81.976        0.062        0.030       25.111        7.353        0.086      342.738       18.358      861.151
08/26/2013  01:30:00       19.725        5.904       -0.957       13.446       10.333        8.647      180.787      106.762       74.772        0.039        0.018       20.590        6.846        0.111      342.753       18.382      861.154
08/26/2013  01:31:00        6.433        4.957        2.708        5.542        7.178        6.086       30.715       51.521       37.038        0.010        0.006        8.121        4.228        0.271      342.744       18.368      861.149
08/26/2013  01:32:00      -15.027      -11.807       -2.430       18.780        8.926        8.335      352.701       79.679       69.467        0.044        0.025       19.111        8.311        0.189      342.623       18.161      861.128
08/26/2013  01:33:00      -32.191        0.166       -4.838        8.027        5.840        5.563       64.430       34.109       30.942        0.059        0.006       32.191        5.595        0.030      342.615       18.150      861.109
08/26/2013  01:34:00      -37.263      -26.875       -8.572        9.871        9.918        6.561       97.443       98.365       43.053        0.121        0.012       45.943        4.821        0.011      342.561       18.057      861.103
08/26/2013  01:35:00      -50.570      -34.611       -7.469        9.109       10.882        7.876       82.975      118.420       62.030        0.204        0.013       61.280        2.826        0.002      342.576       18.082      861.094
08/26/2013  01:36:00      -50.392      -22.934      -10.820        7.359        7.884        6.128       54.151       62.164       37.551        0.167        0.008       55.366        4.382        0.006      342.539       18.021      861.063
08/26/2013  01:37:00      -84.896       -2.509      -11.235       22.574       10.258       10.979      509.601      105.217      120.535        0.404        0.037       84.933       11.348        0.018      342.501       17.954      861.050
08/26/2013  01:38:00      -95.627       -5.527       -9.759       16.571       11.612        8.033      274.612      134.849       64.535        0.487        0.024       95.787        6.048        0.004      342.467       17.897      861.076
08/26/2013  01:39:00     -131.662      -28.056       -6.189       41.807       29.217       18.255     1747.861      853.627      333.261        1.055        0.147      134.618       17.541        0.017      342.305       17.622      861.085
08/26/2013  01:40:00     -195.528      -53.003      -11.200       30.421       28.925       17.590      925.440      836.677      309.397        2.162        0.104      202.584       11.955        0.003      342.281       17.579      861.068
08/26/2013  01:41:00     -151.359      -12.275      -10.966       40.901       35.267       22.147     1672.915     1243.765      490.483        1.329        0.170      151.856       18.437        0.015      342.254       17.534      861.055
08/26/2013  01:42:00     -179.598        3.047      -16.326       34.259       27.523       21.376     1173.683      757.523      456.936        1.746        0.119      179.624       17.536        0.010      342.504       17.959      861.040
08/26/2013  01:43:00     -169.866      -31.113       -9.381       51.814       34.957       20.421     2684.728     1221.982      417.026        1.712        0.216      172.692       19.818        0.013      342.492       17.938      861.040
08/26/2013  01:44:00     -174.911      -16.719      -13.376       24.073       24.128       18.714      579.508      582.144      350.209        1.628        0.076      175.708       13.909        0.006      342.391       17.769      861.054
08/26/2013  01:45:00     -139.668      -24.244       -9.228       34.274       31.003       21.609     1174.738      961.192      466.932        1.139        0.130      141.757       18.174        0.016      342.290       17.597      861.048
08/26/2013  01:46:00     -150.834        0.056      -14.064       51.840       41.055       22.564     2687.429     1685.508      509.153        1.391        0.244      150.834       18.716        0.015      342.244       17.517      861.014
08/26/2013  01:47:00     -104.034       16.054       -6.676       28.143       30.426       19.576      792.044      925.716      383.212        0.661        0.105      105.265       14.850        0.020      342.197       17.438      860.983
08/26/2013  01:48:00     -101.359       42.709      -12.371       35.328       28.518       21.004     1248.057      813.278      441.170        0.738        0.125      109.990       14.381        0.017      342.421       17.820      860.956
08/26/2013  01:49:00      -80.345       52.983      -14.797       32.898       30.199       18.826     1082.248      911.957      354.430        0.591        0.117       96.242       15.219        0.025      342.748       18.375      860.930
08/26/2013  01:50:00     -118.428       43.132      -12.700       28.447       28.101       19.964      809.222      789.652      398.567        0.902        0.100      126.038       10.395        0.007      342.633       18.178      860.922
08/26/2013  01:51:00      -96.554        3.449      -11.522       38.175       39.805       16.610     1457.323     1584.465      275.883        0.639        0.166       96.616       15.189        0.025      342.541       18.024      860.937
08/26/2013  01:52:00     -107.110       48.733      -17.494       58.005       30.563       26.551     3364.531      934.112      704.937        0.958        0.250      117.675       26.059        0.049      342.303       17.619      860.944
08/26/2013  01:53:00     -153.841       49.159      -12.383       46.568       31.759       22.429     2168.610     1008.641      503.062        1.496        0.184      161.504       19.173        0.014      342.248       17.525      860.926
08/26/2013  01:54:00     -117.323       13.447      -17.153       55.357       39.569       25.323     3064.450     1565.703      641.251        0.975        0.264      118.091       28.509        0.058      342.167       17.385      860.912
08/26/2013  01:55:00     -112.524       17.774      -14.943       27.693       28.930       19.511      766.909      836.935      380.694        0.759        0.099      113.919       14.803        0.017      342.275       17.571      860.913
08/26/2013  01:56:00     -124.164       16.462      -13.195       31.494       26.438       21.725      991.854      698.959      471.969        0.901        0.108      125.250       17.303        0.019      342.206       17.454      860.921
08/26/2013  01:57:00      -94.998      -14.177       -8.658       28.822       41.985       20.097      830.717     1762.726      403.908        0.615        0.150       96.050       16.542        0.030      342.096       17.267      860.925
08/26/2013  01:58:00     -116.054        5.759      -12.081       37.212       29.856       19.573     1384.697      891.400      383.094        0.815        0.133      116.197       18.690        0.026      342.136       17.334      860.927
08/26/2013  01:59:00     -117.352       37.820      -20.520       30.548       28.405       20.980      933.196      806.834      440.149        0.890        0.109      123.295       17.218        0.020      342.281       17.580      860.918
08/26/2013  02:00:00      -88.196      102.289      -17.075       40.675       49.240       24.887     1654.436     2424.588      619.365        1.161        0.235      135.062       22.981        0.029      342.698       18.290      860.909
08/26/2013  02:01:00      -37.816       91.837        0.153       20.683       52.284       20.622      427.794     2733.631      425.261        0.672        0.179       99.318       17.118        0.030      342.376       17.743      860.919
08/26/2013  02:02:00      -67.172       37.636      -20.232       33.327       33.968       14.056     1110.680     1153.857      197.571        0.440        0.123       76.997       16.881        0.048      342.303       17.617      860.932
08/26/2013  02:03:00      -92.084       20.497       -9.893       26.563       25.561       16.881      705.590      653.357      284.956        0.532        0.082       94.338       13.398        0.020      342.357       17.709      860.941
08/26/2013  02:04:00      -94.066       22.120      -11.034       27.141       23.247       15.618      736.607      540.432      243.907        0.549        0.076       96.632       11.581        0.014      342.274       17.570      860.949
08/26/2013  02:05:00      -91.970       -2.333      -10.932       15.009       20.028        9.236      225.278      401.107       85.312        0.465        0.036       92.000        7.261        0.006      341.933       16.989      860.946
08/26/2013  02:06:00     -149.363      -13.794      -17.760       30.363       22.393       13.998      921.933      501.431      195.956        1.222        0.081      149.999       13.834        0.009      341.818       16.794      860.939
08/26/2013  02:07:00     -147.416       21.940      -20.484       34.877       29.055       17.539     1216.435      844.188      307.603        1.250        0.118      149.040       13.015        0.008      341.922       16.972      860.942
08/26/2013  02:08:00     -127.701       23.176       -5.318       28.497       24.830       15.786      812.054      616.541      249.190        0.927        0.084      129.787        8.833        0.005      342.167       17.388      860.952
08/26/2013  02:09:00     -126.898       -1.542       -6.454       27.041       24.980       16.585      731.236      624.014      275.057        0.889        0.082      126.907        9.375        0.005      341.863       16.871      860.978
08/26/2013  02:10:00     -149.407       12.721      -14.890       28.197       21.246       15.244      795.046      451.396      232.375        1.209        0.074      149.948        4.861        0.001      341.727       16.640      861.007
08/26/2013  02:11:00     -172.067        7.959      -16.377       27.444       22.231       13.218      753.193      494.228      174.706        1.568        0.071      172.251        5.797        0.001      341.726       16.639      861.007
08/26/2013  02:12:00     -168.714       35.010      -11.533       49.578       31.586       23.561     2457.944      997.663      555.107        1.692        0.201      172.308       18.436        0.011      341.793       16.753      861.008
08/26/2013  02:13:00     -165.180       -1.544      -14.140       33.906       37.448       19.568     1149.596     1402.365      382.904        1.521        0.147      165.187       17.873        0.012      341.832       16.819      861.013
08/26/2013  02:14:00     -176.183       39.539      -13.432       36.616       20.506       14.534     1340.699      420.491      211.226        1.738        0.099      180.565       13.592        0.006      341.746       16.673      861.016
08/26/2013  02:15:00     -147.539       36.355      -10.667       40.293       20.217       20.028     1623.547      408.737      401.116        1.282        0.122      151.952       16.918        0.012      341.795       16.755      861.032
08/26/2013  02:16:00      -98.351       19.449       -2.036       33.547       32.489       21.940     1125.376     1055.526      481.351        0.636        0.133      100.256       16.947        0.029      341.875       16.892      861.057
08/26/2013  02:17:00      -44.094      -11.552       -7.936       23.037       27.776       19.272      530.700      771.507      371.417        0.191        0.084       45.582       15.772        0.120      341.921       16.971      861.073
08/26/2013  02:18:00      -44.140        1.958       -4.994       20.956       22.864       17.143      439.162      522.748      293.877        0.162        0.063       44.183       14.437        0.107      342.005       17.111      861.089
08/26/2013  02:19:00      -90.411      -47.216      -14.744       23.518       22.233       14.243      553.109      494.320      202.872        0.594        0.063      101.998        8.168        0.006      341.890       16.915      861.095
08/26/2013  02:20:00      -29.139      -32.676        3.068       42.992       19.819       13.591     1848.332      392.803      184.703        0.218        0.121       43.781        9.771        0.050      341.799       16.762      861.118
08/26/2013  02:21:00        6.074      -13.203      -16.217       16.513       16.679       11.385      272.677      278.182      129.610        0.058        0.034       14.533        8.712        0.359      341.809       16.780      861.136
08/26/2013  02:22:00      -11.059      -20.078       -1.580       10.465       13.744       14.111      109.518      188.889      199.134        0.051        0.025       22.922        6.486        0.080      341.783       16.735      861.151
08/26/2013  02:23:00        0.732      -21.605       13.754       11.714       21.823       11.781      137.221      476.258      138.795        0.070        0.038       21.618       10.836        0.251      341.675       16.552      861.173
08/26/2013  02:24:00      -52.811      -35.100       -3.232       12.753       10.885        6.835      162.649      118.483       46.723        0.218        0.016       63.412        4.730        0.006      342.018       17.134      861.183
08/26/2013  02:25:00      -76.059       -8.081      -12.060       11.932        9.803        6.824      142.375       96.103       46.562        0.314        0.014       76.487        4.823        0.004      341.957       17.030      861.177
08/26/2013  02:26:00      -81.604       -6.659       -9.490       12.130       10.669        8.947      147.133      113.817       80.056        0.357        0.017       81.876        8.328        0.010      341.794       16.755      861.157
08/26/2013  02:27:00      -77.092      -13.447       -3.064       22.925       17.796       11.508      525.554      316.710      132.440        0.355        0.049       78.256        9.548        0.015      341.712       16.615      861.169
08/26/2013  02:28:00      -99.802      -35.055       -4.703       18.504       20.954        9.670      342.408      439.065       93.512        0.604        0.044      105.780        8.225        0.006      341.781       16.732      861.200
08/26/2013  02:29:00     -108.431      -31.700       -5.977       26.997       14.440       14.045      728.830      208.517      197.265        0.697        0.057      112.970       15.935        0.020      341.760       16.695      861.202
08/26/2013  02:30:00      -71.804      -48.200       -0.752       37.857       16.640       16.046     1433.144      276.898      257.490        0.472        0.098       86.481       16.209        0.035      341.690       16.577      861.218
08/26/2013  02:31:00      -15.127      -10.884        4.940       18.973       14.237       11.245      359.992      202.702      126.461        0.053        0.034       18.636        7.035        0.142      341.605       16.434      861.254
08/26/2013  02:32:00      -79.496      -47.348       -6.273       20.899       14.774       11.332      436.770      218.259      128.410        0.469        0.039       92.528        5.322        0.003      341.727       16.642      861.275
08/26/2013  02:33:00      -92.143      -45.422       -3.440       30.429       19.088       12.615      925.903      364.349      159.145        0.601        0.072      102.731       10.159        0.010      341.729       16.643      861.265
08/26/2013  02:34:00      -82.337      -46.239        3.818       40.170       34.604       24.716     1613.643     1197.453      610.857        0.618        0.171       94.432       18.864        0.040      341.628       16.473      861.254
08/26/2013  02:35:00     -107.772      -68.229       -1.899       43.075       36.055       21.282     1855.461     1299.945      452.904        0.994        0.180      127.554       18.772        0.022      341.594       16.412      861.254
08/26/2013  02:36:00     -141.874      -64.874       -7.974       25.265       21.600       16.643      638.325      466.560      277.002        1.289        0.069      156.002       11.590        0.006      341.580       16.391      861.260
08/26/2013  02:37:00      -89.196      -44.163       -4.852       26.032       28.001       16.555      677.651      784.074      274.071        0.583        0.087       99.530       12.925        0.017      341.537       16.320      861.260
08/26/2013  02:38:00      -75.703       -2.758       -4.766       30.098       19.664       17.813      905.917      386.688      317.302        0.369        0.080       75.753       15.849        0.044      341.533       16.311      861.254
08/26/2013  02:39:00     -105.750       -1.435      -12.454       35.258       22.950       15.907     1243.152      526.699      253.038        0.668        0.101      105.760       11.239        0.011      341.440       16.154      861.260
08/26/2013  02:40:00     -107.331      -29.281       -6.336       44.516       29.202       19.831     1981.663      852.762      393.272        0.782        0.161      111.254       18.876        0.029      341.420       16.120      861.273
08/26/2013  02:41:00     -131.420       -6.337      -14.243       35.578       20.477       19.104     1265.778      419.302      364.957        0.978        0.103      131.572       19.193        0.021      341.339       15.983      861.272
08/26/2013  02:42:00     -141.677        7.300      -15.100       37.434       30.157       27.281     1401.284      909.439      744.276        1.170        0.153      141.865       19.662        0.019      341.294       15.907      861.257
08/26/2013  02:43:00     -140.297       42.352      -14.877       57.225       32.924       29.136     3274.679     1084.010      848.901        1.345        0.260      146.550       23.075        0.025      341.390       16.070      861.241
08/26/2013  02:44:00     -145.512       41.070      -20.750       45.624       30.095       21.045     2081.543      905.700      442.872        1.336        0.172      151.197       13.232        0.008      341.543       16.329      861.236
08/26/2013  02:45:00     -151.859       47.539      -14.891       45.163       27.949       24.478     2039.724      781.144      599.170        1.448        0.171      159.126       18.388        0.013      341.570       16.373      861.240
08/26/2013  02:46:00     -153.154       47.724      -20.519       47.431       32.594       22.668     2249.711     1062.341      513.856        1.499        0.191      160.417       18.946        0.014      341.520       16.288      861.237
08/26/2013  02:47:00     -123.290       23.987      -14.075       46.843       34.587       26.814     2194.246     1196.263      718.996        1.004        0.205      125.602       21.120        0.028      341.425       16.128      861.234
08/26/2013  02:48:00     -103.374       20.908      -19.721       36.401       32.538       19.305     1325.049     1058.739      372.672        0.713        0.138      105.467       18.784        0.032      341.355       16.010      861.218
08/26/2013  02:49:00     -110.943      -54.792       -6.417       31.604       37.547       17.944      998.832     1409.787      321.987        0.904        0.137      123.735       14.372        0.013      341.243       15.820      861.212
08/26/2013  02:50:00      -41.594      -43.632       10.809       55.264       39.497       19.500     3054.164     1559.990      380.253        0.437        0.250       60.281       27.846        0.213      341.163       15.684      861.237
08/26/2013  02:51:00      -54.619      -24.360        0.121       25.800       15.976       13.554      665.627      255.229      183.710        0.234        0.055       59.805       15.421        0.066      341.180       15.714      861.273
08/26/2013  02:52:00      -81.823       -7.572       -9.659       26.261       15.361       10.958      689.629      235.967      120.079        0.395        0.052       82.173       12.199        0.022      341.200       15.749      861.286
08/26/2013  02:53:00      -76.168      -19.588      -13.674       20.433       19.664       10.130      417.522      386.691      102.610        0.364        0.045       78.647        3.695        0.002      341.217       15.778      861.273
08/26/2013  02:54:00      -89.280      -22.492       -8.827       18.820       20.254       14.010      354.211      410.208      196.287        0.476        0.048       92.070        9.210        0.010      341.249       15.830      861.276
08/26/2013  02:55:00      -90.653      -19.092       -7.451       40.327       30.213       20.532     1626.264      912.816      421.563        0.580        0.148       92.642       19.304        0.043      341.284       15.889      861.293
08/26/2013  02:56:00      -68.166      -15.440      -10.724       33.258       17.238       11.936     1106.125      297.135      142.468        0.327        0.077       69.893       11.242        0.026      341.262       15.853      861.300
08/26/2013  02:57:00      -79.158       -8.910       -6.228       34.281       29.094       16.330     1175.195      846.433      266.685        0.434        0.114       79.657       15.567        0.038      341.182       15.718      861.295
08/26/2013  02:58:00      -88.400      -52.777       -9.872       26.585       22.773       14.394      706.744      518.630      207.179        0.606        0.072      102.956       10.584        0.011      341.169       15.696      861.303
08/26/2013  02:59:00      -96.862      -40.149       -2.937       17.659       13.873       10.771      311.846      192.456      116.015        0.581        0.031      104.854        8.115        0.006      341.168       15.694      861.318
08/26/2013  03:00:00     -114.554      -21.861       -9.869       19.796       13.233       11.423      391.887      175.102      130.492        0.720        0.035      116.622        9.235        0.006      341.185       15.723      861.321
08/26/2013  03:01:00      -78.274      -12.857       -6.812       22.372       19.328       14.707      500.507      373.576      216.293        0.371        0.055       79.323       10.372        0.017      341.191       15.733      861.322
08/26/2013  03:02:00      -69.752      -25.116       -3.751       17.207       21.203       15.061      296.080      449.584      226.826        0.324        0.049       74.136        8.997        0.015      341.201       15.751      861.321
08/26/2013  03:03:00     -107.164      -19.975       -8.125       39.113       32.067       17.187     1529.847     1028.320      295.384        0.740        0.143      109.010       16.951        0.024      341.202       15.750      861.350
08/26/2013  03:04:00     -122.713      -36.027       -1.071       22.392       21.671       15.941      501.419      469.616      254.117        0.879        0.061      127.892        8.334        0.004      341.191       15.732      861.389
08/26/2013  03:05:00     -149.388      -36.954       -6.223       26.151       22.228       15.933      683.873      494.098      253.869        1.258        0.072      153.891       13.850        0.008      341.079       15.543      861.403
08/26/2013  03:06:00     -109.377      -53.186       -8.462       36.055       31.681       19.219     1299.996     1003.700      369.375        0.877        0.134      121.622       15.865        0.017      341.031       15.462      861.393
08/26/2013  03:07:00     -109.721      -48.622       -4.793       26.730       24.455       17.117      714.487      598.053      292.982        0.802        0.080      120.012       15.039        0.016      341.077       15.540      861.405
08/26/2013  03:08:00      -62.711      -44.506        5.034       41.258       23.538       17.869     1702.252      554.053      319.286        0.426        0.129       76.899       17.306        0.051      341.042       15.480      861.427
08/26/2013  03:09:00      -63.409      -52.536       -7.481       44.782       28.500       17.350     2005.412      812.237      301.013        0.498        0.156       82.345        6.323        0.006      341.110       15.596      861.438
08/26/2013  03:10:00      -67.346      -40.571        3.095       44.976       25.705       16.837     2022.845      660.767      283.469        0.458        0.148       78.622       16.558        0.044      341.038       15.475      861.465
08/26/2013  03:11:00      -88.234      -59.237       -1.418       42.525       24.756       17.694     1808.364      612.862      313.078        0.701        0.137      106.274       15.705        0.022      341.054       15.501      861.493
08/26/2013  03:12:00     -116.397      -72.635       -8.580       32.179       26.619       17.184     1035.499      708.563      295.287        1.047        0.102      137.201       13.642        0.010      341.091       15.562      861.500
08/26/2013  03:13:00      -78.906      -61.084        4.042       46.678       35.371       24.653     2178.844     1251.107      607.753        0.700        0.202       99.787       27.680        0.077      341.116       15.606      861.498
08/26/2013  03:14:00     -131.172      -44.049       -3.085       33.369       26.805       20.796     1113.476      718.488      432.479        1.071        0.113      138.370       20.123        0.021      341.032       15.463      861.496
08/26/2013  03:15:00     -139.726      -34.089       -5.105       34.059       30.559       20.739     1160.022      933.837      430.094        1.162        0.126      143.824       17.471        0.015      340.941       15.308      861.513
08/26/2013  03:16:00     -128.645      -47.269      -10.433       23.865       23.679       18.974      569.519      560.698      360.031        1.019        0.075      137.054       14.476        0.011      340.946       15.317      861.536
08/26/2013  03:17:00     -138.298      -39.703       -7.097       36.524       23.528       14.807     1334.030      553.568      219.261        1.143        0.105      143.884       11.031        0.006      340.996       15.401      861.542
08/26/2013  03:18:00     -136.018      -36.589      -17.174       19.974       14.186       14.216      398.968      201.249      202.090        1.047        0.040      140.853       10.569        0.006      341.022       15.446      861.551
08/26/2013  03:19:00     -122.182      -32.954       -9.150       26.617       21.179       15.062      708.457      448.558      226.864        0.874        0.069      126.548       14.929        0.014      340.958       15.338      861.555
08/26/2013  03:20:00     -111.957      -39.023       -7.542       22.320       19.419       14.651      498.186      377.111      214.640        0.760        0.054      118.563        7.498        0.004      341.029       15.458      861.550
08/26/2013  03:21:00     -121.631      -33.446       -4.419       31.985       29.088       18.019     1023.023      846.087      324.666        0.906        0.110      126.146       16.909        0.018      340.956       15.336      861.547
08/26/2013  03:22:00     -145.540      -25.802      -10.981       56.874       35.088       28.894     3234.661     1231.174      834.835        1.363        0.265      147.809       29.340        0.039      340.897       15.235      861.553
08/26/2013  03:23:00     -146.695      -29.655       -2.735       46.578       39.790       22.634     2169.552     1583.261      512.309        1.333        0.213      149.663       21.215        0.020      340.883       15.211      861.567
08/26/2013  03:24:00     -162.073      -35.239      -11.202       32.990       46.419       22.857     1088.372     2154.706      522.458        1.570        0.188      165.860       18.775        0.013      340.902       15.242      861.584
08/26/2013  03:25:00     -150.302       -3.613       -4.437       66.674       44.551       30.302     4445.431     1984.827      918.214        1.498        0.367      150.345       33.304        0.049      340.932       15.293      861.554
08/26/2013  03:26:00     -148.467      -17.421      -18.244       24.799       23.379       18.757      615.014      546.588      351.810        1.210        0.076      149.485       14.756        0.010      341.000       15.408      861.522
08/26/2013  03:27:00     -126.909      -16.778      -15.200       25.579       29.646       16.311      654.262      878.909      266.035        0.921        0.090      128.013       15.208        0.014      341.008       15.423      861.518
08/26/2013  03:28:00     -123.615      -49.292      -10.393       18.896       22.358       13.975      357.069      499.873      195.299        0.944        0.053      133.080        8.102        0.004      341.037       15.472      861.563
08/26/2013  03:29:00     -124.793      -42.825       -6.442       18.536       16.312       11.158      343.572      266.073      124.493        0.909        0.037      131.937        7.954        0.004      341.089       15.559      861.590
08/26/2013  03:30:00     -108.855      -38.195       -7.355       15.841       20.871       10.375      250.939      435.611      107.649        0.708        0.040      115.361        6.658        0.003      341.045       15.484      861.580
08/26/2013  03:31:00      -88.167      -50.169       -9.386       17.360       15.870       11.537      301.378      251.868      133.102        0.553        0.034      101.442        2.457        0.001      341.029       15.459      861.570
08/26/2013  03:32:00      -68.652      -50.189       -2.587       31.802       29.551       19.305     1011.360      873.272      372.668        0.475        0.113       85.041       18.544        0.048      340.941       15.308      861.554
08/26/2013  03:33:00      -82.733      -70.504       -0.420       31.834       23.951       19.519     1013.376      573.635      380.995        0.689        0.098      108.699       19.060        0.031      340.976       15.369      861.563
08/26/2013  03:34:00     -122.755      -67.994        3.697       45.536       31.247       24.916     2073.550      976.403      620.798        1.169        0.184      140.328       22.555        0.026      340.907       15.251      861.571
08/26/2013  03:35:00     -126.014      -62.317       -3.690       42.798       26.692       27.709     1831.696      712.478      767.800        1.154        0.166      140.581       24.464        0.030      340.872       15.193      861.569
08/26/2013  03:36:00     -152.495      -66.729       -1.041       31.646       26.382       19.250     1001.475      695.987      370.565        1.489        0.103      166.455       16.593        0.010      340.956       15.335      861.573
08/26/2013  03:37:00     -105.998      -67.121       -3.065       37.009       24.296       16.669     1369.695      590.276      277.871        0.899        0.112      125.462       16.778        0.018      340.917       15.269      861.587
08/26/2013  03:38:00      -92.697      -44.838        0.665       35.525       28.395       16.745     1262.040      806.299      280.394        0.648        0.117      102.972       16.280        0.025      340.962       15.343      861.591
08/26/2013  03:39:00      -90.695      -33.232       -4.006       30.337       25.507       16.357      920.343      650.615      267.554        0.559        0.092       96.592       13.565        0.020      340.927       15.286      861.585
08/26/2013  03:40:00     -123.192      -47.203       -8.196       30.217       29.679       19.499      913.088      880.867      380.227        0.982        0.109      131.926       21.319        0.026      340.874       15.194      861.582
08/26/2013  03:41:00     -119.877      -40.366       -2.689       26.993       26.616       20.168      728.603      708.432      406.748        0.893        0.092      126.491       19.118        0.023      340.887       15.217      861.576
08/26/2013  03:42:00     -120.936      -18.712       -5.021       32.630       23.523       18.124     1064.713      553.327      328.481        0.847        0.097      122.375       16.145        0.017      340.848       15.151      861.556
08/26/2013  03:43:00     -107.641      -37.604        2.129       30.526       32.854       17.716      931.867     1079.414      313.845        0.766        0.116      114.021        8.499        0.006      340.821       15.107      861.561
08/26/2013  03:44:00     -109.673      -37.772        0.536       41.308       27.606       17.589     1706.347      762.110      309.388        0.812        0.139      115.995       19.303        0.028      340.830       15.121      861.571
08/26/2013  03:45:00     -121.769      -23.556       -7.539       29.838       25.413       15.244      890.284      645.842      232.368        0.860        0.088      124.027       14.047        0.013      340.727       14.947      861.574
08/26/2013  03:46:00     -158.105       -4.210       -7.861       39.784       20.486       25.843     1582.728      419.661      667.859        1.387        0.134      158.161       24.930        0.025      340.765       15.011      861.561
08/26/2013  03:47:00     -120.005      -23.382       -8.760       43.104       25.386       19.422     1857.919      644.428      377.228        0.895        0.144      122.261       21.932        0.032      340.855       15.163      861.558
08/26/2013  03:48:00     -135.950      -24.699       -8.758       26.909       24.130       14.583      724.118      582.260      212.678        1.034        0.076      138.175       11.899        0.007      340.751       14.987      861.554
08/26/2013  03:49:00     -137.025      -35.896       -9.978       30.753       24.125       18.021      945.727      582.031      324.752        1.101        0.093      141.648       14.881        0.011      340.768       15.016      861.552
08/26/2013  03:50:00     -126.313      -30.608       -2.789       32.332       28.149       20.874     1045.337      792.359      435.727        0.959        0.114      129.969       21.473        0.027      340.702       14.905      861.584
08/26/2013  03:51:00     -111.047       -0.114       -4.642       49.701       43.953       27.822     2470.196     1931.896      774.058        0.876        0.259      111.047       23.912        0.046      340.655       14.826      861.593
08/26/2013  03:52:00      -88.735      -19.925        5.918       60.169       38.124       24.081     3620.251     1453.405      579.911        0.698        0.283       90.944       30.382        0.112      340.650       14.817      861.591
08/26/2013  03:53:00      -92.028      -16.985       -4.409       35.071       26.884       22.850     1229.958      722.775      522.123        0.563        0.124       93.583       21.669        0.054      340.662       14.838      861.587
08/26/2013  03:54:00     -142.588      -54.959      -14.684       43.002       25.362       20.271     1849.184      643.225      410.924        1.323        0.145      152.813       15.051        0.010      340.705       14.910      861.598
08/26/2013  03:55:00     -126.834      -55.931       -8.032       48.521       37.626       26.512     2354.298     1415.734      702.899        1.188        0.224      138.619       18.235        0.017      340.623       14.771      861.614
08/26/2013  03:56:00     -143.434      -40.345       -7.485       40.993       48.017       26.051     1680.410     2305.639      678.667        1.346        0.233      149.000       20.078        0.018      340.606       14.742      861.625
08/26/2013  03:57:00     -138.251      -19.396       -3.318       64.501       34.639       27.461     4160.337     1199.874      754.129        1.281        0.306      139.605       34.024        0.059      340.535       14.621      861.608
08/26/2013  03:58:00     -153.711      -17.884       -7.054       43.006       35.518       26.742     1849.529     1261.526      715.154        1.391        0.191      154.748       23.582        0.023      340.549       14.646      861.617
08/26/2013  03:59:00     -122.453      -34.009       -6.854       53.441       29.504       22.094     2855.902      870.492      488.134        1.021        0.211      127.088       23.526        0.034      340.592       14.719      861.624
08/26/2013  04:00:00     -119.291      -57.249       -9.422       44.013       27.250       18.671     1937.178      742.542      348.625        1.031        0.151      132.316       20.032        0.023      340.662       14.839      861.647
08/26/2013  04:01:00     -107.423      -27.340       -5.361       28.652       24.763       18.700      820.923      613.229      349.686        0.705        0.089      110.848       16.700        0.023      340.651       14.819      861.654
08/26/2013  04:02:00     -121.657      -39.000       -8.700       30.783       25.914       16.547      947.581      671.545      273.818        0.914        0.095      127.755       17.964        0.020      340.679       14.867      861.647
08/26/2013  04:03:00     -123.117      -16.424       -4.440       32.830       40.319       22.892     1077.835     1625.642      524.047        0.934        0.161      124.207       21.335        0.030      340.668       14.847      861.645
08/26/2013  04:04:00      -90.455       -9.871       -4.511       26.324       32.374       18.900      692.958     1048.104      357.198        0.520        0.105       90.992       10.929        0.014      340.626       14.776      861.652
08/26/2013  04:05:00     -106.365      -42.016       -7.682       32.759       19.025       15.353     1073.181      361.965      235.714        0.740        0.084      114.363       14.442        0.016      340.634       14.790      861.683
08/26/2013  04:06:00      -61.123      -43.629        0.716       31.805       16.608       18.067     1011.570      275.810      326.406        0.363        0.081       75.097       18.050        0.058      340.685       14.876      861.699
08/26/2013  04:07:00     -123.840      -83.144       -7.006       43.557       33.258       23.384     1897.220     1106.090      546.791        1.292        0.178      149.162       19.083        0.016      340.708       14.915      861.705
08/26/2013  04:08:00     -157.096      -66.434       -2.891       85.493       53.176       41.720     7309.082     2827.647     1740.519        2.049        0.594      170.566       35.900        0.044      340.532       14.615      861.690
08/26/2013  04:09:00     -187.404     -122.109      -10.591       53.142       40.793       30.822     2824.031     1664.065      950.025        2.779        0.272      223.676       17.183        0.006      340.475       14.517      861.681
08/26/2013  04:10:00     -169.886      -47.408      -11.400       29.559       37.862       22.621      873.738     1433.516      511.696        1.703        0.141      176.376       15.911        0.008      340.466       14.505      861.650
08/26/2013  04:11:00     -163.496      -55.705      -15.809       30.514       25.078       19.560      931.129      628.916      382.589        1.601        0.097      172.726       14.831        0.007      340.452       14.483      861.629
08/26/2013  04:12:00     -151.067      -80.043       -3.497       49.743       39.545       29.594     2474.383     1563.840      875.825        1.708        0.246      170.962       27.569        0.026      340.453       14.482      861.647
08/26/2013  04:13:00     -160.132      -50.173        3.090       63.765       42.620       29.949     4065.972     1816.459      896.924        1.747        0.339      167.809       31.089        0.034      340.394       14.383      861.647
08/26/2013  04:14:00     -201.042      -51.468       -5.323       58.873       38.769       27.399     3466.030     1503.060      750.713        2.441        0.286      207.526       31.912        0.024      340.436       14.452      861.660
08/26/2013  04:15:00     -193.386      -64.376       -6.626       35.529       48.362       22.403     1262.298     2338.862      501.905        2.284        0.205      203.820       19.581        0.009      340.436       14.451      861.672
08/26/2013  04:16:00     -151.626      -51.110      -14.128       36.921       34.436       22.257     1363.135     1185.846      495.381        1.442        0.152      160.008        9.734        0.004      340.410       14.410      861.681
08/26/2013  04:17:00     -162.966      -66.025      -19.576       35.826       27.887       22.017     1283.484      777.684      484.752        1.692        0.127      175.833       19.464        0.012      340.432       14.447      861.686
08/26/2013  04:18:00     -148.486      -59.956      -10.110       31.921       43.660       24.227     1018.963     1906.232      586.944        1.463        0.176      160.133       22.098        0.019      340.387       14.375      861.664
08/26/2013  04:19:00     -126.493      -15.287      -12.381       26.401       49.704       20.397      697.031     2470.499      416.043        0.998        0.179      127.413       15.345        0.015      340.383       14.366      861.666
08/26/2013  04:20:00     -192.242       15.995      -18.797       35.560       33.294       20.689     1264.518     1108.484      428.032        2.018        0.140      192.906       19.304        0.010      340.528       14.609      861.651
08/26/2013  04:21:00     -165.605       19.659      -10.283       49.649       35.075       17.211     2465.040     1230.259      296.212        1.595        0.200      166.768       12.634        0.006      340.468       14.507      861.623
08/26/2013  04:22:00     -127.079      -22.506       -0.555       62.824       41.212       29.895     3946.907     1698.425      893.734        1.160        0.327      129.056       29.186        0.051      340.426       14.437      861.611
08/26/2013  04:23:00     -171.960      -66.010      -15.069       45.470       49.579       23.940     2067.522     2458.121      573.100        1.963        0.255      184.194       16.575        0.008      340.450       14.477      861.619
08/26/2013  04:24:00     -168.291      -65.438       -3.210       48.334       50.528       28.354     2336.151     2553.043      803.974        1.915        0.285      180.566       25.688        0.020      340.353       14.315      861.649
08/26/2013  04:25:00     -139.043      -65.848      -11.032       59.390       54.187       21.933     3527.207     2936.268      481.049        1.537        0.347      153.847       18.100        0.014      340.405       14.401      861.669
08/26/2013  04:26:00     -123.460      -62.635       -5.315       48.583       33.019       25.040     2360.315     1090.255      626.985        1.163        0.204      138.440       23.454        0.029      340.409       14.410      861.669
08/26/2013  04:27:00     -133.916      -47.372      -10.533       25.819       25.250       14.260      666.608      637.582      203.357        1.090        0.075      142.048       10.463        0.005      340.462       14.499      861.680
08/26/2013  04:28:00     -127.108      -28.935       -8.949       23.447       19.545       14.803      549.769      382.026      219.114        0.911        0.058      130.360       11.488        0.008      340.519       14.597      861.677
08/26/2013  04:29:00     -109.840      -39.685       -6.721       34.518       25.697       20.804     1191.468      660.333      432.812        0.798        0.114      116.789       15.512        0.018      340.523       14.602      861.663
08/26/2013  04:30:00     -104.532       -7.015       -6.352       49.040       27.606       21.739     2404.955      762.076      472.582        0.733        0.182      104.767       24.068        0.053      340.421       14.431      861.662
08/26/2013  04:31:00     -164.551      -26.183      -11.051       56.734       36.501       27.009     3218.726     1332.338      729.475        1.658        0.264      166.621       30.751        0.034      340.472       14.514      861.660
08/26/2013  04:32:00     -146.462      -55.695       -3.431       39.771       34.195       21.369     1581.717     1169.307      456.635        1.389        0.160      156.694       21.349        0.019      340.439       14.461      861.661
08/26/2013  04:33:00     -128.550      -21.034       -5.704       53.821       27.609       19.387     2896.729      762.249      375.865        1.052        0.202      130.259       25.405        0.038      340.390       14.379      861.673
08/26/2013  04:34:00     -107.913      -48.802       -5.841       41.594       13.670       16.866     1730.092      186.879      284.471        0.813        0.110      118.435       14.684        0.015      340.395       14.386      861.684
08/26/2013  04:35:00      -60.502      -38.944       -1.192       36.661       23.141       15.354     1344.057      535.499      235.743        0.365        0.106       71.952       17.140        0.057      340.459       14.493      861.694
08/26/2013  04:36:00      -20.265      -25.317       13.832       44.311       26.926       18.461     1963.466      724.991      340.810        0.214        0.151       32.428       22.519        0.482      340.351       14.311      861.709
08/26/2013  04:37:00      -42.949      -42.820        1.494       52.868       28.291       19.866     2794.993      800.402      394.653        0.383        0.200       60.647       21.720        0.128      340.337       14.287      861.713
08/26/2013  04:38:00       -9.753      -54.666       16.293       32.516       35.010       23.266     1057.291     1225.707      541.324        0.309        0.141       55.529       21.601        0.151      340.354       14.317      861.733
08/26/2013  04:39:00      -27.850      -56.006        1.637       53.510       40.187       29.165     2863.370     1615.032      850.619        0.462        0.266       62.548       30.301        0.235      340.264       14.165      861.750
08/26/2013  04:40:00      -71.485      -72.038        2.094       67.531       56.049       32.002     4560.420     3141.468     1024.159        0.951        0.436      101.487       32.294        0.101      340.250       14.142      861.747
08/26/2013  04:41:00     -178.121     -109.136      -12.673       64.803       72.024       36.670     4199.390     5187.444     1344.722        2.726        0.537      208.897       28.969        0.019      340.188       14.033      861.746
08/26/2013  04:42:00     -187.821     -113.641      -14.099       68.778       45.710       29.805     4730.366     2089.399      888.328        2.805        0.385      219.525       25.672        0.014      340.185       14.028      861.736
08/26/2013  04:43:00     -106.121      -76.615       -2.271       60.391       28.689       27.400     3647.041      823.053      750.733        1.118        0.261      130.887       24.577        0.035      340.128       13.935      861.729
08/26/2013  04:44:00     -152.038     -121.923       -4.958       79.711       50.100       37.441     6353.861     2509.997     1401.842        2.413        0.513      194.887       39.523        0.041      340.170       14.003      861.745
08/26/2013  04:45:00     -186.235      -96.611       -2.590       57.007       50.307       31.238     3249.791     2530.797      975.815        2.539        0.338      209.803       28.379        0.018      340.232       14.108      861.743
08/26/2013  04:46:00      -88.524      -52.784       11.471       65.315       45.101       31.580     4266.017     2034.095      997.288        0.902        0.365      103.066       34.653        0.113      340.209       14.071      861.735
08/26/2013  04:47:00     -107.756      -96.410        3.951       48.540       38.525       33.004     2356.169     1484.142     1089.254        1.292        0.246      144.590       30.141        0.043      340.219       14.087      861.733
08/26/2013  04:48:00     -153.800      -71.535      -10.390       26.047       21.922       15.782      678.455      480.574      249.070        1.514        0.070      169.622       13.409        0.006      340.322       14.262      861.718
08/26/2013  04:49:00     -139.628      -54.789       -0.392       31.550       28.077       19.176      995.425      788.319      367.707        1.232        0.108      149.993       14.423        0.009      340.307       14.238      861.721
08/26/2013  04:50:00      -46.349      -26.343        8.445       50.940       34.573       21.651     2594.854     1195.269      468.771        0.359        0.213       53.312       21.235        0.159      340.241       14.126      861.726
08/26/2013  04:51:00      -47.199      -64.970       16.482       52.338       43.609       32.862     2739.254     1901.702     1079.923        0.622        0.286       80.304       31.765        0.156      340.302       14.228      861.737
08/26/2013  04:52:00      -63.326      -62.084       10.319       68.170       45.358       29.740     4647.181     2057.303      884.496        0.778        0.379       88.683       32.673        0.136      340.243       14.130      861.750
08/26/2013  04:53:00     -147.182      -86.761       -8.178       52.001       38.243       38.461     2704.151     1462.543     1479.281        1.745        0.282      170.851       32.579        0.036      340.177       14.017      861.754
08/26/2013  04:54:00     -109.419      -61.012        4.132       58.946       43.451       27.418     3474.617     1887.972      751.754        1.091        0.306      125.280       31.887        0.065      340.182       14.026      861.752
08/26/2013  04:55:00      -90.012      -92.599       -2.472       44.073       30.636       25.589     1942.397      938.545      654.794        1.011        0.177      129.139       25.369        0.039      340.138       13.951      861.761
08/26/2013  04:56:00      -91.786      -73.390       -3.473       34.786       28.371       20.521     1210.086      804.895      421.092        0.813        0.122      117.520       20.491        0.030      340.157       13.984      861.764
08/26/2013  04:57:00     -108.488      -79.678       -0.920       35.217       25.285       22.706     1240.225      639.320      515.561        1.026        0.120      134.604       19.337        0.021      340.185       14.033      861.773
08/26/2013  04:58:00      -92.056      -59.780       -0.215       26.115       26.522       18.166      682.013      703.434      330.004        0.688        0.086      109.763        8.338        0.006      340.210       14.071      861.764
08/26/2013  04:59:00     -104.679      -25.542      -12.771       23.823       32.570       16.782      567.518     1060.796      281.650        0.684        0.095      107.750       10.775        0.010      340.173       14.011      861.750
08/26/2013  05:00:00      -90.540      -17.303        3.630       36.131       28.359       21.523     1305.414      804.255      463.234        0.554        0.129       92.179       21.067        0.052      340.101       13.890      861.729
08/26/2013  05:01:00     -104.826      -27.286       -6.834       27.101       26.738       19.457      734.487      714.920      378.578        0.680        0.091      108.319       12.415        0.013      340.046       13.797      861.730
08/26/2013  05:02:00     -124.658      -83.902       -6.613       25.572       26.316       17.561      653.952      692.529      308.389        1.214        0.083      150.264       15.754        0.011      340.159       13.987      861.750
08/26/2013  05:03:00     -128.308      -20.152       -6.229       34.397       27.600       21.051     1183.131      761.758      443.163        0.965        0.119      129.881       19.104        0.022      340.034       13.777      861.752
08/26/2013  05:04:00     -128.328      -37.714       -4.462       26.410       33.199       18.679      697.470     1102.153      348.912        1.003        0.107      133.755       13.785        0.011      340.037       13.781      861.755
08/26/2013  05:05:00     -129.285      -59.406       -1.568       44.070       24.514       21.220     1942.189      600.928      450.287        1.162        0.150      142.280       19.970        0.020      340.066       13.830      861.749
08/26/2013  05:06:00     -176.267      -65.885       -6.179       34.129       29.660       15.229     1164.792      879.718      231.913        1.886        0.114      188.177        9.983        0.003      340.047       13.798      861.749
08/26/2013  05:07:00     -134.817      -23.624       -4.337       54.467       28.341       17.854     2966.686      803.238      318.766        1.142        0.204      136.871       16.761        0.015      340.046       13.796      861.745
08/26/2013  05:08:00     -106.323      -27.290        0.431       40.132       32.141       21.102     1610.572     1033.059      445.284        0.757        0.154      109.769       19.569        0.032      339.958       13.648      861.744
08/26/2013  05:09:00     -121.148      -69.612        1.232       35.345       22.593       19.086     1249.239      510.448      364.271        1.082        0.106      139.723       13.845        0.010      340.010       13.736      861.758
08/26/2013  05:10:00     -109.101      -67.527       -7.653       40.754       24.768       17.931     1660.857      613.441      321.531        0.956        0.130      128.308       19.611        0.023      340.102       13.891      861.766
08/26/2013  05:11:00     -100.282      -70.160        1.388       34.361       25.546       19.103     1180.667      652.610      364.906        0.859        0.110      122.388       14.626        0.014      340.104       13.894      861.783
08/26/2013  05:12:00      -57.337      -57.853        5.627       52.905       48.267       29.747     2798.932     2329.674      884.864        0.634        0.301       81.453       25.802        0.100      340.096       13.880      861.799
08/26/2013  05:13:00     -152.476      -78.284       -6.014       42.153       32.844       27.406     1776.909     1078.714      751.088        1.651        0.180      171.398       26.324        0.024      340.118       13.919      861.778
08/26/2013  05:14:00     -138.339      -40.283       -3.029       50.424       35.653       25.171     2542.621     1271.139      633.571        1.261        0.222      144.085       22.304        0.024      340.062       13.821      861.774
08/26/2013  05:15:00     -115.703      -54.978        4.847       68.648       41.722       29.155     4712.580     1740.707      850.026        1.187        0.365      128.100       33.966        0.070      340.104       13.894      861.778
08/26/2013  05:16:00      -74.726      -61.378        2.359       45.375       44.949       22.855     2058.850     2020.435      522.345        0.698        0.230       96.702       20.655        0.046      340.114       13.912      861.784
08/26/2013  05:17:00     -112.581      -58.153       -0.750       34.358       51.923       28.185     1180.453     2695.951      794.401        1.036        0.234      126.713       22.861        0.033      340.068       13.833      861.770
08/26/2013  05:18:00      -80.672      -27.915       -9.190       27.703       26.548       14.526      767.439      704.793      211.007        0.453        0.084       85.365        8.948        0.011      339.982       13.688      861.757
08/26/2013  05:19:00      -70.600      -35.401       -5.369       44.698       34.252       21.627     1997.955     1173.191      467.715        0.495        0.182       78.979       22.300        0.080      339.963       13.655      861.774
08/26/2013  05:20:00      -48.324      -25.511        9.419       43.046       23.284       18.025     1852.953      542.147      324.901        0.290        0.136       54.645       20.920        0.147      339.899       13.548      861.781
08/26/2013  05:21:00     -100.083      -38.221       -9.524       20.243       19.176       10.738      409.773      367.708      115.301        0.623        0.045      107.133        3.112        0.001      339.989       13.701      861.760
08/26/2013  05:22:00      -91.119      -32.945       -3.696       17.442       20.509       12.788      304.238      420.622      163.521        0.514        0.044       96.892        6.547        0.005      339.871       13.502      861.741
08/26/2013  05:23:00      -62.873      -42.770       -3.659       36.636       17.864       22.658     1342.197      319.132      513.367        0.398        0.109       76.041       17.424        0.053      339.928       13.597      861.749
08/26/2013  05:24:00      -77.756      -43.776       -6.706       25.336       27.631       15.106      641.920      763.471      228.178        0.482        0.082       89.232       13.902        0.024      339.937       13.614      861.763
08/26/2013  05:25:00      -95.512      -40.081       -7.293       36.382       18.430       14.604     1323.652      339.671      213.265        0.633        0.094      103.581       10.655        0.011      339.925       13.591      861.780
08/26/2013  05:26:00      -69.572      -24.343       -7.813       27.374       24.427       13.323      749.322      596.665      177.507        0.351        0.076       73.708       11.759        0.025      339.947       13.630      861.788
08/26/2013  05:27:00     -106.823      -51.817       -9.403       25.169       17.490       12.653      633.478      305.894      160.107        0.764        0.055      118.727        8.916        0.006      339.916       13.577      861.798
08/26/2013  05:28:00     -137.174      -60.003       -9.430       27.209       27.522       16.358      740.323      757.437      267.573        1.214        0.088      149.723       14.402        0.009      339.918       13.580      861.803
08/26/2013  05:29:00     -128.842      -53.768       -3.099       21.041       19.428       13.518      442.711      377.444      182.749        1.025        0.050      139.611       10.617        0.006      339.928       13.599      861.804
08/26/2013  05:30:00      -91.835      -43.478        3.202       42.839       27.664       21.702     1835.208      765.277      470.980        0.670        0.154      101.607       23.728        0.055      339.870       13.500      861.815
08/26/2013  05:31:00      -49.141      -40.722        8.669       50.087       29.791       21.573     2508.679      887.498      465.379        0.400        0.193       63.821       19.680        0.095      339.878       13.512      861.832
08/26/2013  05:32:00      -99.776      -69.300       -3.377       53.881       27.750       21.292     2903.145      770.077      453.340        0.945        0.206      121.481       24.149        0.040      339.868       13.495      861.828
08/26/2013  05:33:00      -84.557      -68.700       -2.924       48.419       32.525       24.288     2344.381     1057.856      589.931        0.793        0.200      108.948       24.283        0.050      339.806       13.392      861.830
08/26/2013  05:34:00      -85.006      -49.579        2.395       50.205       34.522       25.095     2520.539     1191.754      629.751        0.702        0.217       98.408       22.326        0.051      339.795       13.375      861.850
08/26/2013  05:35:00      -57.718      -66.679        7.254       55.332       39.796       29.855     3061.609     1583.758      891.323        0.668        0.277       88.190       32.826        0.139      339.775       13.340      861.877
08/26/2013  05:36:00     -121.111      -88.380       -1.877       54.979       55.024       31.941     3022.716     3027.665     1020.247        1.478        0.354      149.930       31.403        0.044      339.846       13.459      861.885
08/26/2013  05:37:00     -164.366     -104.682       -9.106       35.979       29.100       21.783     1294.453      846.787      474.513        2.034        0.131      194.870       15.567        0.006      339.963       13.656      861.868
08/26/2013  05:38:00     -123.549      -46.778       -4.527       32.599       37.895       18.165     1062.721     1436.048      329.977        1.015        0.141      132.108       14.257        0.012      339.919       13.581      861.861
08/26/2013  05:39:00     -114.949      -58.886       -3.845       34.638       26.393       17.707     1199.764      696.575      313.537        0.945        0.110      129.154       18.569        0.021      339.903       13.555      861.881
08/26/2013  05:40:00      -58.542      -37.250        6.337       61.619       35.735       20.072     3796.914     1277.007      402.893        0.516        0.274       69.388       24.484        0.125      339.916       13.578      861.914
08/26/2013  05:41:00     -122.652      -33.967       -2.369       44.486       32.676       18.300     1978.995     1067.740      334.881        0.979        0.169      127.268       19.075        0.022      339.945       13.628      861.909
08/26/2013  05:42:00     -115.148      -42.481       -6.188       23.952       26.006       18.515      573.714      676.297      342.795        0.835        0.080      122.735       14.581        0.014      339.933       13.607      861.923
08/26/2013  05:43:00      -85.919      -46.453       -0.020       30.654       26.547       14.782      939.696      704.749      218.509        0.570        0.093       97.673        4.679        0.002      339.969       13.666      861.942
08/26/2013  05:44:00     -113.732      -69.307       -3.056       26.347       20.574       16.844      694.180      423.283      283.713        0.957        0.070      133.186       13.304        0.010      340.038       13.783      861.958
08/26/2013  05:45:00      -69.850      -42.193       -3.623       23.762       20.484       14.441      564.648      419.593      208.540        0.393        0.060       81.604       13.252        0.026      340.064       13.825      861.966
08/26/2013  05:46:00     -112.777      -18.254      -13.085       17.562       16.022       12.656      308.420      256.703      160.182        0.697        0.036      114.245        8.485        0.006      339.997       13.714      861.959
08/26/2013  05:47:00     -142.026      -23.561      -11.763       28.751       21.571       20.107      826.613      465.324      404.302        1.128        0.085      143.967       18.699        0.017      339.977       13.680      861.959
08/26/2013  05:48:00     -138.260      -50.939        3.109       56.330       36.417       20.479     3173.077     1326.172      419.400        1.332        0.246      147.345       25.156        0.029      339.883       13.522      861.971
08/26/2013  05:49:00      -97.289      -73.856        7.849       49.584       44.609       27.016     2458.616     1989.970      729.861        1.008        0.259      122.147       27.043        0.049      339.950       13.636      861.991
08/26/2013  05:50:00     -100.928      -59.079       -1.404       64.032       37.417       25.849     4100.152     1400.023      668.180        0.992        0.308      116.948       32.583        0.078      339.928       13.598      862.004
08/26/2013  05:51:00      -97.092      -33.041       -7.522       19.433       21.785       15.624      377.646      474.567      244.098        0.584        0.055      102.560       11.337        0.012      339.852       13.468      862.014
08/26/2013  05:52:00     -105.567      -36.337       -3.214       24.736       17.061       12.194      611.887      291.086      148.704        0.676        0.053      111.646        5.995        0.003      339.855       13.473      862.021
08/26/2013  05:53:00      -84.461      -34.335       -7.609       34.853       22.826       15.118     1214.698      521.044      228.543        0.517        0.098       91.174       11.362        0.016      339.857       13.478      862.024
08/26/2013  05:54:00      -57.368      -38.005        2.225       36.491       23.846       16.202     1331.612      568.650      262.513        0.345        0.108       68.814       19.618        0.081      339.821       13.416      862.030
08/26/2013  05:55:00      -65.443      -69.942        0.305       41.113       39.890       20.768     1690.265     1591.215      431.290        0.644        0.186       95.784       17.701        0.034      339.830       13.433      862.056
08/26/2013  05:56:00     -132.801      -88.724       -3.318       31.164       30.045       25.287      971.222      902.697      639.421        1.402        0.126      159.712       16.745        0.011      339.893       13.539      862.057
08/26/2013  05:57:00     -130.805      -69.848       -1.383       44.991       32.121       26.602     2024.209     1031.755      707.674        1.288        0.188      148.285       19.125        0.017      339.854       13.473      862.050
08/26/2013  05:58:00     -103.257      -75.383        0.394       50.292       35.528       25.151     2529.266     1262.244      632.555        1.038        0.221      127.846       22.283        0.030      339.801       13.383      862.059
08/26/2013  05:59:00      -75.061      -65.355        4.197       53.689       42.989       23.487     2882.556     1848.077      551.636        0.760        0.264       99.526       25.256        0.064      339.837       13.443      862.060
08/26/2013  06:00:00      -98.159      -87.191        3.578       44.621       39.133       27.023     1991.039     1531.408      730.245        1.075        0.213      131.291       25.189        0.037      339.866       13.492      862.068
08/26/2013  06:01:00      -80.681      -96.123        1.459       51.341       42.206       25.714     2635.848     1781.354      661.209        1.041        0.254      125.495       25.880        0.043      339.824       13.423      862.078
08/26/2013  06:02:00      -98.509      -55.351        0.872       38.688       35.031       25.012     1496.755     1227.202      625.619        0.806        0.167      112.994       24.868        0.048      339.786       13.359      862.075
08/26/2013  06:03:00     -102.356      -73.461        2.829       58.819       35.822       30.813     3459.635     1283.218      949.461        1.079        0.285      125.989       23.991        0.036      339.802       13.385      862.071
08/26/2013  06:04:00     -106.683      -79.888       -3.212       49.159       37.381       26.475     2416.608     1397.356      700.941        1.114        0.226      133.279       19.399        0.021      339.776       13.341      862.073
08/26/2013  06:05:00      -96.531      -93.385        0.853       52.040       39.691       23.569     2708.112     1575.363      555.485        1.144        0.242      134.310       25.078        0.035      339.793       13.370      862.085
08/26/2013  06:06:00     -102.123      -88.941       -0.887       43.553       41.802       28.017     1896.889     1747.372      784.926        1.138        0.221      135.423       20.512        0.023      339.726       13.256      862.087
08/26/2013  06:07:00     -138.783      -68.270       -1.515       49.862       42.099       26.142     2486.230     1772.352      683.389        1.443        0.247      154.666       17.725        0.013      339.818       13.413      862.080
08/26/2013  06:08:00     -117.082      -78.904        2.053       49.069       31.464       30.012     2407.778      990.002      900.728        1.212        0.215      141.188       24.182        0.029      339.825       13.425      862.067
08/26/2013  06:09:00     -105.034      -74.037       -1.398       42.819       37.938       26.488     1833.439     1439.326      701.639        1.024        0.199      128.505       21.949        0.029      339.825       13.425      862.084
08/26/2013  06:10:00      -90.991      -83.721        5.480       60.083       38.375       28.954     3609.916     1472.652      838.330        1.062        0.296      123.647       32.137        0.068      339.785       13.355      862.109
08/26/2013  06:11:00      -98.951      -84.598        0.631       61.434       49.336       32.576     3774.086     2433.992     1061.200        1.211        0.363      130.185       31.800        0.060      339.803       13.387      862.111
08/26/2013  06:12:00     -108.848      -62.408        1.790       49.261       35.434       21.717     2426.619     1255.544      471.630        0.995        0.208      125.470       23.677        0.036      339.820       13.416      862.105
08/26/2013  06:13:00      -97.774      -81.438        6.499       47.195       37.265       25.356     2227.321     1388.693      642.902        1.025        0.213      127.248       21.683        0.029      339.775       13.340      862.117
08/26/2013  06:14:00     -121.221      -98.874      -10.278       51.029       41.047       28.554     2603.934     1684.832      815.334        1.484        0.255      156.431       23.574        0.023      339.769       13.329      862.131
08/26/2013  06:15:00     -131.215      -60.150       -1.078       30.376       34.961       21.744      922.709     1222.296      472.818        1.173        0.131      144.345       16.800        0.014      339.830       13.431      862.145
08/26/2013  06:16:00     -109.860      -47.927        0.824       27.598       19.716       13.161      761.629      388.720      173.212        0.784        0.066      119.859       11.645        0.009      339.812       13.402      862.151
08/26/2013  06:17:00     -134.327      -61.543      -11.844       17.967       21.539       14.574      322.805      463.940      212.398        1.149        0.050      147.754       10.320        0.005      339.872       13.503      862.158
08/26/2013  06:18:00      -98.771      -59.968       -1.547       51.619       30.564       21.080     2664.501      934.174      444.377        0.870        0.202      115.550       25.515        0.049      339.800       13.382      862.175
08/26/2013  06:19:00     -109.066      -78.630       -2.580       43.337       34.123       21.584     1878.138     1164.352      465.869        1.080        0.175      134.455       16.220        0.015      339.886       13.526      862.199
08/26/2013  06:20:00     -101.404      -80.958        4.971       61.338       45.690       31.227     3762.291     2087.535      975.115        1.184        0.341      129.758       34.293        0.070      339.811       13.401      862.213
08/26/2013  06:21:00     -101.638     -105.756       -0.797       61.290       57.756       34.971     3756.448     3335.743     1223.005        1.491        0.416      146.678       33.662        0.053      339.743       13.286      862.234
08/26/2013  06:22:00     -103.721      -89.737       -3.187       70.956       49.531       34.956     5034.717     2453.352     1221.898        1.376        0.435      137.152       38.506        0.079      339.713       13.235      862.250
08/26/2013  06:23:00     -141.319      -67.068       -5.294       36.664       40.820       20.783     1344.277     1666.247      431.947        1.397        0.172      156.427       17.245        0.012      339.674       13.170      862.256
08/26/2013  06:24:00     -134.488      -60.829       -9.525       40.806       36.900       19.029     1665.124     1361.626      362.093        1.263        0.169      147.604       15.159        0.011      339.668       13.158      862.251
08/26/2013  06:25:00      -74.924       -8.795        0.460       45.659       38.552       23.470     2084.770     1486.265      550.834        0.491        0.206       75.438       23.532        0.097      339.675       13.171      862.264
08/26/2013  06:26:00     -101.269      -11.028      -12.292       32.112       34.425       24.002     1031.164     1185.064      576.080        0.666        0.140      101.868       18.917        0.034      339.685       13.186      862.272
08/26/2013  06:27:00      -84.796      -55.296       -3.775       39.988       29.481       20.785     1599.043      869.144      431.996        0.658        0.145      101.232       13.879        0.019      339.649       13.127      862.286
08/26/2013  06:28:00      -94.620      -44.083       -3.054       28.387       37.253       15.865      805.810     1387.762      251.683        0.667        0.122      104.385        7.131        0.005      339.589       13.027      862.306
08/26/2013  06:29:00      -84.451      -35.822       -2.593       36.661       26.143       17.695     1344.008      683.458      313.122        0.538        0.117       91.734       14.987        0.027      339.568       12.990      862.325
08/26/2013  06:30:00      -56.705      -70.260       -5.873       20.812       24.415       12.061      433.122      596.088      145.468        0.468        0.059       90.288       10.900        0.015      339.625       13.086      862.342
08/26/2013  06:31:00      -34.629      -40.104       -3.471       21.250       27.557       15.952      451.568      759.390      254.475        0.214        0.073       52.986       12.377        0.055      339.675       13.170      862.369
08/26/2013  06:32:00     -112.724      -46.522       -5.213       28.259       29.189       21.661      798.579      851.977      469.200        0.851        0.106      121.947       17.888        0.022      339.689       13.194      862.374
08/26/2013  06:33:00     -156.001      -41.898       -5.291       41.771       32.232       16.987     1744.808     1038.915      288.569        1.460        0.154      161.529       21.979        0.019      339.709       13.231      862.359
08/26/2013  06:34:00     -113.533      -39.628        3.748       37.514       30.465       18.054     1407.289      928.093      325.949        0.857        0.133      120.250       17.042        0.020      339.717       13.241      862.354
08/26/2013  06:35:00      -61.509      -38.771        2.864       26.100       23.949       15.546      681.205      573.534      241.667        0.340        0.075       72.709        9.355        0.017      339.727       13.258      862.360
08/26/2013  06:36:00      -10.351       -3.395       15.497       28.591       16.256       12.373      817.452      264.261      153.089        0.080        0.062       10.893       13.981        1.647      339.690       13.197      862.373
08/26/2013  06:37:00      -78.309      -32.811       -4.579       20.550       24.909       15.840      422.302      620.439      250.920        0.426        0.065       84.906       17.646        0.043      339.817       13.411      862.383
08/26/2013  06:38:00     -106.731      -58.917        0.358       32.899       30.393       16.657     1082.345      923.739      277.465        0.857        0.114      121.913        2.275        0.000      339.779       13.348      862.382
08/26/2013  06:39:00     -135.305      -64.937       -6.759       33.000       33.456       22.810     1088.973     1119.316      520.317        1.265        0.136      150.081       17.535        0.014      339.674       13.170      862.372
08/26/2013  06:40:00     -120.259      -23.406       -0.108       44.533       35.497       23.391     1983.149     1260.061      547.155        0.940        0.190      122.515       20.741        0.029      339.620       13.078      862.370
08/26/2013  06:41:00     -143.417      -71.230       -0.502       31.827       26.623       22.673     1012.957      708.759      514.059        1.394        0.112      160.131       19.238        0.014      339.694       13.203      862.384
08/26/2013  06:42:00     -130.040      -37.170       -1.747       37.666       28.177       19.490     1418.738      793.945      379.862        1.044        0.130      135.248       14.998        0.012      339.686       13.189      862.399
08/26/2013  06:43:00      -81.823      -31.115       -0.723       32.406       29.561       19.552     1050.157      873.848      382.299        0.498        0.115       87.539       16.943        0.037      339.712       13.234      862.405
08/26/2013  06:44:00      -77.618      -32.328       -3.870       38.236       23.682       13.744     1461.962      560.828      188.901        0.465        0.111       84.082       14.703        0.031      339.777       13.342      862.420
08/26/2013  06:45:00      -35.086      -35.200       10.375       35.732       23.333       19.438     1276.785      544.421      377.840        0.239        0.110       49.700       21.117        0.181      339.876       13.510      862.436
08/26/2013  06:46:00      -83.405      -54.202       -6.102       40.426       27.355       19.789     1634.259      748.286      391.595        0.635        0.139       99.470       14.145        0.020      339.775       13.340      862.431
08/26/2013  06:47:00      -91.646      -60.011      -12.132       31.557       34.708       23.342      995.840     1204.633      544.836        0.745        0.137      109.546       15.788        0.021      339.756       13.308      862.453
08/26/2013  06:48:00     -100.300      -80.958       -5.414       32.841       37.597       21.067     1078.517     1413.502      443.837        0.979        0.147      128.897       17.633        0.019      339.716       13.240      862.477
08/26/2013  06:49:00     -103.403      -73.280        0.638       33.651       35.680       27.192     1132.368     1273.065      739.421        0.960        0.157      126.737       24.795        0.038      339.691       13.199      862.487
08/26/2013  06:50:00      -95.135      -49.074       -3.900       30.394       20.624       15.082      923.802      425.357      227.460        0.653        0.079      107.046       10.507        0.010      339.767       13.327      862.490
08/26/2013  06:51:00      -78.797      -41.838       -3.681       33.628       22.524       11.218     1130.834      507.328      125.835        0.487        0.088       89.216       12.270        0.019      339.735       13.273      862.490
08/26/2013  06:52:00      -79.089      -28.562       -5.274       13.608       13.193        9.281      185.174      174.065       86.136        0.377        0.022       84.088        4.807        0.003      339.775       13.341      862.497
08/26/2013  06:53:00      -71.236      -29.023       -7.057       25.857       14.178       11.762      668.606      201.008      138.345        0.349        0.050       76.922        7.637        0.010      339.805       13.393      862.498
08/26/2013  06:54:00      -71.553      -49.313       -8.159       24.845       22.309       16.035      617.282      497.701      257.113        0.449        0.069       86.900        9.331        0.012      339.850       13.466      862.504
08/26/2013  06:55:00     -104.398      -50.048       -2.772       31.816       26.112       22.353     1012.254      681.848      499.648        0.780        0.110      115.775       18.681        0.026      339.732       13.268      862.515
08/26/2013  06:56:00     -127.655      -45.883       -7.196       26.691       22.968       15.147      712.431      527.523      229.436        0.996        0.073      135.650       16.370        0.015      339.727       13.259      862.531
08/26/2013  06:57:00     -143.492      -47.223       -7.537       25.008       25.336       20.168      625.404      641.913      406.733        1.228        0.084      151.063       11.866        0.006      339.817       13.410      862.538
08/26/2013  06:58:00     -135.060      -52.941      -14.834       32.505       27.444       15.241     1056.572      753.155      232.280        1.165        0.102      145.065       13.468        0.009      339.832       13.436      862.543
08/26/2013  06:59:00     -109.753      -47.127        0.096       39.604       31.750       20.593     1568.439     1008.083      424.079        0.863        0.150      119.443       21.191        0.031      339.898       13.548      862.542
08/26/2013  07:00:00      -72.604      -20.348       -0.361       24.796       22.699       13.908      614.850      515.245      193.423        0.350        0.066       75.402       10.026        0.018      339.911       13.568      862.549
08/26/2013  07:01:00      -75.115       -2.536        2.811       30.253       22.198       20.342      915.271      492.747      413.789        0.374        0.091       75.157       20.322        0.073      339.912       13.571      862.558
08/26/2013  07:02:00      -63.844       -4.956       -1.343       21.985       16.366       12.699      483.348      267.862      161.269        0.251        0.046       64.036       12.533        0.038      339.960       13.651      862.548
08/26/2013  07:03:00      -98.998        0.446      -13.317       10.301       14.159       10.713      106.108      200.474      114.774        0.520        0.021       98.999        6.598        0.004      340.111       13.906      862.545
08/26/2013  07:04:00     -101.726      -11.573       -8.496       19.508       17.051       14.378      380.579      290.752      206.721        0.572        0.044      102.382       13.553        0.018      340.079       13.851      862.554
08/26/2013  07:05:00     -103.501      -44.379       -3.849       13.432       19.350       10.976      180.428      374.419      120.477        0.669        0.034      112.614        7.520        0.004      340.103       13.893      862.561
08/26/2013  07:06:00      -97.679      -58.471       -5.976       22.943       14.418       12.543      526.404      207.867      157.333        0.694        0.045      113.842        3.058        0.001      340.070       13.837      862.559
08/26/2013  07:07:00     -112.057      -49.305       -6.493       14.576       14.050       10.350      212.449      197.411      107.128        0.777        0.026      122.424        5.288        0.002      340.055       13.811      862.550
08/26/2013  07:08:00     -123.633      -45.696       -6.976       15.754       16.716        9.083      248.198      279.423       82.508        0.902        0.031      131.807        7.300        0.003      340.067       13.832      862.531
08/26/2013  07:09:00     -107.678       -8.937       -3.610       37.105       29.934       21.343     1376.777      896.044      455.511        0.721        0.136      108.048       21.915        0.041      340.119       13.920      862.531
08/26/2013  07:10:00     -128.573        1.986      -13.698       29.860       16.268       15.777      891.604      264.642      248.916        0.906        0.070      128.589       15.200        0.014      340.216       14.082      862.551
08/26/2013  07:11:00      -94.352      -36.943       -2.667       50.081       26.683       20.916     2508.150      712.004      437.497        0.697        0.183      101.327       22.291        0.048      340.250       14.141      862.565
08/26/2013  07:12:00     -102.244      -14.539        1.327       47.300       30.173       19.933     2237.260      910.420      397.309        0.711        0.177      103.273       22.208        0.046      340.308       14.239      862.561
08/26/2013  07:13:00     -106.336      -26.839        4.364       52.457       40.443       23.594     2751.774     1635.666      556.690        0.849        0.247      109.671       28.233        0.066      340.311       14.243      862.537
08/26/2013  07:14:00     -112.565      -22.646       -9.034       34.841       34.444       20.027     1213.926     1186.356      401.088        0.803        0.140      114.820       18.187        0.025      340.342       14.297      862.545
08/26/2013  07:15:00      -98.270      -42.508        5.748       56.932       34.701       23.616     3241.223     1204.140      557.714        0.825        0.250      107.070       28.514        0.071      340.356       14.321      862.558
08/26/2013  07:16:00      -70.925      -54.382      -12.110       24.592       35.748       18.159      604.744     1277.933      329.736        0.517        0.111       89.374       12.453        0.019      340.466       14.506      862.573
08/26/2013  07:17:00      -91.962      -68.989       -8.030       41.963       26.945       19.961     1760.885      726.030      398.460        0.808        0.144      114.963       10.336        0.008      340.393       14.383      862.600
08/26/2013  07:18:00     -136.645      -97.497       -2.067       61.016       42.511       24.662     3722.954     1807.146      608.219        1.716        0.307      167.861       24.678        0.022      340.348       14.305      862.597
08/26/2013  07:19:00     -148.002      -95.957       -9.779       47.036       40.967       30.157     2212.376     1678.335      909.422        1.800        0.240      176.387       28.676        0.026      340.365       14.334      862.602
08/26/2013  07:20:00     -156.908      -67.561       -5.643       44.024       34.739       25.525     1938.111     1206.766      651.525        1.651        0.190      170.835       22.110        0.017      340.432       14.448      862.605
08/26/2013  07:21:00     -162.591      -48.510       -4.322       39.599       33.535       24.945     1568.103     1124.583      622.234        1.606        0.166      169.674       19.840        0.014      340.478       14.525      862.624
08/26/2013  07:22:00     -135.004      -41.076        2.409       37.352       35.802       19.001     1395.188     1281.794      361.047        1.148        0.152      141.114       14.596        0.011      340.482       14.534      862.637
08/26/2013  07:23:00     -116.891      -23.965      -10.369       32.185       27.906       19.536     1035.877      778.718      381.671        0.827        0.110      119.323       16.237        0.019      340.505       14.573      862.639
08/26/2013  07:24:00     -110.867      -27.217       -9.014       38.075       27.898       23.995     1449.718      778.287      575.746        0.796        0.140      114.159       21.165        0.034      340.527       14.611      862.635
08/26/2013  07:25:00      -82.343      -18.992        4.702       44.927       33.283       18.125     2018.456     1107.785      328.500        0.531        0.173       84.505       23.005        0.074      340.591       14.717      862.647
08/26/2013  07:26:00      -76.568      -18.929       -0.042       39.303       31.877       17.924     1544.690     1016.139      321.270        0.455        0.144       78.874       19.245        0.060      340.647       14.812      862.666
08/26/2013  07:27:00     -101.015      -52.394       -2.777       36.217       18.175       13.611     1311.669      330.341      185.255        0.739        0.091      113.794        8.512        0.006      340.761       15.006      862.674
08/26/2013  07:28:00      -34.398      -31.645        7.992       37.942       24.566       18.801     1439.569      603.487      353.469        0.232        0.120       46.740       19.476        0.174      340.821       15.107      862.684
08/26/2013  07:29:00      -42.752      -45.776        2.857       32.519       30.266       16.428     1057.480      916.047      269.872        0.309        0.112       62.635       16.464        0.069      340.773       15.025      862.695
08/26/2013  07:30:00       -1.731      -16.179        3.963       27.803       31.370       16.003      773.011      984.046      256.091        0.115        0.101       16.272        4.211        0.067      340.772       15.024      862.712
08/26/2013  07:31:00       -1.166      -28.806       12.403       12.207       31.672       14.106      149.013     1003.120      198.969        0.117        0.068       28.830       11.440        0.157      340.760       15.003      862.727
08/26/2013  07:32:00       -5.917      -11.939        6.247       11.743       19.072       14.749      137.908      363.747      217.532        0.047        0.036       13.325        7.447        0.312      340.540       14.631      862.724
08/26/2013  07:33:00      -53.416      -29.462        3.512       43.801       24.019       17.085     1918.496      576.893      291.912        0.326        0.139       61.002       18.652        0.093      340.557       14.660      862.711
08/26/2013  07:34:00      -70.822      -26.274        1.082       15.765       19.281       11.470      248.545      371.738      131.564        0.323        0.038       75.539        8.901        0.014      340.585       14.707      862.700
08/26/2013  07:35:00      -40.707      -38.567       -5.002       26.131       16.718       10.617      682.816      279.498      112.729        0.212        0.054       56.075        7.968        0.020      340.635       14.793      862.703
08/26/2013  07:36:00      -64.963      -37.950        0.805       29.932       16.282       17.408      895.911      265.088      303.023        0.356        0.073       75.235       17.846        0.056      340.717       14.930      862.701
08/26/2013  07:37:00      -50.290      -33.958        5.189       30.402       21.914       15.107      924.261      480.239      228.229        0.267        0.082       60.682       16.207        0.071      340.762       15.006      862.717
08/26/2013  07:38:00      -39.140      -34.333       -0.006       38.027       23.773       13.753     1446.072      565.151      189.142        0.246        0.110       52.064       14.076        0.073      340.781       15.039      862.733
08/26/2013  07:39:00     -112.122      -75.654       -5.668       36.285       28.242       18.521     1316.599      797.596      343.042        1.039        0.123      135.258       11.838        0.008      340.593       14.722      862.736
08/26/2013  07:40:00      -95.153      -26.372       -2.795       28.662       34.673       13.419      821.511     1202.194      180.057        0.598        0.110       98.740       12.042        0.015      340.596       14.726      862.727
08/26/2013  07:41:00      -65.025      -24.851       -6.224       15.002       13.870       14.046      225.064      192.380      197.280        0.275        0.031       69.612        8.465        0.015      340.653       14.823      862.709
08/26/2013  07:42:00       -7.031       -2.376       10.801       20.805       13.561       12.464      432.862      183.911      155.341        0.047        0.039        7.422       12.582        2.874      340.941       15.309      862.717
08/26/2013  07:43:00       17.376       15.761       19.790       16.172       17.902       10.967      261.547      320.490      120.281        0.082        0.035       23.460       10.647        0.206      340.964       15.349      862.737
08/26/2013  07:44:00       72.832       47.265       19.010       16.757       19.580       20.888      280.806      383.388      436.307        0.450        0.055       86.824       10.977        0.016      340.740       14.970      862.747
08/26/2013  07:45:00       62.690       36.992       -0.259       32.085       23.703       15.539     1029.442      561.846      241.462        0.357        0.092       72.790        5.031        0.005      340.776       15.031      862.747
08/26/2013  07:46:00       29.627        9.645       11.445       16.075       24.221       20.015      258.395      586.645      400.620        0.117        0.062       31.157       12.564        0.163      340.927       15.286      862.752
08/26/2013  07:47:00       17.777       14.852        9.817        9.381       18.999       12.364       88.006      360.976      152.879        0.062        0.030       23.164        9.098        0.154      340.870       15.190      862.735
08/26/2013  07:48:00       11.996       20.544        9.211       12.091       17.520       10.416      146.204      306.965      108.486        0.061        0.028       23.790        9.570        0.162      340.922       15.278      862.722
08/26/2013  07:49:00       -2.211       -9.774       -2.102       37.712       27.239       23.891     1422.215      741.979      570.793        0.142        0.137       10.021       16.734        2.788      340.668       14.848      862.725
08/26/2013  07:50:00        7.368      -20.508       -6.707       21.064       22.810       20.218      443.684      520.276      408.770        0.095        0.069       21.792       16.782        0.593      340.671       14.852      862.728
08/26/2013  07:51:00        2.813       28.627       10.479       11.867       14.443       16.705      140.837      208.587      279.070        0.078        0.031       28.765        9.502        0.109      340.970       15.359      862.724
08/26/2013  07:52:00        4.165       27.041        7.483       17.376       20.953       13.690      301.913      439.014      187.424        0.087        0.046       27.360       12.775        0.218      340.924       15.280      862.720
08/26/2013  07:53:00        3.445       15.961        1.575       12.308       19.028       13.090      151.484      362.054      171.342        0.048        0.034       16.329       13.012        0.635      341.053       15.499      862.698
08/26/2013  07:54:00      -28.477      -18.928        0.026       16.312       24.293        8.854      266.075      590.153       78.396        0.105        0.047       34.193        5.489        0.026      340.937       15.304      862.688
08/26/2013  07:55:00      -16.994      -37.158       -2.805       18.268       23.279       16.341      333.729      541.930      267.021        0.141        0.057       40.859       13.141        0.103      340.935       15.298      862.695
08/26/2013  07:56:00       -9.532      -16.937        1.632       11.450       14.125       13.388      131.094      199.527      179.230        0.045        0.025       19.436        8.392        0.186      341.077       15.540      862.717
08/26/2013  07:57:00       -5.374      -49.442        8.867       18.222       31.663       14.914      332.047     1002.573      222.441        0.205        0.078       49.733        9.224        0.034      341.159       15.677      862.730
08/26/2013  07:58:00      -16.258        4.194        8.021       11.891        9.805       11.194      141.399       96.139      125.300        0.035        0.018       16.791        8.976        0.286      341.242       15.818      862.734
08/26/2013  07:59:00       -1.226        2.277       13.149       25.304        6.684       11.853      640.304       44.681      140.492        0.050        0.041        2.586       10.244       15.694      341.375       16.044      862.751
08/26/2013  08:00:00       39.430      -25.745        4.667       36.137       28.894       21.902     1305.873      834.891      479.681        0.243        0.131       47.091       21.767        0.214      340.839       15.136      862.771
08/26/2013  08:01:00       15.279       15.089        5.224       21.677       17.147       18.076      469.899      294.032      326.746        0.079        0.055       21.474       14.811        0.476      341.101       15.581      862.780
08/26/2013  08:02:00       36.810       27.041        3.328       12.921       12.778       22.645      166.948      163.287      512.802        0.147        0.042       45.675       13.174        0.083      341.091       15.562      862.772
08/26/2013  08:03:00       21.174       16.663        6.378       13.404       17.238       13.660      179.661      297.149      186.599        0.071        0.033       26.944       10.989        0.166      341.256       15.843      862.759
08/26/2013  08:04:00       21.376       16.035       14.430       14.792       17.978       18.973      218.802      323.212      359.978        0.091        0.045       26.722       14.724        0.304      341.360       16.018      862.755
08/26/2013  08:05:00       -7.967       18.289       16.013       15.740       14.361       15.948      247.748      206.234      254.351        0.068        0.035       19.949       12.468        0.391      341.515       16.281      862.758
08/26/2013  08:06:00       13.114       29.437        2.823       18.128       16.871       14.642      328.634      284.639      214.399        0.094        0.041       32.226       10.270        0.102      341.394       16.075      862.766
08/26/2013  08:07:00       43.113       38.030       19.961       20.888       18.982       27.086      436.294      360.309      733.653        0.262        0.077       57.489       11.104        0.037      341.267       15.862      862.789
08/26/2013  08:08:00       88.994       64.541       50.953       48.763       28.145       25.010     2377.793      792.140      625.489        0.924        0.190      109.934       14.905        0.018      341.309       15.933      862.805
08/26/2013  08:09:00       90.403       80.001       54.988       38.923       30.072       23.823     1515.033      904.297      567.559        1.029        0.149      120.718        7.204        0.004      341.243       15.820      862.804
08/26/2013  08:10:00       31.964       68.240       52.708       41.897       40.519       27.094     1755.347     1641.788      734.071        0.629        0.207       75.355       23.291        0.096      341.309       15.932      862.811
08/26/2013  08:11:00       71.125       72.782       66.262       35.408       30.378       29.705     1253.706      922.847      882.374        0.890        0.153      101.764       20.520        0.041      341.217       15.776      862.815
08/26/2013  08:12:00       43.448       45.100       43.931       31.392       33.037       22.738      985.427     1091.467      517.016        0.422        0.130       62.624       12.501        0.040      341.298       15.915      862.820
08/26/2013  08:13:00       84.614       62.544       30.980       48.479       41.801       21.233     2350.170     1747.323      450.829        0.829        0.227      105.220       15.656        0.022      341.275       15.875      862.803
08/26/2013  08:14:00      103.112       82.914       45.113       22.299       26.366       22.324      497.258      695.148      498.340        1.062        0.085      132.314       10.457        0.006      341.222       15.786      862.784
08/26/2013  08:15:00       54.343       31.185        0.800       27.595       20.961       26.498      761.482      439.380      702.138        0.291        0.095       62.655        6.575        0.011      341.327       15.964      862.768
08/26/2013  08:16:00       67.963       37.456        7.106       43.863       34.630       24.897     1923.969     1199.212      619.877        0.491        0.187       77.601       12.665        0.027      341.475       16.213      862.757
08/26/2013  08:17:00       20.328       -1.527       23.834       23.618       30.109       26.048      557.825      906.531      678.513        0.156        0.107       20.385        8.390        0.169      341.485       16.231      862.762
08/26/2013  08:18:00       19.177      -39.632       -0.102       36.111       29.126       25.867     1304.016      848.310      669.086        0.238        0.141       44.028       23.077        0.275      341.225       15.790      862.787
08/26/2013  08:19:00       29.247      -45.009       -4.050       24.868       24.178       20.945      618.405      584.592      438.678        0.227        0.082       53.677       18.083        0.113      341.234       15.805      862.788
08/26/2013  08:20:00       60.895      -78.183       -6.205       43.944       29.720       26.642     1931.040      883.289      709.774        0.669        0.176       99.100       19.223        0.038      341.173       15.701      862.782
08/26/2013  08:21:00       37.936      -23.490        8.794       43.708       48.529       36.424     1910.389     2355.101     1326.679        0.383        0.280       44.620       42.730        0.917      341.657       16.522      862.795
08/26/2013  08:22:00        4.856       -2.827       38.481       35.364       39.523       28.737     1250.602     1562.039      825.838        0.257        0.182        5.619       22.179       15.580      341.777       16.726      862.805
08/26/2013  08:23:00       14.590       17.231       44.406       30.042       33.973       21.115      902.527     1154.142      445.846        0.249        0.125       22.578        7.926        0.123      341.906       16.945      862.804
08/26/2013  08:24:00       24.623       13.452       34.255       46.065       32.054       22.949     2121.973     1027.443      526.647        0.282        0.184       28.058       24.486        0.762      341.704       16.602      862.791
08/26/2013  08:25:00        3.228      -23.757       30.149       21.705       42.885       24.345      471.117     1839.112      592.674        0.219        0.145       23.975       25.911        1.168      341.879       16.898      862.791
08/26/2013  08:26:00       36.355      -31.513        4.057       33.844       42.726       34.119     1145.448     1825.501     1164.097        0.323        0.207       48.112       32.876        0.467      341.612       16.447      862.800
08/26/2013  08:27:00       20.062       24.450       26.965       33.816       23.300       18.152     1143.523      542.872      329.512        0.187        0.101       31.627        6.645        0.044      341.987       17.081      862.800
08/26/2013  08:28:00      101.201       74.190       46.423       59.900       31.622       29.661     3587.998      999.950      879.804        1.168        0.273      125.482       14.559        0.013      341.774       16.719      862.789
08/26/2013  08:29:00      105.018       66.763       29.076       47.376       27.646       35.323     2244.528      764.280     1247.705        1.029        0.213      124.443       15.412        0.015      341.753       16.685      862.785
08/26/2013  08:30:00       59.190       41.143       40.823       34.669       27.569       33.825     1201.964      760.036     1144.113        0.498        0.155       72.085       14.231        0.039      341.692       16.580      862.798
08/26/2013  08:31:00       33.466       44.565       40.615       35.601       32.798       21.438     1267.399     1075.720      459.598        0.378        0.140       55.732       12.500        0.050      341.897       16.929      862.810
08/26/2013  08:32:00       35.783       26.130       29.479       35.330       53.804       25.387     1248.220     2894.892      644.476        0.381        0.239       44.308       28.592        0.416      341.654       16.517      862.812
08/26/2013  08:33:00       25.900       38.748       36.712       26.020       40.006       26.566      677.025     1600.449      705.730        0.325        0.149       46.607       24.028        0.266      341.884       16.907      862.819
08/26/2013  08:34:00        2.796        6.585       18.384       27.042       34.952       29.132      731.283     1221.669      848.649        0.159        0.140        7.154       15.630        4.773      341.910       16.951      862.813
08/26/2013  08:35:00       22.254       11.227       32.467       22.080       34.998       19.786      487.513     1224.879      391.481        0.189        0.105       24.926       11.001        0.195      341.970       17.052      862.816
08/26/2013  08:36:00       -6.043        3.642      -11.970       26.847       27.210       16.551      720.769      740.371      273.933        0.096        0.087        7.056       10.842        2.361      341.763       16.702      862.814
08/26/2013  08:37:00        5.428      -15.215       -3.704       30.745       24.571       16.528      945.280      603.746      273.178        0.105        0.091       16.155        9.998        0.383      341.754       16.686      862.801
08/26/2013  08:38:00       44.299      -29.662        0.767       31.632       22.067       19.464     1000.612      486.942      378.837        0.235        0.093       53.313        6.073        0.013      341.540       16.323      862.795
08/26/2013  08:39:00       10.580      -14.630      -11.509       15.480       28.837       19.424      239.623      831.549      377.282        0.095        0.072       18.055        7.775        0.185      341.595       16.417      862.801
08/26/2013  08:40:00      -10.453       -2.130      -11.189       19.058       21.584       18.128      363.198      465.864      328.614        0.070        0.058       10.668        9.219        0.747      341.981       17.073      862.808
08/26/2013  08:41:00      -29.706        1.269       -7.338        9.831        5.491        6.886       96.645       30.152       47.422        0.056        0.009       29.733        5.375        0.033      341.915       16.959      862.834
08/26/2013  08:42:00      -49.014      -18.698       -2.184       13.099       16.326        8.460      171.574      266.549       71.569        0.163        0.025       52.459        4.960        0.009      341.895       16.925      862.849
08/26/2013  08:43:00      -31.021        1.128        5.676       11.305       16.014        9.046      127.798      256.452       81.824        0.073        0.023       31.041        3.271        0.011      342.029       17.151      862.851
08/26/2013  08:44:00      -28.110       13.661        1.947       11.717       11.721       10.651      137.298      137.387      113.443        0.068        0.019       31.254        8.387        0.072      342.080       17.239      862.847
08/26/2013  08:45:00       17.965       -0.683       35.016       23.335       20.070       18.745      544.511      402.787      351.382        0.142        0.065       17.978       12.415        0.477      342.755       18.387      862.836
08/26/2013  08:46:00       -0.177       44.647       18.661       14.490       36.763       24.327      209.968     1351.511      591.790        0.225        0.108       44.647       23.383        0.274      342.497       17.949      862.804
08/26/2013  08:47:00       -4.375       15.845       11.303       11.406       23.328       17.598      130.094      544.184      309.687        0.069        0.049       16.438       17.415        1.122      342.690       18.277      862.782
08/26/2013  08:48:00        0.474       11.062        8.219       12.096       15.631       18.297      146.323      244.337      334.766        0.046        0.036       11.072        7.994        0.521      342.606       18.134      862.769
08/26/2013  08:49:00       -3.089       -1.169       24.561       11.491       16.743       14.390      132.033      280.314      207.084        0.062        0.031        3.303       11.536       12.201      342.871       18.585      862.769
08/26/2013  08:50:00       31.701      -50.498        5.902       35.085       37.713       29.405     1230.976     1422.277      864.628        0.355        0.176       59.624       24.687        0.171      342.100       17.274      862.772
08/26/2013  08:51:00       21.006      -21.833       24.534       28.585       41.092       31.568      817.100     1688.585      996.548        0.251        0.175       30.297       21.818        0.519      342.507       17.965      862.767
08/26/2013  08:52:00       32.147      -12.442       24.360       32.630       37.000       27.728     1064.740     1368.980      768.826        0.249        0.160       34.471       23.982        0.484      342.491       17.938      862.755
08/26/2013  08:53:00       12.525       17.372       34.716       23.407       26.374       26.949      547.871      695.600      726.260        0.182        0.098       21.417       19.584        0.836      342.748       18.377      862.745
08/26/2013  08:54:00       13.956        7.657       23.382       33.949       42.734       18.438     1152.520     1826.157      339.943        0.206        0.166       15.919       17.755        1.244      342.447       17.864      862.726
08/26/2013  08:55:00        7.718      -15.133       11.717       12.981       14.425       22.487      168.501      208.068      505.680        0.065        0.044       16.987       12.119        0.509      342.599       18.122      862.734
08/26/2013  08:56:00        5.622      -24.978       -9.150       20.358       19.198       16.461      414.446      368.566      270.968        0.090        0.053       25.603        5.665        0.049      342.385       17.758      862.743
08/26/2013  08:57:00        3.013      -18.989       -0.361       17.057       23.371       23.747      290.952      546.188      563.900        0.089        0.070       19.226       20.055        1.088      342.760       18.396      862.757
08/26/2013  08:58:00       24.892        4.425       37.421       36.106       40.382       26.902     1303.629     1630.697      723.728        0.285        0.183       25.283       28.607        1.280      342.918       18.666      862.758
08/26/2013  08:59:00       31.709       -7.887       26.176       36.963       32.235       24.647     1366.278     1039.105      607.464        0.238        0.151       32.675       24.710        0.572      342.551       18.040      862.761
08/26/2013  09:00:00        1.595       -8.229       17.558       13.043       20.067       13.592      170.115      402.665      184.734        0.057        0.038        8.382        9.652        1.326      342.850       18.548      862.745
08/26/2013  09:01:00       36.633      -45.222        3.643       34.600       27.675       31.727     1197.165      765.887     1006.577        0.318        0.148       58.199       15.040        0.067      342.423       17.822      862.727
08/26/2013  09:02:00       13.086      -21.311       25.531       27.463       46.167       26.868      754.212     2131.421      721.865        0.244        0.180       25.007       18.419        0.543      342.845       18.541      862.721
08/26/2013  09:03:00       13.806       -3.019       25.995       24.486       27.829       15.762      599.547      774.463      248.455        0.125        0.081       14.132       11.109        0.618      343.208       19.157      862.720
08/26/2013  09:04:00       22.960       17.620       20.344       19.355       11.292       19.937      374.610      127.513      397.478        0.108        0.045       28.942        9.016        0.097      342.857       18.561      862.704
08/26/2013  09:05:00       13.997       22.950        3.578       11.353       10.343       13.808      128.884      106.986      190.659        0.058        0.021       26.881        6.130        0.052      342.822       18.501      862.693
08/26/2013  09:06:00       16.540       32.807        7.554       24.808       20.599       19.252      615.447      424.332      370.626        0.141        0.071       36.741       16.832        0.210      342.874       18.589      862.691
08/26/2013  09:07:00       71.414       50.233       48.173       50.968       28.959       25.521     2597.688      838.627      651.336        0.701        0.204       87.311       16.466        0.036      342.882       18.604      862.680
08/26/2013  09:08:00       60.610       43.133       11.908       62.625       40.408       29.646     3921.868     1632.783      878.871        0.605        0.322       74.391       12.593        0.029      342.993       18.791      862.670
08/26/2013  09:09:00       50.773       33.582       11.069       34.707       28.486       24.743     1204.543      811.456      612.212        0.323        0.131       60.874       16.315        0.072      343.148       19.056      862.674
08/26/2013  09:10:00       53.244       56.789       29.862       44.976       33.862       25.997     2022.842     1146.662      675.833        0.540        0.192       77.845       23.410        0.090      343.164       19.084      862.679
08/26/2013  09:11:00       89.361       62.600       28.814       33.555       20.864       25.079     1125.914      435.321      628.952        0.746        0.110      109.106       17.390        0.025      342.832       18.518      862.680
08/26/2013  09:12:00       46.615       51.064        1.278       25.212       30.699       24.517      635.635      942.400      601.092        0.348        0.109       69.141       17.412        0.063      342.801       18.465      862.666
08/26/2013  09:13:00       51.509       36.929       -5.276       15.170       17.464       11.935      230.129      305.003      142.452        0.236        0.034       63.380        9.490        0.022      342.988       18.784      862.663
08/26/2013  09:14:00       49.103       -0.011        1.765       24.172       42.587       28.554      584.294     1813.665      815.342        0.281        0.161       49.103       16.836        0.118      342.790       18.447      862.665
08/26/2013  09:15:00       43.368      -23.807       20.374       35.566       34.458       28.887     1264.921     1187.336      834.460        0.307        0.164       49.473       22.495        0.207      342.813       18.485      862.666
08/26/2013  09:16:00       37.411       19.348        6.089       37.665       31.708       26.759     1418.623     1005.394      716.066        0.247        0.157       42.118       24.505        0.339      343.086       18.950      862.659
08/26/2013  09:17:00       46.737       21.200       17.018       31.533       36.054       22.645      994.311     1299.900      512.782        0.286        0.140       51.320       10.250        0.040      343.225       19.186      862.647
08/26/2013  09:18:00       89.543       68.289       39.016       30.949       32.710       28.642      957.870     1069.967      820.370        0.853        0.142      112.612       13.047        0.013      343.091       18.958      862.630
08/26/2013  09:19:00       61.878       42.756       15.713       60.847       44.433       30.326     3702.358     1974.321      919.669        0.625        0.330       75.213       25.135        0.112      343.419       19.518      862.620
08/26/2013  09:20:00      -21.037       64.877       -8.811       17.771       35.493       18.321      315.816     1259.763      335.651        0.332        0.096       68.203       19.154        0.079      343.217       19.173      862.621
08/26/2013  09:21:00      -49.281       40.193      -14.445       20.299       22.018       18.911      412.063      484.790      357.621        0.275        0.063       63.593        8.773        0.019      343.052       18.892      862.618
08/26/2013  09:22:00      -49.314       12.586      -12.541       17.515       16.732       10.542      306.758      279.955      111.141        0.172        0.035       50.895        7.402        0.021      342.975       18.761      862.618
08/26/2013  09:23:00      -34.447       17.030      -16.100       14.051       12.992        6.036      197.436      168.783       36.435        0.107        0.020       38.427        3.043        0.006      343.020       18.837      862.624
08/26/2013  09:24:00      -24.588       -3.992       -5.945        9.623        6.864       12.940       92.595       47.119      167.445        0.048        0.015       24.910        6.024        0.058      343.172       19.098      862.625
08/26/2013  09:25:00       38.496      -33.569       25.024       34.966       33.635       36.928     1222.618     1131.346     1363.647        0.348        0.186       51.077       26.697        0.273      343.296       19.308      862.632
08/26/2013  09:26:00       50.518      -43.971        0.606       24.068       29.143       27.405      579.269      849.289      751.054        0.333        0.109       66.975       13.908        0.043      342.726       18.337      862.639
08/26/2013  09:27:00       19.157       -9.877       28.849       26.619       30.419       20.815      708.567      925.315      433.263        0.168        0.103       21.554       19.525        0.821      343.657       19.925      862.636
08/26/2013  09:28:00       67.142       37.600       28.168       61.395       50.044       21.171     3769.328     2504.373      448.202        0.672        0.336       76.953       26.705        0.120      343.511       19.675      862.615
08/26/2013  09:29:00      119.661       79.650       22.932       52.381       52.737       37.460     2743.739     2781.214     1403.227        1.406        0.346      143.746       35.467        0.061      343.433       19.541      862.585
08/26/2013  09:30:00       77.769       62.276       16.677       38.841       30.198       26.188     1508.589      911.913      685.798        0.665        0.155       99.631       16.044        0.026      343.450       19.570      862.569
08/26/2013  09:31:00       17.833       43.999       21.007       28.432       23.882       16.639      808.400      570.360      276.865        0.218        0.083       47.476       11.551        0.059      343.812       20.188      862.559
08/26/2013  09:32:00       12.614       57.037        9.754       23.708       49.500       29.852      562.068     2450.290      891.125        0.370        0.195       58.416       33.063        0.320      343.958       20.438      862.556
08/26/2013  09:33:00        1.505       26.866        9.637       17.842       32.277       20.264      318.327     1041.789      410.618        0.129        0.089       26.908       19.656        0.534      344.084       20.652      862.552
08/26/2013  09:34:00       68.994       53.931        8.115       23.554       31.013       26.989      554.797      961.798      728.428        0.499        0.112       87.571       16.636        0.036      343.668       19.941      862.548
08/26/2013  09:35:00       23.242        6.008       41.926       33.799       48.301       24.543     1142.349     2333.023      602.366        0.321        0.204       24.006       25.242        1.106      343.772       20.119      862.541
08/26/2013  09:36:00       37.050       53.753       53.006       36.677       42.505       25.948     1345.234     1806.640      673.310        0.545        0.191       65.284       12.116        0.034      343.740       20.065      862.541
08/26/2013  09:37:00       11.835       -5.251       33.856       20.913       25.794       17.986      437.374      665.309      323.503        0.137        0.071       12.947       15.568        1.446      343.928       20.386      862.545
08/26/2013  09:38:00       31.761      -37.846       25.132       48.486       45.688       35.526     2350.859     2087.388     1262.090        0.439        0.285       49.407       17.960        0.132      343.399       19.483      862.538
08/26/2013  09:39:00       39.992      -14.627       30.694       39.727       50.881       24.624     1578.254     2588.867      606.362        0.376        0.239       42.583       15.032        0.125      343.600       19.827      862.534
08/26/2013  09:40:00       53.498       65.784       60.207       54.616       66.088       52.526     2982.899     4367.597     2758.993        1.046        0.505       84.791       44.011        0.269      343.655       19.920      862.514
08/26/2013  09:41:00       43.216       69.655        8.684       35.159       21.106       28.612     1236.162      445.474      818.667        0.465        0.125       81.972       26.566        0.105      343.598       19.821      862.501
08/26/2013  09:42:00      -12.580       50.652        5.058       15.797       30.984       27.687      249.539      959.998      766.571        0.236        0.099       52.190       22.289        0.182      344.054       20.601      862.476
08/26/2013  09:43:00      -27.693       18.297       10.683       20.455       22.163       19.048      418.396      491.199      362.830        0.124        0.064       33.192       13.458        0.164      344.098       20.677      862.474
08/26/2013  09:44:00      -11.170      -14.077      -10.683       27.897        9.878        9.268      778.243       97.578       85.904        0.070        0.048       17.970        9.808        0.298      343.815       20.194      862.477
08/26/2013  09:45:00       26.963      -13.146       28.932       26.096       23.239       19.532      681.007      540.071      381.507        0.167        0.080       29.996       14.537        0.235      344.075       20.637      862.487
08/26/2013  09:46:00       14.075        7.972        9.494       28.403       32.278       26.218      806.748     1041.899      687.404        0.144        0.127       16.175       19.520        1.456      343.819       20.201      862.491
08/26/2013  09:47:00       49.281       16.464       21.859       36.389       46.762       29.136     1324.172     2186.646      848.894        0.377        0.218       51.958       28.203        0.295      343.809       20.182      862.481
08/26/2013  09:48:00       84.688       60.508       27.209       31.813       20.646       39.908     1012.050      426.260     1592.679        0.730        0.152      104.083       15.235        0.021      343.891       20.323      862.476
08/26/2013  09:49:00       22.129        3.384        4.533       21.358       30.266       24.975      456.156      916.002      623.768        0.126        0.100       22.387       20.957        0.876      344.223       20.889      862.489
08/26/2013  09:50:00       32.629       52.158       47.559       32.754       31.993       24.480     1072.848     1023.565      599.286        0.437        0.135       61.523       11.353        0.034      344.234       20.909      862.492
08/26/2013  09:51:00       14.812       25.338       26.781       24.665       30.627       33.281      608.350      938.027     1107.651        0.212        0.133       29.349       22.145        0.569      344.653       21.626      862.491
08/26/2013  09:52:00       19.520      -13.281       27.793       30.840       33.466       23.217      951.127     1119.944      539.034        0.197        0.131       23.609       16.153        0.468      344.141       20.751      862.484
08/26/2013  09:53:00        7.894      -49.619      -17.405       24.278       27.042       21.881      589.400      731.251      478.764        0.231        0.090       50.243       16.484        0.108      343.697       19.990      862.481
08/26/2013  09:54:00       35.332      -53.998      -11.045       34.174       30.864       20.461     1167.887      952.595      418.670        0.341        0.127       64.530       11.130        0.030      343.596       19.820      862.472
08/26/2013  09:55:00       -3.202        5.180       16.991       24.220       15.433       16.086      586.616      238.169      258.763        0.070        0.054        6.089       10.347        2.887      344.321       21.058      862.447
08/26/2013  09:56:00      -21.623        5.108        4.177       15.068       12.769       14.211      227.057      163.046      201.946        0.055        0.030       22.218       10.085        0.206      344.364       21.131      862.428
08/26/2013  09:57:00       12.573       31.986       25.351       27.583       33.155       21.406      760.842     1099.276      458.221        0.207        0.116       34.368       17.271        0.253      344.591       21.520      862.409
08/26/2013  09:58:00       14.730       41.156       10.812       19.285       32.311       22.070      371.918     1044.011      487.083        0.196        0.095       43.712       17.910        0.168      344.726       21.751      862.393
08/26/2013  09:59:00       26.968       18.745       19.069       21.979       20.043       21.352      483.094      401.716      455.918        0.139        0.067       32.843       11.463        0.122      344.661       21.638      862.407
08/26/2013  10:00:00        7.903       11.047        5.453       14.441       17.948       20.393      208.548      322.118      415.869        0.058        0.047       13.583       11.748        0.748      344.660       21.636      862.414
08/26/2013  10:01:00       15.737        2.479        6.518       25.019       28.946       25.793      625.941      837.853      665.286        0.121        0.106       15.931       14.401        0.817      344.376       21.151      862.408
08/26/2013  10:02:00        7.916       -0.702        0.975       18.564       17.673       24.764      344.631      312.325      613.277        0.067        0.064        7.947       10.908        1.884      344.687       21.683      862.402
08/26/2013  10:03:00       26.330       -1.422       14.835       38.190       25.172       30.025     1458.461      633.614      901.485        0.195        0.150       26.369       12.787        0.235      344.516       21.390      862.376
08/26/2013  10:04:00       16.912       22.756       21.278       22.410       21.959       32.518      502.194      482.219     1057.405        0.165        0.102       28.352       14.392        0.258      344.656       21.630      862.356
08/26/2013  10:05:00       62.323       17.772        7.431       36.865       33.384       26.263     1359.033     1114.474      689.745        0.371        0.158       64.808       12.611        0.038      344.100       20.680      862.354
08/26/2013  10:06:00       70.282       40.333        7.100       22.218       28.776       26.174      493.625      828.044      685.093        0.431        0.100       81.032       17.437        0.046      344.305       21.030      862.340
08/26/2013  10:07:00       56.908       43.798       22.330       25.691       32.585       32.813      660.022     1061.787     1076.704        0.423        0.140       71.811       21.486        0.090      344.765       21.816      862.335
08/26/2013  10:08:00       28.977       57.586        4.729       29.854       37.710       20.625      891.279     1422.053      425.376        0.346        0.137       64.466       13.873        0.046      344.712       21.724      862.324
08/26/2013  10:09:00       -6.720       34.563       25.607       19.582       37.494       26.359      383.453     1405.808      694.818        0.219        0.124       35.211       23.305        0.438      345.469       23.022      862.327
08/26/2013  10:10:00       -7.073       44.053        6.962       26.952       49.146       25.637      726.387     2415.288      657.265        0.292        0.190       44.617       30.260        0.460      345.236       22.623      862.328
08/26/2013  10:11:00       -4.193       30.909       25.674       19.161       32.401       24.959      367.146     1049.851      622.960        0.184        0.102       31.192       20.478        0.431      345.818       23.622      862.325
08/26/2013  10:12:00      -30.341       26.065        2.963       17.017       18.496       24.249      289.586      342.090      588.020        0.141        0.061       39.999       12.882        0.104      345.136       22.451      862.341
08/26/2013  10:13:00      -23.151        5.739       10.959       25.383       12.766       21.965      644.309      162.964      482.477        0.099        0.064       23.851       18.292        0.588      345.253       22.651      862.342
08/26/2013  10:14:00       47.759       36.795       18.573       28.335       22.248       24.635      802.850      494.961      606.875        0.294        0.095       60.289       11.457        0.036      344.842       21.949      862.342
08/26/2013  10:15:00        9.770       31.894       10.237       17.206       20.262       18.757      296.039      410.556      351.825        0.114        0.053       33.357       11.684        0.123      345.042       22.289      862.331
08/26/2013  10:16:00        3.651      -39.048       -2.639       17.797       28.057       20.634      316.743      787.171      425.742        0.154        0.076       39.218       16.195        0.171      344.786       21.852      862.314
08/26/2013  10:17:00      -17.692        5.007       -4.364       28.590       12.098        8.971      817.384      146.356       80.475        0.070        0.052       18.386        5.415        0.087      345.001       22.219      862.310
08/26/2013  10:18:00      -30.529        2.313        2.122       24.751       32.747       19.878      612.627     1072.343      395.151        0.151        0.104       30.616       18.985        0.385      345.250       22.647      862.306
08/26/2013  10:19:00        1.287        4.633       21.430       30.689       14.788       20.614      941.791      218.684      424.935        0.103        0.079        4.809       21.113       19.277      345.838       23.656      862.295
08/26/2013  10:20:00      -41.074       84.848        4.988       47.732       65.500       31.716     2278.358     4290.215     1005.882        0.824        0.379       94.267       36.468        0.150      345.311       22.751      862.297
08/26/2013  10:21:00      -52.938       62.801        5.779       33.609       47.491       37.066     1129.552     2255.388     1373.918        0.577        0.238       82.136       35.187        0.184      345.173       22.516      862.287
08/26/2013  10:22:00      -67.748       35.699       -3.898       29.125       21.971       23.322      848.238      482.715      543.934        0.388        0.094       76.578       12.202        0.025      344.961       22.151      862.286
08/26/2013  10:23:00      -41.839       27.486        3.986       40.751       24.557       24.209     1660.684      603.049      586.091        0.269        0.142       50.060       20.850        0.173      345.382       22.871      862.292
08/26/2013  10:24:00      -76.092       39.869       13.027       58.277       23.376       27.625     3396.157      546.458      763.146        0.613        0.235       85.904       30.022        0.122      345.248       22.644      862.275
08/26/2013  10:25:00     -149.738       48.887      -11.843       34.678       27.850       23.982     1202.544      775.632      575.120        1.375        0.128      157.516       13.252        0.007      344.812       21.895      862.263
08/26/2013  10:26:00      -66.274       45.043       -1.915       47.849       42.017       29.873     2289.573     1765.389      892.403        0.569        0.247       80.132       33.714        0.177      345.243       22.634      862.246
08/26/2013  10:27:00      -50.932       21.298        3.523       32.308       25.499       29.039     1043.825      650.209      843.262        0.280        0.127       55.206       22.006        0.159      345.164       22.500      862.223
08/26/2013  10:28:00       13.819       70.476        9.430       39.527       65.609       34.462     1562.359     4304.600     1187.604        0.615        0.353       71.818       34.331        0.229      345.511       23.093      862.205
08/26/2013  10:29:00       -0.395      167.356       -9.769       34.903       57.036       34.994     1218.211     3253.052     1224.612        1.690        0.285      167.357       34.299        0.042      345.308       22.745      862.189
08/26/2013  10:30:00       34.553       66.825        5.897       52.242       61.143       43.911     2729.199     3738.465     1928.178        0.704        0.420       75.229       35.391        0.221      345.513       23.098      862.179
08/26/2013  10:31:00       85.013       93.100        9.640       60.608       39.739       56.161     3673.379     1579.223     3154.028        1.220        0.420      126.075       40.232        0.102      345.187       22.539      862.158
08/26/2013  10:32:00       62.632       82.368        9.811       58.432       45.854       32.928     3414.283     2102.603     1084.231        0.870        0.330      103.476       29.952        0.084      345.353       22.823      862.142
08/26/2013  10:33:00      129.963       96.899       24.941       55.171       46.705       37.941     3043.840     2181.392     1439.483        1.678        0.333      162.111       31.819        0.039      345.404       22.910      862.127
08/26/2013  10:34:00      143.444      101.649       24.107       55.490       39.766       48.454     3079.106     1581.360     2347.829        1.925        0.350      175.809       22.359        0.016      345.143       22.461      862.115
08/26/2013  10:35:00      142.754       83.649       38.968       68.270       61.416       51.128     4660.736     3771.895     2614.104        1.997        0.552      165.457       27.680        0.028      345.105       22.397      862.091
08/26/2013  10:36:00      105.995       62.536        4.369       62.086       43.616       35.943     3854.683     1902.351     1291.923        1.111        0.352      123.068       20.907        0.029      345.354       22.824      862.067
08/26/2013  10:37:00       78.334       56.263       26.112       38.499       29.948       37.354     1482.166      896.878     1395.308        0.688        0.189       96.446       22.589        0.055      345.380       22.869      862.061
08/26/2013  10:38:00       64.747       61.043        9.520       40.137       40.407       32.201     1611.013     1632.726     1036.933        0.614        0.214       88.985       11.812        0.018      345.433       22.960      862.048
08/26/2013  10:39:00       62.710       65.204       23.597       52.081       34.137       32.946     2712.460     1165.334     1085.407        0.685        0.248       90.466        9.324        0.011      345.527       23.120      862.042
08/26/2013  10:40:00       10.690       20.877       40.212       45.832       54.163       31.941     2100.601     2933.656     1020.206        0.411        0.303       23.455       29.332        1.564      345.935       23.822      862.046
08/26/2013  10:41:00        4.350       16.789       47.782       19.403       42.424       30.683      376.476     1799.764      941.476        0.285        0.156       17.343       29.243        2.843      346.164       24.215      862.045
08/26/2013  10:42:00       65.828       62.673       40.738       51.307       45.670       36.487     2632.416     2085.786     1331.326        0.798        0.302       90.891       21.037        0.054      345.532       23.131      862.050
08/26/2013  10:43:00       29.214       31.447       51.983       30.107       33.429       20.124      906.444     1117.507      404.995        0.349        0.121       42.923       14.463        0.114      345.810       23.605      862.039
08/26/2013  10:44:00       39.104       46.980       45.475       34.077       35.475       31.157     1161.218     1258.500      970.757        0.460        0.170       61.125       15.635        0.065      345.887       23.739      862.034
08/26/2013  10:45:00       53.098       15.361       59.445       70.082       89.054       75.324     4911.423     7930.591     5673.636        1.255        0.926       55.276       75.764        1.879      345.620       23.281      862.025
08/26/2013  10:46:00       64.812       60.122       64.458       57.326       40.024       35.357     3286.306     1601.897     1250.114        0.905        0.307       88.404       34.913        0.156      345.476       23.034      862.014
08/26/2013  10:47:00      106.780       45.975       11.243       33.172       32.353       28.425     1100.388     1046.736      807.953        0.830        0.148      116.257       18.629        0.026      345.097       22.386      861.990
08/26/2013  10:48:00       41.582       16.885       51.700       52.055       44.652       41.617     2709.735     1993.774     1731.959        0.556        0.322       44.880       33.960        0.573      345.610       23.265      861.970
08/26/2013  10:49:00        0.820       54.156       78.405       32.169       58.063       30.944     1034.850     3371.332      957.510        0.722        0.268       54.162       33.748        0.388      345.963       23.869      861.951
08/26/2013  10:50:00       59.601       66.603       58.898       51.846       43.456       42.521     2688.035     1888.449     1808.066        0.892        0.319       89.377       24.160        0.073      345.724       23.460      861.948
08/26/2013  10:51:00       56.238       34.354       51.092       61.143       84.539       43.184     3738.463     7146.827     1864.838        0.985        0.638       65.901       47.589        0.521      345.694       23.408      861.935
08/26/2013  10:52:00       65.313       43.844       58.568       55.941       48.713       33.822     3129.439     2372.981     1143.925        0.813        0.332       78.665       27.199        0.120      345.947       23.842      861.941
08/26/2013  10:53:00        7.374       87.971      123.611       48.423       53.630       32.673     2344.820     2876.227     1067.507        1.468        0.314       88.279       31.272        0.125      345.966       23.874      861.921
08/26/2013  10:54:00       40.720       74.600       73.458       41.412       51.014       39.211     1714.991     2602.427     1537.508        0.924        0.293       84.990       18.991        0.050      346.008       23.946      861.913
08/26/2013  10:55:00       44.134      -17.158       44.010       51.709       80.701       54.852     2673.800     6512.586     3008.695        0.818        0.610       47.352       50.235        1.125      346.312       24.469      861.898
08/26/2013  10:56:00       62.955      -63.680       23.926       73.497       91.871       57.586     5401.791     8440.300     3316.122        1.287        0.858       89.546       69.694        0.606      346.047       24.013      861.903
08/26/2013  10:57:00       33.336      -28.457       24.508       46.446       75.824       49.803     2157.270     5749.341     2480.339        0.645        0.519       43.830       46.752        1.138      345.861       23.694      861.902
08/26/2013  10:58:00       63.529      -56.952       22.439       58.894       77.346       57.402     3468.506     5982.417     3294.981        1.026        0.637       85.320       63.959        0.562      345.722       23.455      861.898
08/26/2013  10:59:00       32.585      -55.222      -10.621       30.438       34.750       26.891      926.483     1207.555      723.116        0.354        0.143       64.120       22.152        0.119      345.414       22.927      861.893
08/26/2013  11:00:00      -34.153     -110.257       -6.357       34.572       47.397       23.486     1195.197     2246.463      551.574        0.868        0.200      115.425       13.783        0.014      345.421       22.939      861.870
08/26/2013  11:01:00      -55.793        0.217       10.023       45.328       43.121       26.113     2054.642     1859.385      681.880        0.390        0.230       55.793       30.422        0.297      345.764       23.528      861.864
08/26/2013  11:02:00      -59.593       27.323        9.835       41.288       38.176       31.233     1704.722     1457.436      975.491        0.427        0.207       65.558       25.301        0.149      345.827       23.636      861.847
08/26/2013  11:03:00       19.150       12.084       40.275       26.943       24.561       22.464      725.899      603.236      504.652        0.198        0.092       22.644       14.484        0.409      346.854       25.401      861.832
08/26/2013  11:04:00       31.019       25.903       28.681       43.347       33.031       28.525     1878.979     1091.022      813.692        0.312        0.189       40.412       23.365        0.334      346.564       24.904      861.799
08/26/2013  11:05:00      112.753       99.513       38.872       70.377       51.827       47.538     4952.928     2686.019     2259.854        1.701        0.495      150.387       36.582        0.059      346.005       23.939      861.792
08/26/2013  11:06:00      147.459      108.782        0.905       69.724       44.942       47.759     4861.436     2019.783     2280.906        2.137        0.458      183.242       26.231        0.020      345.649       23.329      861.800
08/26/2013  11:07:00       33.514       30.102       14.169       28.410       18.468       19.339      807.106      341.058      374.006        0.188        0.076       45.048        7.416        0.027      345.713       23.440      861.822
08/26/2013  11:08:00       62.623        4.541       23.706       41.910       56.082       29.926     1756.462     3145.216      895.556        0.515        0.290       62.788       29.138        0.215      345.860       23.693      861.851
08/26/2013  11:09:00       98.571       84.587       18.409       47.124       49.686       42.304     2220.665     2468.675     1789.598        1.184        0.324      129.890       31.341        0.058      345.793       23.577      861.847
08/26/2013  11:10:00      -12.032       49.831      -17.248       23.433       21.130       20.179      549.100      446.484      407.175        0.216        0.070       51.263       12.945        0.064      345.849       23.673      861.839
08/26/2013  11:11:00       -9.780        6.809        8.056       27.880       17.365       26.342      777.274      301.527      693.912        0.099        0.089       11.917       21.794        3.345      346.469       24.739      861.818
08/26/2013  11:12:00      -17.891       25.580       14.433       26.764       28.710       24.002      716.317      824.246      576.092        0.165        0.106       31.215       16.558        0.281      346.380       24.585      861.807
08/26/2013  11:13:00       19.083       21.684       26.008       27.079       23.852       27.522      733.278      568.904      757.453        0.178        0.103       28.885       20.652        0.511      346.711       25.155      861.786
08/26/2013  11:14:00      104.496       98.860       14.083       63.214       49.266       47.797     3995.987     2427.158     2284.536        1.480        0.435      143.850       26.183        0.033      346.112       24.125      861.756
08/26/2013  11:15:00      150.209      115.306       15.985       82.299       53.578       52.022     6773.103     2870.564     2706.274        2.423        0.617      189.363       35.911        0.036      346.058       24.030      861.745
08/26/2013  11:16:00      165.133       85.464       19.325       77.364       68.439       43.751     5985.236     4683.933     1914.146        2.376        0.629      185.938       32.594        0.031      345.996       23.925      861.731
08/26/2013  11:17:00       81.884      175.722       -7.298       98.042       79.118       62.757     9612.305     6259.723     3938.450        2.872        0.991      193.864       50.121        0.067      345.947       23.839      861.726
08/26/2013  11:18:00       40.923      138.448      -10.010       55.827       96.745       57.296     3116.655     9359.568     3282.831        1.835        0.788      144.369       60.545        0.176      346.101       24.104      861.692
08/26/2013  11:19:00       34.726      108.445       -4.677       40.042       49.451       39.709     1603.350     2445.364     1576.776        0.931        0.281      113.869       31.906        0.079      346.015       23.958      861.673
08/26/2013  11:20:00      114.918       63.874       11.677       70.187       58.070       36.260     4926.147     3372.089     1314.799        1.352        0.481      131.476       16.123        0.015      346.041       24.003      861.658
08/26/2013  11:21:00      138.307      110.034       25.074       80.964       49.675       51.109     6555.202     2467.651     2612.133        2.175        0.582      176.738       16.397        0.009      346.135       24.162      861.655
08/26/2013  11:22:00      139.785       70.027       25.920       77.939       61.237       52.154     6074.495     3749.951     2720.079        1.883        0.627      156.344       39.642        0.064      346.216       24.302      861.648
08/26/2013  11:23:00      103.512       79.263       48.002       80.814       43.955       42.424     6530.864     1932.012     1799.838        1.478        0.513      130.374       37.487        0.083      346.231       24.329      861.641
08/26/2013  11:24:00       29.597       43.641       16.705       32.021       35.490       30.323     1025.351     1259.505      919.513        0.313        0.160       52.731       19.578        0.138      346.398       24.617      861.625
08/26/2013  11:25:00       12.899      111.347       10.284       35.747       72.876       46.170     1277.883     5310.879     2131.665        1.069        0.436      112.091       45.314        0.163      346.701       25.138      861.613
08/26/2013  11:26:00      -20.513      176.573      -13.509       46.981       70.607       36.809     2207.185     4985.333     1354.923        2.016        0.427      177.760       38.665        0.047      346.239       24.341      861.616
08/26/2013  11:27:00      -33.114      150.948       -0.041       41.208       59.882       37.208     1698.078     3585.875     1384.438        1.527        0.333      154.538       33.380        0.047      346.285       24.422      861.620
08/26/2013  11:28:00      -69.130       95.747       -7.848       36.177       58.448       40.570     1308.741     3416.151     1645.908        1.019        0.319      118.095       38.768        0.108      346.331       24.502      861.635
08/26/2013  11:29:00      -39.105       62.328       -3.466       27.593       45.569       26.951      761.351     2076.552      726.377        0.449        0.178       73.580       16.584        0.051      346.475       24.749      861.642
08/26/2013  11:30:00      -73.151       -1.638       -6.339       17.787       27.189       17.875      316.389      739.241      319.520        0.338        0.069       73.170        8.905        0.015      345.955       23.856      861.652
08/26/2013  11:31:00      -60.658      -15.988        0.418       29.903       26.108       20.211      894.190      681.640      408.483        0.296        0.099       62.729       20.428        0.106      346.216       24.305      861.659
08/26/2013  11:32:00       27.719        7.893       20.658       44.154       39.265       36.512     1949.590     1541.758     1333.137        0.304        0.241       28.821       20.551        0.508      346.498       24.788      861.645
08/26/2013  11:33:00       42.210       36.946       28.401       46.855       28.412       28.024     2195.347      807.221      785.373        0.387        0.189       56.095       22.912        0.167      346.511       24.812      861.621
08/26/2013  11:34:00      -20.760      139.730       -1.027       57.094       67.077       38.657     3259.712     4499.319     1494.355        1.460        0.463      141.264       36.069        0.065      346.432       24.674      861.584
08/26/2013  11:35:00      -37.929      199.839      -22.096       39.853       73.811       32.344     1588.231     5448.062     1046.117        2.497        0.404      203.406       34.441        0.029      346.299       24.444      861.566
08/26/2013  11:36:00      -46.676      163.408      -12.534       39.099       62.230       35.126     1528.743     3872.535     1233.862        1.784        0.332      169.944       26.436        0.024      346.258       24.376      861.558
08/26/2013  11:37:00      -44.783       40.206       23.236       48.121       37.112       30.427     2315.601     1377.305      925.809        0.439        0.231       60.183       26.850        0.199      346.726       25.181      861.515
08/26/2013  11:38:00      -47.983      144.720       -9.202       36.572       62.340       29.197     1337.544     3886.329      852.464        1.470        0.304      152.467       29.118        0.036      346.393       24.608      861.477
08/26/2013  11:39:00       -9.283      181.649      -10.720       31.167       51.666       28.197      971.375     2669.410      795.056        1.882        0.222      181.886       28.406        0.024      346.506       24.803      861.458
08/26/2013  11:40:00      -94.653      -17.964       -3.068       64.002       75.437       43.712     4096.286     5690.733     1910.727        1.049        0.585       96.343       34.958        0.132      346.542       24.863      861.495
08/26/2013  11:41:00      -93.730      -38.356       -4.857       72.147       59.388       33.867     5205.235     3526.946     1146.973        1.008        0.494      101.275       38.103        0.142      346.473       24.746      861.548
08/26/2013  11:42:00      -69.871     -127.089       -4.557       58.542       71.443       28.764     3427.189     5104.123      827.349        1.520        0.468      145.030       24.136        0.028      346.235       24.336      861.580
08/26/2013  11:43:00      -72.723     -183.451       -0.778       42.586       71.752       27.677     1813.608     5148.350      766.000        2.333        0.386      197.339       23.766        0.015      346.190       24.258      861.599
08/26/2013  11:44:00      -74.153     -239.168      -11.053       62.044       63.940       30.988     3849.404     4088.306      960.238        3.586        0.445      250.400       14.766        0.003      346.156       24.196      861.594
08/26/2013  11:45:00       58.899      -26.898       29.423       32.578       81.609       34.462     1061.341     6660.106     1187.657        0.698        0.445       64.751       36.723        0.322      346.627       25.010      861.509
08/26/2013  11:46:00      -39.763       34.997      -27.593       43.527       53.518       27.924     1894.566     2864.144      779.769        0.455        0.277       52.970       22.214        0.176      346.313       24.470      861.427
08/26/2013  11:47:00       17.633       78.593       11.774       48.324       68.628       48.718     2335.223     4709.761     2373.463        0.802        0.471       80.546       28.685        0.127      346.620       24.999      861.370
08/26/2013  11:48:00       32.360       28.943       -0.033       39.317       51.459       47.539     1545.834     2648.068     2259.975        0.417        0.323       43.415       19.682        0.206      346.881       25.450      861.350
08/26/2013  11:49:00      122.378      -65.802       15.216      111.167       83.644       65.818    12358.209     6996.302     4332.035        2.161        1.184      138.947       50.900        0.134      346.684       25.105      861.380
08/26/2013  11:50:00       92.516       85.509       74.390       92.135       70.539       63.492     8488.769     4975.711     4031.227        1.945        0.875      125.980       48.254        0.147      347.059       25.753      861.276
08/26/2013  11:51:00      118.521      141.887      104.309      121.575      133.456      112.535    14780.533    17810.610    12664.081        4.515        2.263      184.876       91.306        0.244      346.949       25.561      861.267
08/26/2013  11:52:00      208.915      128.243       98.846      139.506       97.239       87.611    19461.929     9455.476     7675.632        5.322        1.830      245.136       70.795        0.083      346.970       25.597      861.217
08/26/2013  11:53:00      149.392     -126.662       49.471      157.571      120.493       93.638    24828.664    14518.503     8768.113        4.445        2.406      195.860       75.296        0.148      347.040       25.719      861.117
08/26/2013  11:54:00      -22.514       -6.909       16.271       82.103       74.956       54.555     6740.886     5618.346     2976.280        0.807        0.767       23.550       55.803        5.615      347.152       25.914      861.205
08/26/2013  11:55:00      -86.377      -99.866       10.803       95.744       81.302       47.870     9166.914     6610.006     2291.536        1.781        0.903      132.039       35.665        0.073      347.222       26.033      861.234
08/26/2013  11:56:00     -155.210     -170.446       22.174      176.978      149.260       75.828    31321.276    22278.650     5749.867        5.648        2.967      230.526       78.416        0.116      347.284       26.138      861.209
08/26/2013  11:57:00      -96.304     -206.239       17.000      146.803      121.954       71.900    21551.186    14872.895     5169.604        4.684        2.080      227.615       69.556        0.093      347.327       26.212      861.222
08/26/2013  11:58:00      -98.514     -206.165       -0.672      127.832      117.185       71.751    16340.958    13732.428     5148.200        4.371        1.761      228.493       43.765        0.037      347.322       26.205      861.249
08/26/2013  11:59:00     -185.189     -174.529       25.872      177.360      120.273       79.301    31456.401    14465.695     6288.610        5.881        2.611      254.471       76.465        0.090      347.399       26.337      861.251
08/26/2013  12:00:00     -186.578     -137.338        9.868      161.188       91.890       62.283    25981.583     8443.838     3879.190        4.603        1.915      231.674       59.925        0.067      347.251       26.083      861.276
08/26/2013  12:01:00     -278.566     -259.825      -12.248      147.622      135.575       68.825    21792.322    18380.653     4736.843        9.507        2.245      380.931       65.723        0.030      346.971       25.598      861.256
08/26/2013  12:02:00     -161.960     -151.611        1.301      127.608      136.536       62.006    16283.818    18641.973     3844.803        4.399        1.939      221.849       76.340        0.118      347.198       25.990      861.322
08/26/2013  12:03:00      -20.493      -95.450      -10.703      115.526      107.365       58.698    13346.250    11527.138     3445.488        1.898        1.416       97.625       60.897        0.389      347.409       26.356      861.279
08/26/2013  12:04:00     -186.713     -145.099       16.945      197.870      164.584       80.264    39152.540    27088.041     6442.350        6.443        3.634      236.464      100.542        0.181      347.219       26.027      861.286
08/26/2013  12:05:00       51.569      -73.700        2.737       85.721       76.602       57.143     7348.064     5867.901     3265.377        1.229        0.824       89.951       53.180        0.350      347.396       26.336      861.244
08/26/2013  12:06:00       16.815      -87.342       23.286       73.617       98.431       66.167     5419.464     9688.593     4378.136        1.397        0.974       88.946       61.533        0.479      347.454       26.434      861.221
08/26/2013  12:07:00     -148.291      -54.050        7.421      101.251      103.258       57.448    10251.844    10662.118     3300.321        2.459        1.211      157.834       53.072        0.113      347.218       26.026      861.212
08/26/2013  12:08:00      -51.531      -98.461        5.289       78.565       63.694       38.070     6172.391     4056.970     1449.310        1.203        0.584      111.130       28.053        0.064      347.417       26.371      861.207
08/26/2013  12:09:00       23.129      -40.813       25.418       85.946      100.457       63.791     7386.630    10091.553     4069.317        1.219        1.077       46.911       68.140        2.110      347.461       26.447      861.216
08/26/2013  12:10:00       52.416      -11.095       56.376       76.908       76.433       51.608     5914.888     5842.039     2663.363        1.023        0.721       53.578       44.721        0.697      347.715       26.885      861.145
08/26/2013  12:11:00      -99.579      -94.631        0.314       80.755      109.743       39.569     6521.430    12043.597     1565.704        1.950        1.007      137.372       46.921        0.117      347.512       26.533      861.114
08/26/2013  12:12:00      -93.663     -179.795        2.685      130.946       98.176       62.843    17146.738     9638.446     3949.222        3.591        1.537      202.729       63.178        0.097      347.358       26.269      861.102
08/26/2013  12:13:00       43.090     -256.091        9.726      139.588      189.305       93.195    19484.676    35836.255     8685.289        6.576        3.200      259.691       83.990        0.105      347.491       26.495      861.128
08/26/2013  12:14:00       39.016     -313.406       45.245      139.774      277.508      150.144    19536.711    77010.735    22543.077       11.042        5.955      315.825      137.886        0.191      347.233       26.050      861.062
08/26/2013  12:15:00      -20.324     -255.084       13.851      149.582      172.525       94.744    22374.666    29764.740     8976.415        6.338        3.056      255.892       60.294        0.056      347.322       26.205      861.103
08/26/2013  12:16:00       79.331     -292.364       -7.821      153.622      194.080       93.746    23599.826    37667.133     8788.375        8.093        3.503      302.936       84.405        0.078      347.073       25.776      861.118
08/26/2013  12:17:00       46.841     -264.176       16.661      140.745      172.124       80.725    19809.181    29626.515     6516.491        6.410        2.798      268.297       77.267        0.083      347.129       25.873      861.082
08/26/2013  12:18:00      -33.075     -122.830       17.109       73.819      153.423       59.537     5449.202    23538.467     3544.702        2.450        1.627      127.205       60.347        0.225      347.348       26.251      861.103
08/26/2013  12:19:00      -85.072      -34.056       29.079       84.772       73.098       56.201     7186.224     5343.333     3158.521        1.246        0.784       91.635       59.330        0.419      347.654       26.780      861.060
08/26/2013  12:20:00      -35.782     -137.072       -7.313       99.602      153.147       50.925     9920.628    23454.145     2593.334        2.804        1.798      141.665       60.799        0.184      347.451       26.429      861.039
08/26/2013  12:21:00      -48.136     -220.487       19.879      175.250      127.577       89.546    30712.544    16275.911     8018.527        5.316        2.750      225.680       66.831        0.088      347.224       26.035      860.997
08/26/2013  12:22:00      102.478     -255.521       22.002      213.208      212.281      105.091    45457.807    45063.191    11044.101        8.890        5.078      275.305      104.261        0.143      347.472       26.462      861.004
08/26/2013  12:23:00     -125.626     -277.680      -14.228      182.013      158.131       88.397    33128.602    25005.399     7813.978        7.951        3.297      304.775       76.627        0.063      347.336       26.227      861.034
08/26/2013  12:24:00       86.681     -173.152       41.114      159.238      166.213       95.112    25356.698    27626.797     9046.249        5.060        3.101      193.637       93.592        0.234      347.479       26.475      861.043
08/26/2013  12:25:00       71.916     -199.472       -7.787      137.559      155.690       84.223    18922.430    24239.371     7093.482        4.763        2.513      212.040       88.258        0.173      347.385       26.314      861.005
08/26/2013  12:26:00      264.794     -370.407      -33.754      155.870      203.687      106.960    24295.434    41488.210    11440.542       14.282        3.861      455.321       79.692        0.031      347.261       26.098      860.989
08/26/2013  12:27:00      121.036     -280.869      -23.460      157.162      168.020       92.538    24699.805    28230.661     8563.208        7.778        3.075      305.838       70.709        0.053      347.333       26.222      860.962
08/26/2013  12:28:00       41.792     -318.794       -9.684      145.671      152.358       76.335    21220.038    23213.067     5826.968        7.685        2.513      321.522       75.380        0.055      347.430       26.390      861.012
08/26/2013  12:29:00       27.696     -247.992        6.752      113.514      192.510       60.789    12885.491    37060.175     3695.283        5.797        2.682      249.533       57.109        0.052      347.467       26.455      861.020
08/26/2013  12:30:00       98.175     -243.101       47.145      181.961      261.821      146.559    33109.854    68550.191    21479.464        9.702        6.157      262.176      142.617        0.296      347.493       26.498      860.956
08/26/2013  12:31:00      161.903     -222.056       -7.689      118.205      200.773      104.319    13972.314    40309.752    10882.516        7.036        3.258      274.811      105.649        0.148      347.371       26.288      860.981
08/26/2013  12:32:00       45.176     -212.890       13.865      149.805      166.766       80.751    22441.411    27811.030     6520.690        5.215        2.839      217.630       77.977        0.128      347.409       26.354      860.981
08/26/2013  12:33:00      -93.146     -175.474       -8.944      149.986       86.475       63.226    22495.854     7477.919     3997.480        3.675        1.699      198.664       25.828        0.017      347.381       26.305      860.950
08/26/2013  12:34:00     -106.618     -170.708        1.101      107.722       92.248       56.668    11604.076     8509.706     3211.303        3.191        1.166      201.268       29.239        0.021      347.487       26.488      860.981
08/26/2013  12:35:00     -113.787     -166.484        9.558      200.939      123.026       79.505    40376.481    15135.480     6321.029        5.128        3.092      201.654       67.945        0.114      347.410       26.356      860.970
08/26/2013  12:36:00      -34.695     -127.213       -3.159      116.291       88.111       55.857    13523.689     7763.465     3119.967        2.090        1.220      131.860       36.783        0.078      347.517       26.542      860.943
08/26/2013  12:37:00      -41.431     -163.357       -9.954       74.147      106.242       44.925     5497.824    11287.451     2018.231        2.365        0.940      168.529       16.847        0.010      347.608       26.698      860.974
08/26/2013  12:38:00      -62.482     -167.063       13.344      119.237      135.411       78.882    14217.454    18336.232     6222.342        3.538        1.939      178.365       65.321        0.134      347.701       26.858      860.942
08/26/2013  12:39:00       24.434     -201.338       -1.108      172.116      147.757       82.294    29624.078    21832.227     6772.244        4.967        2.911      202.815       66.422        0.107      347.339       26.233      860.951
08/26/2013  12:40:00       44.157     -100.697       34.610      128.779      109.593       57.405    16584.027    12010.633     3295.362        2.258        1.595      109.954       53.500        0.237      347.626       26.731      860.939
08/26/2013  12:41:00       -4.490     -176.161      -13.932      165.633      168.923       82.423    27434.316    28534.852     6793.472        4.699        3.138      176.218       77.051        0.191      347.581       26.654      860.956
08/26/2013  12:42:00     -132.399     -251.858      -18.373      157.390      161.913       70.357    24771.642    26215.836     4950.173        6.861        2.797      284.538       50.409        0.031      347.384       26.309      860.940
08/26/2013  12:43:00      -18.810     -340.125      -24.972      170.563      171.225       97.059    29091.621    29317.932     9420.472        9.223        3.392      340.645       57.857        0.029      347.420       26.372      860.937
08/26/2013  12:44:00        6.372     -195.516      -16.524      120.341       75.132       58.695    14481.839     5644.754     3445.063        3.105        1.179      195.619       44.623        0.052      347.435       26.399      860.931
08/26/2013  12:45:00      -32.437     -172.981      -14.134       90.190       72.401       60.353     8134.281     5241.917     3642.480        2.409        0.851      175.996       28.434        0.026      347.578       26.647      860.907
08/26/2013  12:46:00       -4.453      -22.698       82.768      164.896      191.380      107.355    27190.655    36626.493    11525.078        4.135        3.767       23.131      123.188       28.364      347.744       26.934      860.880
08/26/2013  12:47:00     -194.738     -263.900      -27.555      192.241      148.315       84.585    36956.619    21997.270     7154.638        8.720        3.305      327.972       71.656        0.048      347.494       26.501      860.922
08/26/2013  12:48:00      -46.583     -156.993       -4.881       90.653      126.078       71.212     8217.895    15895.759     5071.208        2.801        1.459      163.758       59.054        0.130      347.586       26.661      860.951
08/26/2013  12:49:00      -77.374     -206.044       16.327      168.859      109.657       72.311    28513.250    12024.600     5228.917        4.723        2.288      220.093       56.568        0.066      347.617       26.713      860.939
08/26/2013  12:50:00      -22.710     -186.116        0.422      138.378      112.948       75.145    19148.333    12757.356     5646.760        3.635        1.878      187.496       58.482        0.097      347.716       26.884      860.945
08/26/2013  12:51:00       37.100      -79.135       42.616      118.512      144.507       87.159    14045.100    20882.155     7596.741        2.598        2.126       87.400       98.306        1.265      347.756       26.953      860.902
08/26/2013  12:52:00      119.402     -270.468      -16.637      118.503      178.643       88.611    14042.994    31913.300     7851.948        7.074        2.690      295.651       80.601        0.074      347.511       26.530      860.929
08/26/2013  12:53:00       65.120     -201.925       12.383      131.196      167.769      107.097    17212.332    28146.491    11469.856        5.099        2.841      212.166      102.079        0.231      347.531       26.565      860.891
08/26/2013  12:54:00      -61.583     -223.459      -10.535      115.473      160.954       63.319    13334.099    25906.050     4009.291        4.853        2.162      231.790       31.387        0.018      347.432       26.395      860.921
08/26/2013  12:55:00       28.241     -158.332       21.878      114.973      117.734       76.717    13218.737    13861.329     5885.546        2.965        1.648      160.831       61.601        0.147      347.558       26.611      860.881
08/26/2013  12:56:00       46.444     -266.741       30.480      140.787      238.889      112.110    19821.105    57068.014    12568.726        8.183        4.473      270.754      113.526        0.176      347.423       26.379      860.849
08/26/2013  12:57:00       38.206      -98.192       73.530      142.658      170.147      116.499    20351.234    28950.031    13571.983        3.968        3.144      105.363      101.764        0.933      347.664       26.794      860.741
08/26/2013  12:58:00     -199.633     -159.780      -15.595       88.418       63.538       44.612     7817.717     4037.062     1990.194        3.973        0.692      255.701       34.074        0.018      347.561       26.615      860.862
08/26/2013  12:59:00       13.808     -261.624       -5.872      149.944      139.006       74.787    22483.289    19322.591     5593.143        5.803        2.370      261.988       36.329        0.019      347.666       26.798      860.916
08/26/2013  13:00:00     -188.194      -55.953        9.086      128.252      121.546       71.340    16448.448    14773.531     5089.389        3.746        1.816      196.335       56.505        0.083      347.496       26.506      860.856
08/26/2013  13:01:00     -181.282     -108.143      -16.103      117.841      134.578       56.388    13886.447    18111.316     3179.650        3.999        1.759      211.087       45.613        0.047      347.748       26.939      860.878
08/26/2013  13:02:00     -333.008     -149.351       -6.924      153.332      130.010       78.471    23510.766    16902.607     6157.640        8.990        2.329      364.966       72.509        0.039      347.705       26.865      860.862
08/26/2013  13:03:00     -182.732     -148.525        7.307      200.043      130.340       76.631    40017.207    16988.424     5872.305        5.918        3.144      235.479       80.050        0.116      347.775       26.985      860.878
08/26/2013  13:04:00     -223.813     -270.493      -21.381      127.174      157.190       63.456    16173.191    24708.552     4026.689        8.430        2.245      351.082       62.175        0.031      347.709       26.871      860.869
08/26/2013  13:05:00     -366.050     -122.303      -13.636      173.143      152.732       91.159    29978.528    23327.073     8309.941       10.536        3.081      385.942       79.142        0.042      347.642       26.756      860.866
08/26/2013  13:06:00     -234.363      -93.436       12.571      144.785      107.978       59.095    20962.629    11659.272     3492.251        4.996        1.806      252.302       65.233        0.067      347.753       26.948      860.869
08/26/2013  13:07:00     -178.665     -226.790      -14.617       85.499      140.352       54.818     7310.075    19698.812     3005.007        5.679        1.501      288.712       33.108        0.013      347.492       26.496      860.821
08/26/2013  13:08:00     -168.397     -189.996       -8.133      106.713       86.799       50.110    11387.694     7534.084     2511.008        4.297        1.072      253.882       44.798        0.031      347.589       26.664      860.800
08/26/2013  13:09:00     -125.618     -325.969       -6.687      151.737      135.926       74.140    23024.246    18475.812     5496.718        8.453        2.350      349.336       63.398        0.033      347.600       26.682      860.765
08/26/2013  13:10:00     -205.829     -219.569       -5.465      108.962      187.732       77.567    11872.673    35243.445     6016.602        7.186        2.657      300.958       81.673        0.074      347.463       26.446      860.757
08/26/2013  13:11:00      -98.430     -127.899        5.792      165.917      147.343       68.914    27528.589    21709.828     4749.160        4.002        2.699      161.390       74.433        0.213      347.765       26.970      860.788
08/26/2013  13:12:00      -92.122      -94.624       18.841      124.774       88.728       50.579    15568.616     7872.597     2558.259        2.189        1.300      132.062       59.746        0.205      347.901       27.203      860.833
08/26/2013  13:13:00     -237.797     -260.815       -6.454      131.338      149.475       58.493    17249.713    22342.746     3421.449        8.381        2.151      352.948       54.440        0.024      347.565       26.623      860.824
08/26/2013  13:14:00     -207.164     -169.142        5.913      160.975      115.202       59.851    25913.083    13271.520     3582.084        5.716        2.138      267.443       67.516        0.064      347.564       26.620      860.805
08/26/2013  13:15:00     -124.817     -153.148      -13.387      150.543       87.036       60.268    22663.118     7575.318     3632.250        3.654        1.694      197.569       42.635        0.047      347.846       27.109      860.809
08/26/2013  13:16:00     -367.579     -184.978        1.617      281.983      162.877       92.785    79514.197    26529.021     8609.000       14.197        5.733      411.499       99.792        0.059      347.812       27.049      860.819
08/26/2013  13:17:00     -209.254     -147.454        1.192      180.688      124.265       63.735    32648.012    15441.902     4062.119        5.883        2.608      255.988       67.893        0.070      347.589       26.664      860.833
08/26/2013  13:18:00     -252.366     -171.604      -20.794      173.635      179.000       71.179    30148.976    32041.071     5066.448        8.040        3.363      305.183       73.440        0.058      347.525       26.555      860.863
08/26/2013  13:19:00     -144.094     -138.774        8.177      123.649       93.269       66.224    15289.115     8699.119     4385.565        3.423        1.419      200.054       54.659        0.075      347.798       27.025      860.880
08/26/2013  13:20:00      -61.612      -56.154       19.032      116.650       73.329       37.999    13607.282     5377.099     1443.932        1.387        1.021       83.363       15.567        0.035      347.900       27.204      860.835
08/26/2013  13:21:00       11.807      -72.482       26.564      105.320       80.632       52.142    11092.288     6501.548     2718.809        1.320        1.016       73.437       55.346        0.568      347.829       27.082      860.819
08/26/2013  13:22:00      -38.294      -69.996       16.898       93.533       76.223       48.353     8748.470     5809.891     2338.055        1.177        0.845       79.786       39.307        0.243      347.974       27.333      860.793
08/26/2013  13:23:00      -21.889      -46.133       12.734      115.466       69.994       54.935    13332.473     4899.198     3017.831        1.201        1.062       51.063       46.370        0.825      348.095       27.540      860.778
08/26/2013  13:24:00     -301.327     -271.090        4.471      186.233      294.059       97.607    34682.664    86470.569     9527.044       14.747        6.534      405.324      102.028        0.063      347.908       27.215      860.729
08/26/2013  13:25:00     -182.237     -145.833        2.400      233.345      139.330       68.945    54449.738    19412.803     4753.436        6.653        3.931      233.404       59.464        0.065      348.022       27.412      860.760
08/26/2013  13:26:00       62.823     -100.177       53.448      121.334      181.312      105.126    14721.935    32873.975    11051.444        3.773        2.932      118.246      125.657        1.129      347.891       27.185      860.748
08/26/2013  13:27:00      -76.722     -215.161       -4.862      109.419      135.113       62.221    11972.541    18255.478     3871.403        4.314        1.705      228.430       27.370        0.014      347.727       26.903      860.778
08/26/2013  13:28:00      -26.177     -233.021       -2.719      100.924       87.654       61.052    10185.610     7683.227     3727.333        3.829        1.080      234.486       36.468        0.024      347.729       26.905      860.763
08/26/2013  13:29:00      -79.421     -182.979      -13.161      155.833      142.709       62.648    24284.037    20365.929     3924.766        4.426        2.429      199.472       57.643        0.084      347.702       26.859      860.760
08/26/2013  13:30:00      -94.362      -93.503       -9.614       95.290       55.578       43.605     9080.228     3088.884     1901.379        1.590        0.704      132.842       18.648        0.020      347.920       27.239      860.747
08/26/2013  13:31:00      -69.505     -281.201       15.067      138.882      130.439       70.622    19288.168    17014.322     4987.418        6.270        2.064      289.664       56.582        0.038      347.899       27.199      860.743
08/26/2013  13:32:00     -317.387     -174.047      -22.152      157.270       89.504       57.769    24733.999     8010.911     3337.205        8.379        1.804      361.977       66.042        0.033      347.811       27.047      860.744
08/26/2013  13:33:00     -121.006     -164.706        3.742       92.043       92.696       59.050     8471.987     8592.602     3486.870        3.116        1.028      204.378       53.983        0.070      347.859       27.131      860.755
08/26/2013  13:34:00     -117.154     -187.477       -9.014      131.443       90.707       52.193    17277.371     8227.803     2724.103        3.859        1.411      221.072       37.636        0.029      347.945       27.279      860.792
08/26/2013  13:35:00     -188.627     -171.763        8.468      150.061      120.048       70.468    22518.359    14411.463     4965.753        5.352        2.095      255.113       78.846        0.096      348.085       27.520      860.801
08/26/2013  13:36:00     -334.972     -235.384        0.419      174.920      113.488       78.083    30596.878    12879.414     6096.977       10.858        2.479      409.404       81.941        0.040      347.640       26.752      860.789
08/26/2013  13:37:00     -131.010      -86.598       12.258      122.488       97.324       59.072    15003.422     9471.883     3489.552        2.638        1.398      157.044       63.780        0.165      347.876       27.160      860.740
08/26/2013  13:38:00     -125.599     -231.534        7.091      128.676      127.778       62.461    16557.585    16327.270     3901.396        5.310        1.839      263.407       58.061        0.049      347.859       27.129      860.748
08/26/2013  13:39:00     -319.217     -245.658       -9.536      156.993       97.328       66.277    24646.925     9472.796     4392.687       10.042        1.926      402.799       58.093        0.021      347.732       26.910      860.709
08/26/2013  13:40:00     -139.372     -193.615       -5.326      131.788      114.623       64.002    17367.951    13138.538     4096.315        4.576        1.730      238.561       64.434        0.073      347.970       27.323      860.689
08/26/2013  13:41:00      -72.557     -128.847        7.337       79.645       75.627       44.365     6343.306     5719.503     1968.220        1.797        0.702      147.872       35.951        0.059      348.212       27.740      860.723
08/26/2013  13:42:00      -89.926      -84.665       19.313       77.104       97.644       64.169     5945.014     9534.318     4117.648        1.761        0.980      123.510       49.625        0.161      348.106       27.559      860.678
08/26/2013  13:43:00     -263.724     -218.628       -7.542      203.264      191.566       85.608    41316.182    36697.659     7328.735       10.136        4.267      342.562       91.178        0.071      348.027       27.420      860.698
08/26/2013  13:44:00     -411.142     -250.310        0.659      181.420      120.042       77.169    32913.354    14410.003     5955.113       14.248        2.664      481.345       84.165        0.031      347.781       26.994      860.693
08/26/2013  13:45:00     -248.311     -167.066       -5.918      123.572      107.454       47.923    15269.977    11546.294     2296.591        5.935        1.456      299.281       41.843        0.020      347.782       26.996      860.714
08/26/2013  13:46:00     -157.776      -53.929       13.784      143.570       98.414       59.541    20612.286     9685.367     3545.157        3.091        1.692      166.738       60.782        0.133      348.016       27.401      860.683
08/26/2013  13:47:00     -190.420     -133.011      -32.759      141.709      145.774       81.919    20081.480    21250.137     6710.715        5.152        2.402      232.275       71.459        0.095      347.865       27.142      860.657
08/26/2013  13:48:00     -138.069      -97.455       13.641      154.361      111.442       74.086    23827.454    12419.395     5488.749        3.523        2.087      168.998       86.952        0.265      348.181       27.687      860.652
08/26/2013  13:49:00     -208.094     -155.569       -4.032      134.093      139.966       55.609    17980.996    19590.544     3092.308        5.408        2.033      259.817       63.295        0.059      347.911       27.220      860.675
08/26/2013  13:50:00     -218.874     -185.168        8.178      157.315      142.292       70.102    24747.893    20246.943     4914.323        6.607        2.495      286.694       66.910        0.054      347.869       27.148      860.665
08/26/2013  13:51:00     -251.621     -276.514       13.321      224.988      178.668       87.907    50619.508    31922.428     7727.672       11.509        4.513      373.862       99.612        0.071      347.824       27.070      860.612
08/26/2013  13:52:00     -187.046     -247.832        6.627      147.771      175.173       78.545    21836.294    30685.508     6169.332        7.756        2.935      310.495       89.590        0.083      347.759       26.958      860.628
08/26/2013  13:53:00     -156.253     -254.581      -15.925      121.011      155.884       73.457    14643.619    24299.932     5395.942        6.690        2.217      298.708       52.203        0.031      347.887       27.178      860.637
08/26/2013  13:54:00      -74.484     -191.442        6.979      146.760      197.952       72.827    21538.518    39185.103     5303.714        5.412        3.301      205.421       68.250        0.110      347.812       27.049      860.643
08/26/2013  13:55:00     -217.262     -337.751       -1.698      191.048      201.151       94.668    36499.309    40461.658     8962.114       12.359        4.296      401.595       97.585        0.059      347.885       27.175      860.618
08/26/2013  13:56:00     -148.703     -182.471        6.795      178.167      111.771       69.355    31743.546    12492.801     4810.175        5.224        2.452      235.389       50.717        0.046      348.055       27.470      860.635
08/26/2013  13:57:00     -235.096     -219.889       -0.555      200.891      146.350       84.354    40357.335    21418.364     7115.592        8.624        3.445      321.903       88.439        0.075      348.012       27.395      860.660
08/26/2013  13:58:00     -351.501     -314.940       -6.013      222.851      179.810       96.185    49662.453    32331.473     9251.557       15.699        4.562      471.954       92.632        0.039      347.726       26.899      860.647
08/26/2013  13:59:00     -305.320     -207.057       -8.941      143.046      115.487       72.852    20462.066    13337.203     5307.352        8.763        1.955      368.908       52.804        0.020      347.740       26.924      860.634
08/26/2013  14:00:00     -247.342     -135.154       -6.278      148.248      135.448       67.288    21977.480    18346.038     4527.719        6.216        2.243      281.860       60.525        0.046      347.924       27.241      860.634
08/26/2013  14:01:00     -227.369     -285.892      -10.077      203.563      172.431       89.305    41437.791    29732.481     7975.464       10.632        3.957      365.282       75.469        0.043      347.726       26.901      860.620
08/26/2013  14:02:00     -113.963     -271.512      -28.031      154.360      145.099       80.181    23827.057    21053.799     6429.040        6.939        2.565      294.460       53.752        0.033      347.821       27.064      860.540
08/26/2013  14:03:00     -278.196     -171.638        1.880      172.870      127.196       81.181    29884.158    16178.795     6590.324        7.974        2.633      326.883       72.067        0.049      348.018       27.406      860.594
08/26/2013  14:04:00     -256.219     -211.486        4.102      199.639      147.436       88.593    39855.656    21737.371     7848.744        8.990        3.472      332.227       98.370        0.088      348.008       27.387      860.626
08/26/2013  14:05:00     -138.239      -79.850       -7.556       81.562      102.608       41.918     6652.391    10528.461     1757.118        2.224        0.947      159.644       43.396        0.074      348.016       27.402      860.567
08/26/2013  14:06:00     -184.859      -78.051       -6.043      139.511       74.990       40.928    19463.334     5623.551     1675.077        3.353        1.338      200.661       45.574        0.052      348.162       27.655      860.546
08/26/2013  14:07:00     -272.090     -280.880       20.578      203.633      164.096       92.365    41466.243    26927.416     8531.375       11.512        3.846      391.058       91.232        0.054      347.963       27.308      860.591
08/26/2013  14:08:00     -381.027     -284.007        4.502      236.144      199.192       99.994    55764.163    39677.365     9998.717       16.563        5.272      475.228       97.219        0.042      348.025       27.416      860.537
08/26/2013  14:09:00     -347.032     -191.133        1.149      234.587      151.386       83.019    55031.015    22917.802     6892.129       12.089        4.242      396.186      101.570        0.066      347.909       27.216      860.562
08/26/2013  14:10:00     -353.208     -254.174      -16.172      221.238      128.979      100.731    48946.340    16635.639    10146.716       13.266        3.786      435.156      113.762        0.068      347.764       26.967      860.568
08/26/2013  14:11:00     -370.747     -218.877      -12.703      184.345      160.756       83.088    33982.991    25842.364     6903.593       12.611        3.336      430.535       95.413        0.049      347.918       27.232      860.563
08/26/2013  14:12:00     -459.215     -369.285      -21.481      197.095      153.106      101.026    38846.260    23441.363    10206.202       21.009        3.625      589.279      109.124        0.034      347.514       26.534      860.562
08/26/2013  14:13:00     -369.413     -225.498       -6.206      168.730      196.892       71.464    28469.680    38766.503     5107.143       12.983        3.617      432.800       73.803        0.029      347.665       26.794      860.566
08/26/2013  14:14:00     -301.475     -149.535      -15.808       87.270       97.383       64.247     7616.102     9483.432     4127.650        6.736        1.061      336.523       48.166        0.020      347.772       26.978      860.567
08/26/2013  14:15:00     -118.865     -172.104       -5.594      118.115       84.805       51.295    13951.112     7191.899     2631.185        3.377        1.189      209.162       50.082        0.057      347.752       26.946      860.556
08/26/2013  14:16:00     -135.209     -114.048       -9.848       93.705       63.613       52.975     8780.701     4046.593     2806.397        2.351        0.782      176.885       45.187        0.065      347.973       27.328      860.548
08/26/2013  14:17:00     -362.359     -265.101       -1.449      196.438      143.091       83.346    38587.717    20474.911     6946.638       13.378        3.300      448.980       94.793        0.045      347.903       27.205      860.545
08/26/2013  14:18:00     -304.457     -153.552       -4.268      194.760      136.768       78.715    37931.526    18705.552     6196.054        8.955        3.142      340.988       79.326        0.054      347.778       26.990      860.528
08/26/2013  14:19:00     -153.970     -118.731       12.880      128.816      120.049       67.032    16593.513    14411.737     4493.237        3.673        1.775      194.432       74.207        0.146      348.050       27.462      860.514
08/26/2013  14:20:00     -108.500     -262.678       -3.200      118.053      138.291       60.775    13936.625    19124.379     3693.640        5.876        1.838      284.204       42.867        0.023      348.022       27.413      860.472
08/26/2013  14:21:00     -130.807      -35.332       15.776       99.505       96.602       51.202     9901.207     9332.026     2621.677        2.023        1.093      135.495       58.725        0.188      348.280       27.858      860.438
08/26/2013  14:22:00     -369.955     -282.761        0.840      216.328      212.881       88.986    46797.970    45318.348     7918.559       15.841        5.002      465.640      111.791        0.058      347.968       27.319      860.472
08/26/2013  14:23:00     -581.113     -282.019      -29.724      224.553      252.903      101.381    50423.855    63959.726    10278.139       27.136        6.233      645.931      114.282        0.031      347.738       26.922      860.371
08/26/2013  14:24:00     -397.868     -104.077      -10.763      263.822      130.253       86.507    69602.262    16965.961     7483.542       13.163        4.703      411.255      121.384        0.087      347.988       27.352      860.364
08/26/2013  14:25:00     -378.456     -168.644       -6.613      206.144      139.029       75.862    42495.401    19329.117     5754.987       11.963        3.379      414.331       77.934        0.035      348.123       27.586      860.379
08/26/2013  14:26:00     -362.752     -128.539       22.232      251.325      163.161       91.020    63164.350    26621.603     8284.553       12.332        4.904      384.852      117.992        0.094      348.227       27.766      860.367
08/26/2013  14:27:00     -429.443     -253.115       -9.478      222.364      221.203       90.168    49445.801    48930.848     8130.328       17.752        5.325      498.486       95.634        0.037      348.035       27.434      860.361
08/26/2013  14:28:00     -444.045     -176.250      -10.686      247.115      200.883       96.985    61065.791    40354.152     9406.064       16.957        5.541      477.745       92.685        0.038      347.981       27.342      860.368
08/26/2013  14:29:00     -311.507     -177.436       -0.278      225.653      168.885       81.882    50919.194    28522.037     6704.718       10.732        4.307      358.497      103.203        0.083      347.957       27.299      860.442
08/26/2013  14:30:00     -123.704      -77.165       -4.956      113.246       87.756       57.398    12824.705     7701.169     3294.478        2.255        1.191      145.799       54.066        0.138      347.903       27.208      860.426
08/26/2013  14:31:00     -192.743     -226.288        9.709      147.657      158.382       71.156    21802.700    25084.931     5063.183        7.019        2.598      297.247       66.154        0.050      347.929       27.251      860.420
08/26/2013  14:32:00      -92.165     -260.773      -14.381      136.021      130.415       62.657    18501.742    17008.084     3925.841        5.806        1.972      276.580       22.757        0.007      347.807       27.040      860.381
08/26/2013  14:33:00     -153.867      -43.945        1.492      118.941       65.926       53.708    14146.855     4346.202     2884.522        2.349        1.069      160.020       39.679        0.061      348.024       27.416      860.385
08/26/2013  14:34:00     -359.566     -125.638      -27.156      109.028      132.705       57.502    11887.181    17610.680     3306.501        8.930        1.640      380.884       55.999        0.022      347.994       27.363      860.389
08/26/2013  14:35:00     -238.142     -108.068       -8.016      166.075      106.649       59.327    27580.920    11374.017     3519.688        5.546        2.124      261.515       71.839        0.075      348.130       27.599      860.402
08/26/2013  14:36:00      -89.674      -62.341       22.281       98.379      103.472       50.590     9678.476    10706.548     2559.350        1.768        1.147      109.215       57.485        0.277      348.430       28.119      860.406
08/26/2013  14:37:00     -152.723      -84.875       13.183      155.989      102.743       57.896    24332.495    10556.024     3351.998        3.446        1.912      174.723       57.792        0.109      348.235       27.782      860.420
08/26/2013  14:38:00     -314.756     -252.273      -25.501      265.212      192.012       74.220    70337.639    36868.662     5508.593       13.802        5.636      403.377       83.878        0.043      347.967       27.316      860.393
08/26/2013  14:39:00     -318.372      -61.800      -11.964      189.268      178.478       82.100    35822.257    31854.570     6740.350        8.985        3.721      324.315       85.445        0.069      348.282       27.860      860.312
08/26/2013  14:40:00     -291.843     -107.902       16.518      193.687      174.664       84.737    37514.816    30507.628     7180.308        8.613        3.760      311.151       82.064        0.070      348.293       27.878      860.298
08/26/2013  14:41:00     -336.694     -208.954      -13.355      219.247      183.508       79.396    48069.101    33675.062     6303.751       12.261        4.402      396.263       90.767        0.052      348.248       27.801      860.327
08/26/2013  14:42:00     -443.354     -302.706      -14.883      197.431      138.835       81.226    38979.066    19275.172     6597.722       17.662        3.243      536.836       90.585        0.028      347.912       27.222      860.316
08/26/2013  14:43:00     -221.756     -132.149       -3.732      198.997      121.377       65.200    39599.719    14732.308     4250.999        6.261        2.929      258.145       69.348        0.072      348.050       27.460      860.303
08/26/2013  14:44:00     -221.569     -201.785       -1.133      161.050      123.687       72.541    25937.172    15298.369     5262.257        6.815        2.325      299.683       69.749        0.054      348.217       27.748      860.293
08/26/2013  14:45:00     -266.050     -203.042       -5.174      243.451      144.741       87.872    59268.453    20949.860     7721.556        9.997        4.397      334.677       82.647        0.061      348.228       27.768      860.277
08/26/2013  14:46:00     -390.176     -262.300      -12.469      195.862      159.719       79.313    38362.047    25510.298     6290.537       14.566        3.508      470.148       75.773        0.026      348.147       27.627      860.287
08/26/2013  14:47:00     -407.795     -246.586        3.003      276.929      245.379      107.558    76689.647    60210.845    11568.682       18.776        7.423      476.551      145.777        0.094      348.110       27.565      860.273
08/26/2013  14:48:00     -373.792     -357.206      -35.857      201.590      231.062      109.024    40638.435    53389.717    11886.146       18.724        5.296      517.027      121.660        0.055      347.973       27.326      860.315
08/26/2013  14:49:00     -490.579     -217.045      -11.832      239.200      209.475      101.949    57216.703    43879.651    10393.684       19.968        5.575      536.448      122.113        0.052      347.915       27.226      860.282
08/26/2013  14:50:00     -424.231     -333.306      -21.646      221.778      166.314      107.376    49185.411    27660.226    11529.533       18.994        4.419      539.504      104.848        0.038      347.836       27.089      860.318
08/26/2013  14:51:00     -315.365     -176.140       -4.268      199.405      154.791       83.981    39762.265    23960.139     7052.764       10.062        3.539      361.220       74.759        0.043      347.922       27.239      860.262
08/26/2013  14:52:00     -282.509      -95.979       -1.065      169.348      169.223       80.042    28678.844    28636.443     6406.751        7.636        3.186      298.368       75.074        0.063      347.901       27.203      860.245
08/26/2013  14:53:00     -389.364     -141.079       14.202      227.167      155.813       87.768    51604.914    24277.664     7703.228       12.763        4.179      414.135      111.957        0.073      348.219       27.752      860.221
08/26/2013  14:54:00     -375.478     -253.732        9.331      226.308      205.079      110.011    51215.518    42057.389    12102.440       15.539        5.269      453.171      121.159        0.071      348.147       27.627      860.298
08/26/2013  14:55:00     -429.105     -303.420       -1.709      232.598      193.252       94.810    54102.054    37346.296     8988.905       18.830        5.022      525.542      106.433        0.041      347.868       27.146      860.295
08/26/2013  14:56:00     -433.116     -138.581        1.829      284.187      165.790      103.306    80762.097    27486.244    10672.199       16.284        5.946      454.747      130.034        0.082      347.940       27.268      860.240
08/26/2013  14:57:00     -416.138     -337.183       -7.022      200.860      166.579      110.569    40344.836    27748.520    12225.404       18.360        4.016      535.596      112.771        0.044      347.958       27.300      860.277
08/26/2013  14:58:00     -308.734     -213.346        1.823      206.845      180.894       87.703    42785.020    32722.542     7691.884       11.200        4.160      375.278      100.473        0.072      347.846       27.109      860.235
08/26/2013  14:59:00     -250.428     -145.461       -5.008      129.595      127.810       70.532    16794.866    16335.503     4974.805        6.099        1.905      289.608       69.828        0.058      348.003       27.380      860.194
08/26/2013  15:00:00     -359.136     -160.030      -12.330      183.852      136.455       77.310    33801.673    18619.899     5976.872       10.656        2.920      393.177       82.245        0.044      348.103       27.550      860.174
08/26/2013  15:01:00     -245.403     -136.140      -14.562      146.751      104.226       61.042    21535.788    10862.966     3726.069        5.754        1.806      280.637       55.304        0.039      348.351       27.979      860.186
08/26/2013  15:02:00     -210.676     -220.113        6.163      142.319      196.224       76.434    20254.759    38504.010     5842.201        7.872        3.230      304.687       76.197        0.063      348.326       27.938      860.190
08/26/2013  15:03:00     -290.190     -226.617      -10.607      160.824      155.733       73.838    25864.516    24252.778     5451.987        9.561        2.778      368.192       69.456        0.036      348.195       27.709      860.182
08/26/2013  15:04:00     -156.349     -181.702        6.497      136.047      167.529       66.924    18508.766    28065.973     4478.774        5.427        2.553      239.709       79.683        0.111      348.340       27.962      860.180
08/26/2013  15:05:00     -249.474     -327.799       -9.721      116.555      184.241       74.741    13585.017    33944.770     5586.212       11.144        2.656      411.934       59.212        0.021      348.275       27.848      860.176
08/26/2013  15:06:00     -247.180     -173.818       -1.981      146.067      115.435       67.049    21335.483    13325.219     4495.629        6.523        1.958      302.177       60.611        0.040      347.827       27.075      860.119
08/26/2013  15:07:00     -257.865     -127.710       -5.577      139.068      130.928       82.043    19339.870    17142.224     6731.092        6.302        2.161      287.757       82.016        0.081      348.036       27.436      860.109
08/26/2013  15:08:00     -254.655      -92.006      -27.930      115.070       91.698       48.775    13241.074     8408.527     2379.013        4.906        1.201      270.766       52.542        0.038      348.107       27.557      860.077
08/26/2013  15:09:00     -365.328      -75.512      -21.624      180.704      149.428       60.322    32653.762    22328.623     3638.727        9.912        2.931      373.051       65.582        0.031      348.085       27.522      860.127
08/26/2013  15:10:00     -462.639     -206.737      -30.331      239.882      158.341      104.229    57543.585    25071.895    10863.676       17.557        4.674      506.730      138.631        0.075      347.988       27.354      860.128
08/26/2013  15:11:00     -313.707      -88.625        1.674      210.347      165.924       77.444    44245.685    27530.823     5997.509        9.201        3.889      325.985       95.504        0.086      348.025       27.416      860.119
08/26/2013  15:12:00     -251.164     -177.887        1.773      142.898      112.161       73.649    20419.732    12580.186     5424.195        6.657        1.921      307.778       83.756        0.074      347.939       27.268      860.122
08/26/2013  15:13:00     -296.365     -216.830       -9.381      185.038      129.868       81.562    34239.182    16865.727     6652.362        9.633        2.888      367.216       71.516        0.038      348.006       27.383      860.115
08/26/2013  15:14:00     -284.920     -191.476      -18.032      186.050      129.887       85.757    34614.736    16870.669     7354.337        8.849        2.942      343.281       92.112        0.072      348.053       27.465      860.112
08/26/2013  15:15:00     -175.623      -30.943        2.697      123.729       88.613       53.891    15308.832     7852.265     2904.199        2.893        1.303      178.328       62.748        0.124      348.079       27.511      860.124
08/26/2013  15:16:00     -255.747     -114.421       -1.297      130.374       92.914       64.394    16997.340     8633.030     4146.651        5.413        1.489      280.176       60.263        0.046      348.226       27.765      860.095
08/26/2013  15:17:00     -257.483     -216.956      -14.708      145.506      100.990       65.921    21172.041    10198.884     4345.623        7.464        1.786      336.701       75.261        0.050      348.035       27.433      860.086
08/26/2013  15:18:00     -342.302      -74.216      -19.195      119.919       83.888       46.132    14380.447     7037.227     2128.186        7.329        1.177      350.255       51.874        0.022      348.012       27.394      860.058
08/26/2013  15:19:00     -339.004     -173.662       -7.535      140.154      148.276       70.599    19643.147    21985.651     4984.230        9.587        2.331      380.896       73.720        0.037      348.005       27.382      860.085
08/26/2013  15:20:00     -210.082     -237.957       13.555      222.905      158.942       84.484    49686.428    25262.612     7137.566        9.150        4.104      317.424       76.432        0.058      348.063       27.481      860.072
08/26/2013  15:21:00     -395.686     -155.502       -5.333      187.353      195.861       89.605    35101.290    38361.488     8029.095       13.112        4.075      425.145       91.506        0.046      348.238       27.785      860.041
08/26/2013  15:22:00     -407.488     -206.528      -10.723      218.784      177.883       91.192    47866.487    31642.501     8315.983       14.830        4.391      456.837      108.151        0.056      348.081       27.514      860.050
08/26/2013  15:23:00     -317.333     -217.788      -17.339      180.526      163.387       70.530    32589.626    26695.336     4974.528       10.633        3.213      384.879       73.070        0.036      348.228       27.766      860.052
08/26/2013  15:24:00     -381.074     -278.259      -18.376      197.710      191.007       89.303    39089.070    36483.510     7974.972       15.325        4.177      471.853       95.386        0.041      348.227       27.764      860.075
08/26/2013  15:25:00     -384.941     -289.431       -9.528      210.647      143.855       91.834    44371.975    20694.365     8433.466       15.276        3.675      481.612       97.100        0.041      348.241       27.789      860.052
08/26/2013  15:26:00     -384.856     -134.939       11.444      229.082      190.548      104.368    52478.506    36308.628    10892.691       13.305        4.984      407.826      117.795        0.083      348.091       27.531      860.063
08/26/2013  15:27:00     -397.087     -247.718      -14.177      211.415      200.340      102.888    44696.118    40136.263    10585.910       15.731        4.771      468.020      110.059        0.055      347.979       27.337      860.071
08/26/2013  15:28:00     -495.006     -318.039      -17.774      181.305      180.040       94.461    32871.670    32414.491     8922.927       21.034        3.710      588.370       92.948        0.025      347.954       27.294      860.066
08/26/2013  15:29:00     -483.369     -125.207      -27.113      244.834      173.214       89.932    59943.786    30002.961     8087.684       17.403        4.902      499.322      110.175        0.049      348.030       27.426      860.031
08/26/2013  15:30:00     -179.214     -123.954       20.363      164.424      140.549       77.840    27035.252    19754.049     6059.085        5.036        2.642      217.905       85.963        0.156      348.311       27.911      860.053
08/26/2013  15:31:00     -224.166     -194.667       -0.578      132.095      137.013       61.118    17448.990    18772.493     3735.352        6.404        1.998      296.893       66.632        0.050      348.230       27.770      860.069
08/26/2013  15:32:00     -168.239     -237.060        1.541      123.533      149.122       65.255    15260.398    22237.433     4258.188        6.312        2.088      290.692       62.833        0.047      348.206       27.729      860.037
08/26/2013  15:33:00     -146.078     -307.236       -3.343      101.386      198.798       50.972    10279.151    39520.727     2598.115        8.406        2.620      340.196       42.587        0.016      348.089       27.529      860.046
08/26/2013  15:34:00     -156.673     -194.295       15.067      118.978      110.943       68.255    14155.824    12308.251     4658.728        4.682        1.556      249.594       67.330        0.073      348.191       27.704      860.027
08/26/2013  15:35:00     -182.262     -244.258        8.725      169.237      142.300       69.860    28641.164    20249.170     4880.435        7.335        2.689      304.764       83.237        0.075      348.122       27.585      859.995
08/26/2013  15:36:00     -263.797     -157.077       -5.541      108.822       87.574       57.869    11842.316     7669.287     3348.799        5.857        1.143      307.021       50.490        0.027      348.392       28.051      859.963
08/26/2013  15:37:00     -283.283      -74.442       -9.595      124.003      102.458       54.628    15376.646    10497.587     2984.179        5.736        1.443      292.901       57.300        0.038      348.312       27.912      859.964
08/26/2013  15:38:00     -364.709     -106.875      -22.006      167.673      116.711       84.485    28114.098    13621.565     7137.780        9.689        2.444      380.046       84.248        0.049      348.244       27.794      859.953
08/26/2013  15:39:00     -328.342     -201.109      -16.485      145.864      154.250       81.445    21276.298    23793.065     6633.298       10.010        2.585      385.037       68.510        0.032      348.228       27.767      859.995
08/26/2013  15:40:00     -347.493     -320.740        1.714      201.228      160.649       93.563    40492.796    25808.089     8754.093       14.933        3.753      472.890      104.380        0.049      348.111       27.565      859.990
08/26/2013  15:41:00     -387.482     -212.230      -19.836      144.439      128.347       64.101    20862.727    16472.889     4108.894       11.850        2.072      441.796       73.126        0.027      348.068       27.491      859.963
08/26/2013  15:42:00     -428.768     -161.518      -13.935      218.289      150.265       87.267    47649.965    22579.636     7615.512       14.397        3.892      458.181      106.483        0.054      348.199       27.718      859.924
08/26/2013  15:43:00     -277.884     -268.308      -12.657      162.746      163.349       73.135    26486.396    26682.779     5348.663       10.393        2.926      386.276       73.429        0.036      348.113       27.568      859.962
08/26/2013  15:44:00     -197.316     -178.292        4.612      161.506      132.402       64.939    26084.215    17530.246     4217.054        5.928        2.392      265.935       72.326        0.074      348.363       28.000      859.931
08/26/2013  15:45:00     -409.719     -308.264       -7.421      205.766      176.475      102.192    42339.470    31143.412    10443.169       17.342        4.196      512.734      106.695        0.043      348.221       27.756      859.944
08/26/2013  15:46:00     -457.017     -316.222       -3.360      253.463      191.708       91.421    64243.577    36751.804     8357.847       20.909        5.468      555.753      111.698        0.040      348.133       27.603      859.971
08/26/2013  15:47:00     -405.327     -307.529      -12.814      224.175      169.892      100.311    50254.329    28863.255    10062.381       17.409        4.459      508.787      111.727        0.048      348.192       27.707      859.993
08/26/2013  15:48:00     -451.690     -272.371      -13.078      188.724      123.544       90.095    35616.912    15263.111     8117.078       16.868        2.950      527.456       87.378        0.027      348.104       27.552      860.026
08/26/2013  15:49:00     -353.236     -275.437        3.525      189.376      156.297       83.476    35863.152    24428.738     6968.198       13.394        3.363      447.930       93.056        0.043      348.030       27.426      860.074
08/26/2013  15:50:00     -175.917     -184.718       -5.814      112.028      117.206       57.131    12550.173    13737.234     3263.964        4.732        1.478      255.084       52.305        0.042      348.137       27.611      860.025
08/26/2013  15:51:00     -134.402     -119.870       -0.630      122.247      113.808       54.137    14944.349    12952.336     2930.764        3.162        1.541      180.091       44.899        0.062      348.131       27.603      860.002
08/26/2013  15:52:00      -30.018      -68.721       28.602       64.627       93.977       47.797     4176.615     8831.668     2284.587        1.086        0.765       74.991       45.115        0.362      348.145       27.627      859.956
08/26/2013  15:53:00     -148.880      -44.206        0.416       73.913       69.935       36.984     5463.108     4890.873     1367.840        1.792        0.586      155.305       37.974        0.060      348.335       27.953      859.950
08/26/2013  15:54:00     -341.346      -74.562       -3.779      139.341      106.221       57.900    19416.017    11282.891     3352.428        7.806        1.703      349.394       61.896        0.031      348.194       27.709      859.949
08/26/2013  15:55:00     -277.046      -58.939       -4.415      119.574      124.961       50.199    14297.989    15615.350     2519.903        5.633        1.622      283.245       56.569        0.040      348.299       27.889      859.925
08/26/2013  15:56:00     -356.738      -47.878      -16.876      135.435      114.262       60.957    18342.630    13055.760     3715.747        8.247        1.756      359.936       61.140        0.029      348.229       27.769      859.922
08/26/2013  15:57:00     -522.558       34.232      -35.567      168.381      172.292       71.931    28352.206    29684.395     5174.003       16.934        3.161      523.678       76.208        0.021      348.073       27.499      859.881
08/26/2013  15:58:00     -331.449      -29.322      -24.480      139.819      114.086       50.771    19549.440    13015.666     2577.653        7.322        1.757      332.744       58.543        0.031      348.136       27.610      859.848
08/26/2013  15:59:00     -292.682      -74.760       -1.800      122.720       74.808       53.748    15060.126     5596.167     2888.868        5.740        1.177      302.079       58.545        0.038      348.391       28.049      859.866
08/26/2013  16:00:00     -225.349     -107.250        0.601      159.657      126.191       79.722    25490.478    15924.058     6355.549        5.502        2.389      249.569       85.820        0.118      348.491       28.223      859.828
08/26/2013  16:01:00     -383.596       43.643      -26.129      168.826      146.523       67.829    28502.253    21469.028     4600.827       10.214        2.729      386.071       76.793        0.040      348.277       27.850      859.783
08/26/2013  16:02:00     -213.405      -20.647       -6.194      162.804      127.515       64.079    26505.204    16260.115     4106.100        4.643        2.344      214.401       74.831        0.122      348.465       28.179      859.822
08/26/2013  16:03:00     -157.895      -53.435       12.992      120.138       84.737       51.247    14433.198     7180.436     2626.235        2.609        1.212      166.691       60.723        0.133      348.697       28.581      859.843
08/26/2013  16:04:00     -262.552     -157.829       -7.843      172.430      144.583       76.760    29732.253    20904.178     5892.164        7.521        2.826      306.339       89.356        0.085      348.546       28.320      859.841
08/26/2013  16:05:00     -330.036     -230.623       -6.386      208.776      138.455       75.938    43587.531    19169.699     5766.617       11.532        3.426      402.630       89.560        0.049      348.212       27.739      859.833
08/26/2013  16:06:00     -262.833     -142.329       -3.226      142.633      107.390       64.448    20344.299    11532.661     4153.589        6.268        1.802      298.896       68.115        0.052      348.304       27.899      859.809
08/26/2013  16:07:00     -319.535     -151.569       -1.594      139.126      107.662       65.718    19356.165    11591.059     4318.885        8.017        1.763      353.660       77.086        0.048      348.417       28.094      859.791
08/26/2013  16:08:00     -320.349      -77.313       -4.904      136.432      122.544       62.383    18613.595    15016.922     3891.584        7.307        1.876      329.547       51.731        0.025      348.389       28.046      859.802
08/26/2013  16:09:00     -422.440     -106.188      -13.905      202.860      182.661       80.179    41151.987    33364.879     6428.593       13.542        4.047      435.582       92.295        0.045      348.265       27.832      859.780
08/26/2013  16:10:00     -248.169      -71.249       -5.762      130.109      123.080       70.287    16928.318    15148.656     4940.251        5.185        1.851      258.195       55.673        0.046      348.422       28.104      859.771
08/26/2013  16:11:00     -133.282       30.729       10.192      147.972      116.311       59.636    21895.737    13528.262     3556.502        2.889        1.949      136.778       76.256        0.311      348.322       27.931      859.763
08/26/2013  16:12:00     -257.332        5.787      -29.088      194.232      140.508       68.276    37726.108    19742.450     4661.546        6.460        3.107      257.397       65.619        0.065      348.243       27.793      859.743
08/26/2013  16:13:00     -333.029      -54.319      -27.803      138.987      114.581       64.594    19317.350    13128.875     4172.441        7.562        1.831      337.430       65.678        0.038      348.199       27.718      859.734
08/26/2013  16:14:00     -353.211      -53.083      -30.987      129.218      102.553       65.063    16697.296    10517.126     4233.252        7.999        1.572      357.177       58.167        0.027      348.252       27.809      859.723
08/26/2013  16:15:00     -305.091     -185.293      -28.196      122.088      142.285       65.189    14905.419    20245.027     4249.656        8.380        1.970      356.951       34.775        0.009      348.291       27.877      859.728
08/26/2013  16:16:00     -472.977      -76.264       -3.364      326.218      159.259       97.256   106418.451    25363.281     9458.692       18.536        7.062      479.086      129.511        0.073      348.253       27.811      859.699
08/26/2013  16:17:00     -348.527     -179.318       13.963      222.216      169.339      100.649    49379.975    28675.565    10130.201       12.099        4.409      391.952      112.373        0.082      348.198       27.718      859.752
08/26/2013  16:18:00     -302.327     -229.301       -7.735      164.973      161.136       77.607    27216.246    25964.661     6022.889       10.161        2.960      379.448       80.444        0.045      348.079       27.510      859.754
08/26/2013  16:19:00     -245.311      -74.702       -6.728      127.287      113.043       58.778    16202.016    12778.712     3454.857        4.911        1.622      256.433       68.619        0.072      348.190       27.701      859.735
08/26/2013  16:20:00     -339.319      -85.034      -23.405      169.071      117.213       77.357    28584.872    13738.889     5984.099        8.560        2.415      349.811       85.542        0.060      348.169       27.666      859.736
08/26/2013  16:21:00     -478.553      -85.810      -45.592      171.639      159.607       73.475    29459.787    25474.539     5398.623       14.938        3.017      486.186       71.083        0.021      348.268       27.836      859.709
08/26/2013  16:22:00     -462.937      -33.476      -15.381      231.681      194.072      107.514    53675.976    37664.078    11559.157       15.926        5.145      464.145      128.431        0.077      348.278       27.855      859.683
08/26/2013  16:23:00     -535.486      -74.346      -17.424      284.302      176.527       97.459    80827.905    31161.768     9498.330       20.701        6.074      540.622      126.228        0.055      348.142       27.619      859.724
08/26/2013  16:24:00     -376.700     -189.892      -19.567      157.055      167.646       73.359    24666.390    28105.320     5381.569       11.824        2.908      421.855       72.126        0.029      348.153       27.637      859.752
08/26/2013  16:25:00     -428.550      -53.964       -4.527      229.822      157.207       83.278    52818.241    24713.954     6935.238       13.551        4.223      431.934       94.758        0.048      348.137       27.610      859.741
08/26/2013  16:26:00     -466.097     -114.333      -16.696      189.475      142.423       82.803    35900.862    20284.200     6856.395       14.681        3.152      479.915       80.973        0.028      348.041       27.445      859.773
08/26/2013  16:27:00     -336.128       22.085      -18.510      161.522      156.320       82.528    26089.486    24435.907     6810.878        8.556        2.867      336.853       83.482        0.061      348.155       27.641      859.765
08/26/2013  16:28:00     -207.116      -43.179       -4.147      148.912       85.446       54.321    22174.813     7301.073     2950.762        3.860        1.621      211.569       69.561        0.108      348.423       28.105      859.759
08/26/2013  16:29:00     -374.108      -50.441      -29.891      135.689      101.128       65.423    18411.400    10226.811     4280.234        8.815        1.646      377.494       66.729        0.031      348.219       27.753      859.744
08/26/2013  16:30:00     -442.225     -163.163       -0.090      146.031       98.838       70.821    21325.088     9769.044     5015.577       12.914        1.805      471.366       62.912        0.018      348.132       27.600      859.729
08/26/2013  16:31:00     -241.060      -80.149        5.165      171.414       96.561       69.080    29382.749     9324.061     4772.055        5.401        2.174      254.035       73.037        0.083      348.239       27.786      859.729
08/26/2013  16:32:00     -362.163      -25.257      -12.827      200.954      119.433       83.904    40382.647    14264.358     7039.916        9.681        3.084      363.043       95.802        0.070      348.301       27.894      859.724
08/26/2013  16:33:00     -476.467     -150.923      -32.515      167.556      155.434       76.851    28075.025    24159.632     5906.101       15.449        2.907      499.799       80.221        0.026      348.123       27.585      859.682
08/26/2013  16:34:00     -545.231     -128.522      -38.767      198.055      184.997       88.080    39225.673    34223.814     7758.086       19.824        4.060      560.174       92.769        0.027      348.076       27.504      859.674
08/26/2013  16:35:00     -442.155       38.238      -43.918      182.868      123.994       59.203    33440.791    15374.617     3505.052       12.560        2.616      443.805       67.169        0.023      348.102       27.548      859.685
08/26/2013  16:36:00     -294.034       14.458      -15.220      152.084      145.758       65.812    23129.442    21245.357     4331.278        6.779        2.435      294.389       71.275        0.059      348.250       27.804      859.697
08/26/2013  16:37:00     -423.175      -74.030      -21.687      147.355      134.556       61.868    21713.519    18105.246     3827.658       11.433        2.182      429.602       65.004        0.023      348.237       27.783      859.670
08/26/2013  16:38:00     -219.418      -62.382       -9.056      203.681      103.725       59.698    41485.791    10758.967     3563.807        5.395        2.790      228.114       82.410        0.131      348.226       27.764      859.671
08/26/2013  16:39:00     -417.039       59.557      -44.167      127.980      147.430       64.421    16378.990    21735.612     4150.028       11.083        2.113      421.270       62.001        0.022      348.229       27.769      859.620
08/26/2013  16:40:00     -368.758       31.846      -33.294      148.725      144.295       69.156    22118.979    20821.127     4782.609        9.290        2.386      370.130       58.310        0.025      348.275       27.849      859.583
08/26/2013  16:41:00     -218.350     -108.621       -9.592      193.170      127.730       70.353    37314.495    16314.945     4949.513        5.906        2.929      243.875       87.329        0.128      348.467       28.183      859.638
08/26/2013  16:42:00     -229.182     -111.909       38.251      236.996      182.760      100.447    56167.334    33401.387    10089.698        8.306        4.983      255.045      115.156        0.204      348.287       27.869      859.664
08/26/2013  16:43:00     -337.931     -272.671        2.139      247.450      179.786       96.495    61231.673    32323.162     9311.247       14.569        5.143      434.220      113.249        0.068      348.064       27.484      859.649
08/26/2013  16:44:00     -353.956     -249.148       -0.437      265.299      186.694      106.201    70383.634    34854.530    11278.700       15.191        5.826      432.850      138.768        0.103      348.075       27.501      859.647
08/26/2013  16:45:00     -333.167     -163.462       -1.555      168.836      139.697       75.340    28505.616    19515.233     5676.127        9.570        2.685      371.106       76.233        0.042      348.102       27.551      859.602
08/26/2013  16:46:00     -396.347     -227.297      -27.589      159.636      148.381       83.329    25483.784    22016.785     6943.641       13.197        2.722      456.897       87.719        0.037      348.059       27.474      859.626
08/26/2013  16:47:00     -410.637     -120.898      -10.510      229.900      194.952      100.561    52854.211    38006.322    10112.432       14.214        5.049      428.065      119.888        0.078      348.183       27.691      859.587
08/26/2013  16:48:00     -200.199     -205.994      -20.427      136.320      139.268       66.878    18583.164    19395.605     4472.722        6.268        2.123      287.251       77.178        0.072      347.993       27.361      859.636
08/26/2013  16:49:00     -394.676     -101.339      -17.299      224.850      123.013       67.376    50557.306    15132.236     4539.533       11.827        3.511      407.478       75.356        0.034      348.186       27.694      859.615
08/26/2013  16:50:00     -553.817      -86.637      -45.315      181.056      149.623       66.437    32781.286    22387.107     4413.893       18.792        2.979      560.553       64.524        0.013      348.145       27.624      859.547
08/26/2013  16:51:00     -519.654      -30.699      -23.746      210.674      172.386       91.894    44383.689    29716.820     8444.486       17.703        4.127      520.560      105.465        0.041      348.190       27.701      859.565
08/26/2013  16:52:00     -192.440     -113.391       21.085      174.146      127.843       77.102    30326.790    16343.743     5944.736        5.146        2.631      223.362       87.776        0.154      348.343       27.967      859.601
08/26/2013  16:53:00     -262.189      -95.401        8.002      159.956      142.451       72.424    25585.772    20292.300     5245.176        6.451        2.556      279.007       73.154        0.069      348.384       28.037      859.638
08/26/2013  16:54:00     -124.085      -96.664        7.859      113.923      125.884       66.004    12978.390    15846.683     4356.533        2.899        1.659      157.293       64.546        0.168      348.373       28.020      859.626
08/26/2013  16:55:00     -202.580     -184.048      -15.279      145.603       97.290       72.540    21200.355     9465.299     5262.097        5.553        1.796      273.701       83.296        0.093      348.331       27.945      859.610
08/26/2013  16:56:00     -244.314     -147.744       -2.527      183.616      116.296       77.261    33714.813    13524.671     5969.302        6.736        2.660      285.513       82.577        0.084      348.230       27.772      859.634
08/26/2013  16:57:00     -194.769     -122.181        6.566      182.255      124.847       82.702    33217.035    15586.894     6839.651        5.426        2.782      229.920       87.865        0.146      348.262       27.826      859.593
08/26/2013  16:58:00     -250.046     -130.334       12.271      198.799      108.849       73.510    39521.150    11848.186     5403.720        6.821        2.839      281.975       72.134        0.065      348.250       27.806      859.618
08/26/2013  16:59:00      -88.106      -32.652       16.414      113.861       84.268       62.979    12964.337     7101.111     3966.381        1.656        1.202       93.962       59.616        0.403      348.353       27.985      859.605
08/26/2013  17:00:00     -260.370     -164.092       -3.536      213.616      153.726       83.997    45631.997    23631.696     7055.486        8.551        3.816      307.764      100.920        0.108      348.317       27.922      859.630
08/26/2013  17:01:00     -461.804     -180.234       -8.718      202.080      141.593       83.159    40836.520    20048.568     6915.350       15.680        3.390      495.729       98.168        0.039      348.108       27.559      859.598
08/26/2013  17:02:00     -341.498     -187.191      -11.176      196.426      154.572       74.203    38583.106    23892.476     5506.136       10.987        3.399      389.437       84.415        0.047      348.194       27.710      859.626
08/26/2013  17:03:00     -386.042     -226.968      -21.371      198.317      121.154       78.636    39329.555    14678.268     6183.669       13.058        3.010      447.820       89.746        0.040      348.162       27.654      859.598
08/26/2013  17:04:00     -270.199     -130.995       -9.352      165.792       97.335       63.892    27486.918     9474.074     4082.153        6.564        2.052      300.278       75.721        0.064      348.233       27.775      859.603
08/26/2013  17:05:00     -267.867      -61.536        1.253      180.364      178.245       82.251    32531.023    31771.449     6765.238        7.329        3.553      274.844       82.600        0.090      348.245       27.798      859.575
08/26/2013  17:06:00     -305.501      -83.779        8.099      202.232      139.143       95.749    40897.800    19360.899     9167.785        8.491        3.471      316.781       91.808        0.084      348.196       27.712      859.594
08/26/2013  17:07:00     -466.499     -151.167      -31.243      193.998      138.119       93.074    37635.313    19076.821     8662.737       15.340        3.269      490.380      107.247        0.048      348.065       27.486      859.565
08/26/2013  17:08:00     -257.355     -113.225       20.390      265.781      152.187       88.730    70639.592    23160.769     7873.063        9.055        5.084      281.161      115.256        0.168      348.131       27.601      859.541
08/26/2013  17:09:00     -393.003       48.259      -35.597      167.008      139.328       79.449    27891.782    19412.320     6312.207       10.582        2.681      395.955       84.104        0.045      348.114       27.568      859.519
08/26/2013  17:10:00     -345.718     -174.916       -6.425      125.922      110.066       51.967    15856.257    12114.488     2700.552        9.041        1.534      387.449       55.386        0.020      348.181       27.686      859.521
08/26/2013  17:11:00     -346.711     -185.726       -0.220      170.223      124.065       88.314    28976.027    15392.118     7799.288       10.342        2.608      393.323       95.079        0.058      348.156       27.642      859.560
08/26/2013  17:12:00     -346.969     -135.060        5.282      204.816      130.992       85.999    41949.463    17158.890     7395.891       10.257        3.325      372.329      101.148        0.074      348.060       27.478      859.541
08/26/2013  17:13:00     -355.552     -160.730      -16.263      153.246       98.128       61.403    23484.268     9629.101     3770.335        9.469        1.844      390.193       60.483        0.024      347.952       27.291      859.553
08/26/2013  17:14:00     -208.405     -124.053        6.064      163.528      113.790       64.113    26741.439    12948.187     4110.446        5.132        2.190      242.532       79.395        0.107      348.205       27.729      859.551
08/26/2013  17:15:00     -184.343        4.654        0.032      176.746      108.142       62.886    31239.210    11694.652     3954.593        4.044        2.344      184.401       73.215        0.158      348.320       27.929      859.543
08/26/2013  17:16:00     -196.739       -9.534       -6.174      127.871       95.380       45.264    16351.060     9097.432     2048.793        3.316        1.375      196.970       47.490        0.058      348.323       27.933      859.527
08/26/2013  17:17:00     -233.952      -74.736       -1.817      168.948      103.763       47.875    28543.296    10766.833     2292.013        5.095        2.080      245.600       50.753        0.043      348.447       28.147      859.535
08/26/2013  17:18:00     -298.147      -96.899       -5.543      118.757      109.970       64.819    14103.252    12093.506     4201.463        6.435        1.520      313.498       56.142        0.032      348.426       28.110      859.549
08/26/2013  17:19:00     -309.125      -73.054       -2.504      212.258      165.810       85.621    45053.297    27492.933     7330.926        9.037        3.994      317.640      103.241        0.106      348.241       27.790      859.530
08/26/2013  17:20:00     -305.088     -168.802       16.257      229.624      153.265      109.210    52727.173    23490.116    11926.769       10.497        4.407      348.673      124.733        0.128      348.138       27.612      859.526
08/26/2013  17:21:00     -308.624     -147.602      -12.516      204.589      154.098       89.910    41856.802    23746.165     8083.823        9.542        3.684      342.104      110.696        0.105      348.131       27.601      859.528
08/26/2013  17:22:00     -339.451      -40.853      -20.500      185.820      139.231       72.093    34528.914    19385.290     5197.343        8.820        2.956      341.900       81.532        0.057      348.211       27.737      859.519
08/26/2013  17:23:00     -450.514     -140.466      -38.889      168.711      125.136       77.175    28463.488    15658.972     5956.006       13.713        2.504      471.904       91.123        0.037      348.050       27.460      859.515
08/26/2013  17:24:00     -338.348      -15.739       -8.292      174.914      143.723       71.772    30594.842    20656.202     5151.168        8.559        2.820      338.714       55.810        0.027      348.186       27.695      859.492
08/26/2013  17:25:00     -467.506     -117.160      -22.041      210.031      154.478       92.025    44112.931    23863.568     8468.516       15.459        3.822      481.963      116.581        0.059      348.101       27.547      859.478
08/26/2013  17:26:00     -398.363     -225.206      -33.908      187.847      211.320      105.266    35286.599    44656.159    11080.896       15.077        4.551      457.614      110.454        0.058      348.095       27.536      859.507
08/26/2013  17:27:00     -393.676     -253.582      -13.100      207.070      155.385       97.083    42877.983    24144.563     9425.129       14.794        3.822      468.279       99.611        0.045      347.908       27.215      859.485
08/26/2013  17:28:00     -396.735     -151.257      -13.792      196.625      182.754       69.077    38661.351    33398.915     4771.673       12.863        3.842      424.591       71.787        0.029      347.970       27.323      859.486
08/26/2013  17:29:00     -401.547      -81.276      -16.857      200.475      157.118       74.911    40190.229    24686.131     5611.680       11.930        3.524      409.690       86.316        0.044      348.093       27.535      859.511
08/26/2013  17:30:00     -423.267      -51.394      -36.252      211.827      189.265       96.859    44870.651    35821.421     9381.596       13.657        4.504      426.376       93.627        0.048      347.908       27.214      859.517
08/26/2013  17:31:00     -395.408      -57.577      -11.669      227.159      134.558       80.048    51601.027    18105.792     6407.633       11.794        3.806      399.578      101.672        0.065      348.005       27.382      859.518
08/26/2013  17:32:00     -587.006      -71.174      -37.439      224.767      173.345       85.089    50520.300    30048.448     7240.094       21.941        4.390      591.305       97.544        0.027      347.898       27.196      859.530
08/26/2013  17:33:00     -431.531     -184.388      -17.741      181.598      165.532       79.311    32977.830    27400.745     6290.312       14.359        3.333      469.274       76.143        0.026      347.876       27.159      859.508
08/26/2013  17:34:00     -321.825      -54.081      -16.863      134.475      108.598       60.911    18083.557    11793.478     3710.183        7.018        1.679      326.338       64.333        0.039      348.050       27.459      859.516
08/26/2013  17:35:00     -352.520     -110.863      -20.547      164.292      103.658       69.080    26991.977    10744.917     4771.988        8.974        2.125      369.541       59.997        0.026      348.037       27.438      859.543
08/26/2013  17:36:00     -408.223      -87.571       -5.002      200.246      124.374       77.895    40098.350    15468.783     6067.644       11.797        3.082      417.510       94.586        0.051      347.877       27.161      859.531
08/26/2013  17:37:00     -346.129      -89.218      -10.063      174.054      154.422       75.522    30294.876    23846.295     5703.605        9.384        2.992      357.442       80.620        0.051      347.939       27.268      859.497
08/26/2013  17:38:00     -534.059     -146.650      -37.902      216.292      174.314       78.840    46782.393    30385.213     6215.721       19.576        4.169      553.828       83.843        0.023      347.833       27.086      859.465
08/26/2013  17:39:00     -562.056     -168.794      -14.675      189.455      161.848       89.830    35893.309    26194.846     8069.389       20.737        3.508      586.855       90.831        0.024      347.831       27.081      859.442
08/26/2013  17:40:00     -612.202     -133.565      -30.799      220.179      207.940      107.000    48478.681    43239.017    11448.991       24.835        5.158      626.603      107.297        0.029      347.787       27.004      859.476
08/26/2013  17:41:00     -352.518     -104.485       -6.010      205.291      163.211       97.859    42144.534    26637.725     9576.377       10.677        3.918      367.677      106.105        0.083      347.806       27.039      859.497
08/26/2013  17:42:00     -271.133      -26.455      -13.620      160.283      121.593       69.663    25690.526    14784.831     4852.914        5.985        2.266      272.421       62.080        0.052      347.872       27.151      859.479
08/26/2013  17:43:00     -256.614      -98.397        5.974      158.932      153.205       79.769    25259.431    23471.835     6363.151        6.532        2.755      274.832       80.983        0.087      347.872       27.152      859.523
08/26/2013  17:44:00     -291.060     -218.238        6.470      274.722      153.142      100.815    75472.334    23452.388    10163.740       12.072        5.454      363.791      128.974        0.126      347.827       27.076      859.532
08/26/2013  17:45:00     -255.778     -120.363      -12.965      134.589      143.834       60.832    18114.168    20688.363     3700.522        6.128        2.125      282.683       59.397        0.044      347.847       27.108      859.541
08/26/2013  17:46:00     -597.658     -106.854      -27.417      222.181      200.114       82.512    49364.241    40045.591     6808.266       23.277        4.811      607.135       92.368        0.023      347.770       26.975      859.566
08/26/2013  17:47:00     -248.281      -20.964       12.794      188.846      140.639       77.460    35662.828    19779.294     6000.000        6.183        3.072      249.164       77.641        0.097      347.821       27.064      859.577
08/26/2013  17:48:00     -236.587       -2.144       16.510      176.726      134.008       82.026    31232.037    17958.021     6728.195        5.607        2.796      236.596       85.962        0.132      347.826       27.074      859.589
08/26/2013  17:49:00     -290.486     -103.446        8.686      241.909      203.747       92.784    58520.168    41512.845     8608.913       10.188        5.432      308.356      122.014        0.157      347.728       26.904      859.585
08/26/2013  17:50:00     -268.210      -46.240        3.173      121.699      104.082       67.554    14810.726    10833.056     4563.501        5.214        1.510      272.167       67.322        0.061      347.785       27.001      859.593
08/26/2013  17:51:00     -382.841     -101.045      -21.380      130.393      122.069       69.107    17002.221    14900.850     4775.809        9.695        1.834      395.952       61.938        0.024      347.719       26.888      859.601
08/26/2013  17:52:00     -401.314      -44.146      -17.544      226.151      185.068       82.807    51144.419    34250.321     6857.026       12.776        4.613      403.735       87.586        0.047      347.675       26.812      859.592
08/26/2013  17:53:00     -306.629     -125.478        6.494      184.442      148.360       85.426    34018.833    22010.836     7297.534        8.655        3.166      331.309       95.626        0.083      347.652       26.772      859.578
08/26/2013  17:54:00     -238.447      -43.410        6.999      138.827      145.857       69.699    19272.891    21274.407     4857.937        5.209        2.270      242.366       56.461        0.054      347.724       26.898      859.615
08/26/2013  17:55:00     -206.295     -100.892       13.486      139.925      127.082       64.843    19578.990    16149.877     4204.555        4.642        1.997      229.645       73.861        0.103      347.712       26.876      859.618
08/26/2013  17:56:00     -181.736        8.992       14.008      175.205      102.368       68.509    30696.670    10479.124     4693.543        3.958        2.293      181.958       84.887        0.218      347.633       26.741      859.623
08/26/2013  17:57:00     -393.103      -12.667      -13.984      235.168      167.097       79.092    55303.917    27921.282     6255.509       12.217        4.474      393.307       83.372        0.045      347.654       26.776      859.638
08/26/2013  17:58:00     -510.921     -134.878      -25.729      238.876      203.520      107.326    57061.837    41420.314    11518.948       19.493        5.500      528.424      114.058        0.047      347.579       26.646      859.618
08/26/2013  17:59:00     -496.927     -187.324       -7.930      234.972      189.299      104.704    55211.654    35833.995    10962.830       19.203        5.100      531.062      119.187        0.050      347.566       26.625      859.649
08/26/2013  18:00:00     -252.450     -136.944       -3.591      203.408      157.890       98.971    41374.754    24929.296     9795.324        7.928        3.805      287.202      106.939        0.139      347.568       26.627      859.647
08/26/2013  18:01:00     -268.679     -102.879      -20.712      158.904      104.073       61.666    25250.448    10831.206     3802.733        6.153        1.994      287.703       72.141        0.063      347.633       26.741      859.679
08/26/2013  18:02:00     -187.075     -120.860        4.347      143.825      116.016       74.705    20685.676    13459.709     5580.763        4.467        1.986      222.720       75.749        0.116      347.638       26.749      859.715
08/26/2013  18:03:00     -283.404     -158.382       -7.380      230.401      153.020       71.844    53084.393    23415.166     5161.520        9.354        4.083      324.658       90.098        0.077      347.597       26.678      859.725
08/26/2013  18:04:00     -268.924     -184.221        1.711      188.826      176.317       86.225    35655.324    31087.746     7434.803        9.020        3.709      325.971       92.172        0.080      347.621       26.720      859.730
08/26/2013  18:05:00     -329.575     -125.450       -0.531      192.420      124.739       71.851    37025.499    15559.892     5162.512        9.104        2.887      352.643       90.107        0.065      347.604       26.691      859.725
08/26/2013  18:06:00     -181.479      -96.752        5.467      121.090      110.685       70.751    14662.863    12251.232     5005.707        3.712        1.596      205.659       72.128        0.123      347.627       26.731      859.725
08/26/2013  18:07:00     -296.805      -52.534       -6.068      197.145      101.707       74.082    38866.164    10344.267     5488.124        7.278        2.735      301.418       93.165        0.096      347.610       26.702      859.718
08/26/2013  18:08:00     -318.143     -139.695      -24.457      178.938      136.093       77.502    32018.975    18521.186     6006.562        8.893        2.827      347.462       67.389        0.038      347.568       26.629      859.706
08/26/2013  18:09:00     -305.566     -115.364      -10.159      148.613      126.377       61.040    22085.753    15971.192     3725.891        7.427        2.089      326.618       61.130        0.035      347.590       26.668      859.683
08/26/2013  18:10:00     -189.039      -41.537       19.410      171.223      123.513       77.556    29317.387    15255.583     6014.964        4.420        2.529      193.549       87.830        0.206      347.532       26.567      859.664
08/26/2013  18:11:00     -336.064        5.688      -13.459      184.283      101.643       63.083    33960.394    10331.319     3979.408        8.070        2.414      336.112       66.930        0.040      347.550       26.598      859.649
08/26/2013  18:12:00     -470.012     -124.532      -17.754      152.907      140.754       78.241    23380.436    19811.567     6121.652       14.301        2.466      486.230       74.686        0.024      347.509       26.525      859.650
08/26/2013  18:13:00     -464.333     -142.366       -8.515      148.368      106.535       63.005    22013.131    11349.639     3969.594       13.663        1.867      485.668       62.472        0.017      347.506       26.521      859.640
08/26/2013  18:14:00     -304.792      -27.309      -24.836      122.986       87.405       49.486    15125.516     7639.693     2448.826        5.973        1.261      306.013       61.253        0.040      347.547       26.593      859.658
08/26/2013  18:15:00     -330.045      -99.416      -18.991      152.304      116.223       64.102    23196.562    13507.738     4109.054        7.999        2.041      344.693       70.615        0.042      347.529       26.560      859.665
08/26/2013  18:16:00     -216.475     -151.139      -11.511       86.821       68.216       51.026     7537.900     4653.450     2603.654        4.231        0.740      264.016       39.632        0.023      347.537       26.575      859.669
08/26/2013  18:17:00     -127.961      -92.297       14.244      129.843       96.581       51.224    16859.328     9327.978     2623.914        2.695        1.441      157.774       51.670        0.107      347.501       26.514      859.680
08/26/2013  18:18:00     -424.644      -42.048      -24.271      154.725      201.543       75.042    23939.860    40619.500     5631.264       12.642        3.510      426.721       62.915        0.022      347.467       26.452      859.677
08/26/2013  18:19:00     -317.804      -82.419       -6.798      109.847      123.971       71.148    12066.456    15368.711     5062.039        7.016        1.625      328.318       51.076        0.024      347.449       26.421      859.665
08/26/2013  18:20:00     -217.593      -62.937       -0.553      195.362      160.841       73.322    38166.186    25869.922     5376.139        6.035        3.471      226.512       89.010        0.154      347.439       26.407      859.667
08/26/2013  18:21:00     -350.651     -163.118       -7.324      138.893      177.464       74.390    19291.284    31493.405     5533.879       10.296        2.816      386.734       72.749        0.035      347.388       26.318      859.659
08/26/2013  18:22:00     -374.856     -127.014      -30.444      204.321      179.098       87.051    41747.156    32075.927     7577.868       11.947        4.070      395.789       97.210        0.060      347.383       26.311      859.644
08/26/2013  18:23:00     -391.295      -85.222       -9.896      188.766      123.787       82.456    35632.628    15323.138     6799.043       10.910        2.888      400.468       83.268        0.043      347.375       26.295      859.640
08/26/2013  18:24:00     -342.494      -46.102      -22.365      199.220      128.524       70.222    39688.676    16518.396     4931.149        9.052        3.057      345.583       91.393        0.070      347.379       26.302      859.640
08/26/2013  18:25:00     -343.725      -62.061      -17.580      178.414      121.152       73.167    31831.404    14677.826     5353.348        8.707        2.593      349.283       86.308        0.061      347.380       26.304      859.661
08/26/2013  18:26:00     -291.753      -66.917        4.331      149.096      109.922       54.890    22229.749    12082.789     3012.879        6.346        1.866      299.329       64.992        0.047      347.392       26.326      859.657
08/26/2013  18:27:00     -358.224     -100.637       -5.421      176.385      159.676       54.540    31111.715    25496.459     2974.647        9.902        2.979      372.092       64.936        0.030      347.403       26.343      859.671
08/26/2013  18:28:00     -282.978      -85.387      -12.983      144.786      109.200       68.896    20963.056    11924.560     4746.641        6.258        1.882      295.580       76.526        0.067      347.404       26.344      859.689
08/26/2013  18:29:00     -275.656     -167.802       25.503      181.403      164.329      102.119    32907.027    27004.098    10428.310        8.755        3.517      322.713      102.906        0.102      347.340       26.236      859.668
08/26/2013  18:30:00     -352.661     -137.735      -23.735      182.473      130.050       68.288    33296.511    16912.875     4663.275        9.938        2.744      378.604       88.211        0.054      347.307       26.177      859.687
08/26/2013  18:31:00     -265.015      -91.401      -10.077      116.143      138.578       64.473    13489.236    19203.857     4156.705        5.776        1.842      280.334       55.736        0.040      347.321       26.201      859.686
08/26/2013  18:32:00     -331.444      -90.059      -18.611      152.086      128.358       59.232    23130.211    16475.681     3508.403        8.070        2.156      343.461       59.973        0.030      347.298       26.161      859.684
08/26/2013  18:33:00     -245.568      -64.828      -12.140      127.941       95.958       55.750    16368.833     9207.866     3108.052        4.666        1.434      253.981       47.932        0.036      347.277       26.125      859.677
08/26/2013  18:34:00     -499.750     -100.749      -44.737      145.378      108.495       69.336    21134.619    11771.181     4807.471       14.980        1.886      509.805       74.795        0.022      347.266       26.106      859.670
08/26/2013  18:35:00     -450.842      -83.398      -14.198      209.431      149.317       82.143    43861.524    22295.420     6747.520       14.165        3.645      458.491       90.642        0.039      347.242       26.067      859.692
08/26/2013  18:36:00     -427.894     -198.491      -19.334      177.910      122.173       80.405    31652.039    14926.318     6464.959       13.794        2.652      471.690       82.549        0.031      347.207       26.006      859.690
08/26/2013  18:37:00     -227.913      -56.300       16.691      202.176      113.761       68.519    40875.102    12941.677     4694.846        5.694        2.926      234.764       84.294        0.129      347.233       26.051      859.699
08/26/2013  18:38:00     -315.989       -7.305       -9.591      187.820      150.656       74.502    35276.254    22697.205     5550.559        8.175        3.176      316.073       79.471        0.063      347.211       26.013      859.719
08/26/2013  18:39:00     -323.692      -84.327      -27.959      184.670      128.813       79.803    34102.889    16592.680     6368.479        8.486        2.853      334.496       87.413        0.068      347.198       25.993      859.705
08/26/2013  18:40:00     -392.340       -5.558      -22.069      205.103      178.259       76.666    42067.049    31776.177     5877.667       11.707        3.986      392.380       74.843        0.036      347.181       25.962      859.712
08/26/2013  18:41:00     -450.667      -70.421      -15.169      211.839      182.993       75.536    44875.849    33486.263     5705.681       14.616        4.203      456.136       92.138        0.041      347.170       25.941      859.708
08/26/2013  18:42:00     -292.150      -14.089      -20.463      211.221      119.460       86.660    44614.146    14270.791     7509.888        7.617        3.320      292.489      105.866        0.131      347.182       25.963      859.692
08/26/2013  18:43:00     -313.380     -112.817       -3.392      193.970      168.846       87.117    37624.318    28509.040     7589.301        9.232        3.686      333.069      100.598        0.091      347.158       25.922      859.709
08/26/2013  18:44:00     -334.173      -77.837       -3.150      159.048      122.132       75.963    25296.342    14916.276     5770.325        8.185        2.299      343.119       70.815        0.043      347.155       25.916      859.706
08/26/2013  18:45:00     -261.164      -86.401       16.493      133.988      141.583       75.187    17952.878    20045.666     5653.111        5.979        2.183      275.085       75.815        0.076      347.151       25.909      859.701
08/26/2013  18:46:00     -320.395     -159.337        4.380      202.481      144.034       81.673    40998.496    20745.905     6670.432        9.822        3.421      357.828       92.079        0.066      347.131       25.874      859.711
08/26/2013  18:47:00     -502.799      -42.101      -18.108      226.448      158.919       86.112    51278.628    25255.220     7415.342       16.941        4.197      504.559       94.803        0.035      347.115       25.847      859.735
08/26/2013  18:48:00     -402.861     -100.102      -16.750      191.783      147.103       79.072    36780.589    21639.367     6252.313       11.862        3.234      415.112       79.372        0.037      347.110       25.838      859.724
08/26/2013  18:49:00     -262.397     -108.904       -4.419      154.835      133.841       61.362    23973.810    17913.508     3765.269        6.318        2.283      284.099       66.472        0.055      347.104       25.828      859.747
08/26/2013  18:50:00     -210.412      -34.879        6.861      124.990      119.460       58.937    15622.613    14270.644     3473.522        3.945        1.668      213.284       55.943        0.069      347.129       25.870      859.749
08/26/2013  18:51:00     -257.671       10.416       -8.202      148.847      108.439       65.048    22155.323    11758.978     4231.243        5.235        1.907      257.881       70.532        0.075      347.122       25.859      859.747
08/26/2013  18:52:00     -271.991     -100.641       -7.101      136.151      126.581       81.036    18537.062    16022.710     6566.890        6.263        2.056      290.014       67.303        0.054      347.097       25.815      859.731
08/26/2013  18:53:00     -381.255      -81.580       -8.389      198.400      147.596       74.022    39362.643    21784.466     5479.251       10.934        3.331      389.885       75.833        0.038      347.070       25.770      859.728
08/26/2013  18:54:00     -251.807     -192.089      -19.808      240.868      144.673       96.806    58017.628    20930.229     9371.483        9.449        4.416      316.710      118.843        0.141      347.070       25.769      859.709
08/26/2013  18:55:00     -304.036     -203.477      -19.541      165.884      152.038       78.738    27517.577    23115.461     6199.721        9.552        2.842      365.842       71.708        0.038      347.082       25.789      859.709
08/26/2013  18:56:00     -286.835      -59.619      -16.124      113.880       80.479       44.722    12968.702     6476.870     2000.077        5.376        1.072      292.965       49.753        0.029      347.082       25.789      859.721
08/26/2013  18:57:00     -383.989     -102.507      -24.564      215.235       94.595       63.661    46326.171     8948.263     4052.777       10.893        2.966      397.436       79.015        0.040      347.056       25.745      859.711
08/26/2013  18:58:00     -252.795      -58.375        1.945      217.500      144.129       78.562    47306.209    20773.291     6172.028        7.077        3.713      259.447      102.300        0.155      347.018       25.681      859.710
08/26/2013  18:59:00     -233.491      -77.126       -6.785      171.073      126.969       58.999    29265.882    16121.102     3480.881        5.468        2.443      245.899       72.565        0.087      347.051       25.736      859.715
08/26/2013  19:00:00     -250.488     -125.975      -10.435      177.373      131.162       70.751    31461.248    17203.395     5005.700        6.619        2.684      280.382       81.478        0.084      347.020       25.684      859.703
08/26/2013  19:01:00     -366.194      -64.802      -21.238      158.736      116.238       65.015    25197.088    13511.387     4226.987        9.083        2.147      371.884       62.523        0.028      347.018       25.681      859.698
08/26/2013  19:02:00     -471.184      -89.048      -23.753      199.259      132.642       74.553    39703.986    17594.021     5558.117       14.667        3.143      479.524       89.909        0.035      346.994       25.640      859.696
08/26/2013  19:03:00     -311.916      -92.611      -21.981      172.308      124.547       72.682    29690.037    15511.840     5282.711        7.841        2.524      325.374       72.735        0.050      347.008       25.662      859.696
08/26/2013  19:04:00     -322.116      -44.054      -24.885      237.767      145.152       60.775    56533.312    21069.099     3693.635        9.379        4.065      325.114       78.222        0.058      346.991       25.634      859.712
08/26/2013  19:05:00     -272.536      -98.008      -16.179      179.948      103.817       55.788    32381.289    10777.929     3112.290        6.520        2.314      289.623       59.266        0.042      346.988       25.629      859.714
08/26/2013  19:06:00     -248.554      -42.451        4.550      130.830      116.438       58.606    17116.554    13557.914     3434.662        4.885        1.705      252.153       65.924        0.068      346.961       25.583      859.716
08/26/2013  19:07:00     -289.927      -73.838       -3.954      240.324      144.949       77.194    57755.595    21010.156     5958.926        8.711        4.236      299.182       97.633        0.106      346.916       25.505      859.704
08/26/2013  19:08:00     -235.314     -111.753        1.040      168.952      122.618       69.403    28544.610    15035.084     4816.770        5.812        2.420      260.503       73.464        0.080      346.935       25.537      859.710
08/26/2013  19:09:00     -298.841      -92.585       -8.100      125.517       98.357       64.163    15754.422     9674.123     4116.900        6.374        1.477      312.854       72.067        0.053      346.926       25.520      859.750
08/26/2013  19:10:00     -191.420      -30.849       13.604      145.225       87.110       62.678    21090.413     7588.084     3928.515        3.519        1.630      193.890       65.133        0.113      346.911       25.498      859.752
08/26/2013  19:11:00     -591.951     -103.895      -31.267      196.678      158.697       84.864    38682.122    25184.763     7201.857       21.661        3.553      600.999       95.602        0.025      346.895       25.468      859.747
08/26/2013  19:12:00     -378.022     -134.697      -17.465      176.421      243.757       81.482    31124.491    59417.702     6639.379       12.925        4.859      401.302       94.835        0.056      346.874       25.431      859.766
08/26/2013  19:13:00     -410.517     -191.366      -17.125      127.073      152.110       67.754    16147.431    23137.328     4590.550       12.465        2.194      452.930       50.992        0.013      346.875       25.434      859.761
08/26/2013  19:14:00     -341.765      -95.244       -6.511      205.650      174.246       69.166    42292.054    30361.781     4783.892       10.166        3.872      354.788       78.715        0.049      346.854       25.397      859.765
08/26/2013  19:15:00     -136.298      -59.531       16.477      161.183      121.488       76.144    25979.894    14759.237     5797.956        3.446        2.327      148.732       84.395        0.322      346.798       25.304      859.758
08/26/2013  19:16:00     -361.582      -93.382      -36.390      170.313      149.496       67.348    29006.622    22349.189     4535.688        9.833        2.795      373.446       73.675        0.039      346.804       25.311      859.781
08/26/2013  19:17:00     -268.450      -97.908       -5.113      160.268      114.827       70.254    25685.794    13185.258     4935.663        6.273        2.190      285.747       79.940        0.078      346.777       25.265      859.786
08/26/2013  19:18:00     -325.963      -74.925       -0.540      194.557      141.452       69.470    37852.384    20008.791     4826.069        8.726        3.134      334.463       83.420        0.062      346.761       25.238      859.770
08/26/2013  19:19:00     -409.455     -104.607       -7.072      159.048      136.230       81.897    25296.162    18558.512     6707.177       11.459        2.528      422.606       75.706        0.032      346.739       25.200      859.767
08/26/2013  19:20:00     -300.200      -59.073      -13.263      121.513      114.755       55.097    14765.365    13168.782     3035.734        6.237        1.548      305.957       57.764        0.036      346.727       25.180      859.790
08/26/2013  19:21:00     -212.463      -88.819        5.449      133.266      102.393       62.779    17759.728    10484.264     3941.178        4.262        1.609      230.281       68.251        0.088      346.716       25.160      859.792
08/26/2013  19:22:00     -192.662      -29.300       14.271      159.985       86.046       65.961    25595.217     7403.874     4350.896        3.776        1.867      194.877       81.431        0.175      346.674       25.089      859.805
08/26/2013  19:23:00     -241.916       23.532       -2.648      125.720      102.105       59.425    15805.490    10425.388     3531.281        4.442        1.488      243.058       65.184        0.072      346.658       25.062      859.809
08/26/2013  19:24:00     -292.234     -100.566       -9.921      108.564      105.768       51.857    11786.172    11186.918     2689.174        6.063        1.283      309.054       53.585        0.030      346.667       25.075      859.813
08/26/2013  19:25:00     -327.871       37.766      -14.794      243.766      107.593       67.772    59421.954    11576.151     4593.077        9.235        3.780      330.039       97.733        0.088      346.653       25.052      859.811
08/26/2013  19:26:00     -279.054      -25.859      -15.694      160.330       98.590       54.363    25705.600     9719.903     2955.347        5.858        1.919      280.250       64.165        0.052      346.631       25.014      859.821
08/26/2013  19:27:00     -366.798      -33.428      -14.469      166.117      108.029       70.693    27594.778    11670.372     4997.500        9.006        2.213      368.318       83.801        0.052      346.619       24.993      859.824
08/26/2013  19:28:00     -366.535      -32.537      -14.068      204.603      128.276       78.544    41862.319    16454.620     6169.210       10.003        3.224      367.976       86.604        0.055      346.592       24.947      859.819
08/26/2013  19:29:00     -322.365      -96.778       -5.105      122.260      118.300       67.507    14947.579    13994.862     4557.252        7.340        1.675      336.579       65.436        0.038      346.600       24.961      859.840
08/26/2013  19:30:00     -259.724      -82.713        2.701      147.828       99.283       57.248    21852.995     9857.204     3277.287        5.464        1.749      272.576       67.701        0.062      346.587       24.940      859.863
08/26/2013  19:31:00     -221.254      -98.513        0.596      180.022      150.738       80.795    32407.942    22721.970     6527.834        6.015        3.083      242.194       88.032        0.132      346.544       24.865      859.868
08/26/2013  19:32:00     -387.476      -67.506      -33.971      157.219      128.042       62.526    24717.875    16394.746     3909.454       10.043        2.251      393.313       75.498        0.037      346.580       24.926      859.867
08/26/2013  19:33:00     -349.959      -59.130      -20.651      164.324      139.276       69.421    27002.390    19397.835     4819.290        8.880        2.561      354.919       85.022        0.057      346.546       24.868      859.874
08/26/2013  19:34:00     -280.053     -177.644      -18.308      186.801      163.470       83.027    34894.766    26722.597     6893.558        8.940        3.426      331.644       95.895        0.084      346.524       24.832      859.893
08/26/2013  19:35:00     -215.782     -135.120       -4.224      129.955       91.389       58.058    16888.320     8351.861     3370.734        4.672        1.431      254.597       67.952        0.071      346.495       24.780      859.914
08/26/2013  19:36:00     -129.944      -20.078       -0.485       80.710       71.714       45.282     6514.100     5142.926     2050.416        1.550        0.685      131.486       44.374        0.114      346.464       24.730      859.929
08/26/2013  19:37:00     -193.231      -51.086      -10.251      115.825      145.682       59.184    13415.469    21223.221     3502.710        3.909        1.907      199.870       56.024        0.079      346.446       24.697      859.943
08/26/2013  19:38:00     -448.052     -108.479      -44.882      194.682      127.127       77.278    37901.115    16161.161     5971.840       13.727        3.002      460.997       96.268        0.044      346.497       24.783      859.942
08/26/2013  19:39:00     -318.965     -156.979      -13.536      139.759      106.420       68.434    19532.636    11325.207     4683.277        8.105        1.777      355.501       76.894        0.047      346.478       24.751      859.948
08/26/2013  19:40:00     -226.442     -125.072      -12.737      128.090       91.288       55.633    16407.022     8333.564     3095.025        4.745        1.392      258.687       49.456        0.037      346.462       24.724      859.958
08/26/2013  19:41:00     -125.018     -105.251        1.136      140.791      107.903       66.313    19822.086    11642.963     4397.410        3.128        1.793      163.423       64.960        0.158      346.445       24.694      859.985
08/26/2013  19:42:00     -123.378      -48.738        2.904       73.307       94.235       42.330     5373.942     8880.208     1791.836        1.682        0.802      132.655       42.381        0.102      346.387       24.598      860.003
08/26/2013  19:43:00     -298.491      -24.008      -14.221      113.728      100.708       50.795    12934.045    10142.079     2580.180        5.776        1.283      299.455       45.038        0.023      346.353       24.537      860.013
08/26/2013  19:44:00     -304.895      -37.852       -5.980      123.273      101.559       63.865    15196.339    10314.185     4078.772        6.200        1.479      307.236       55.457        0.033      346.349       24.529      860.014
08/26/2013  19:45:00     -338.368      -48.468      -11.008      152.692       82.685       51.110    23314.918     6836.859     2612.253        7.486        1.638      341.821       53.184        0.024      346.327       24.492      860.013
08/26/2013  19:46:00     -363.103      -51.242       -4.064      157.736       93.673       72.166    24880.777     8774.673     5207.978        8.667        1.943      366.701       84.822        0.054      346.308       24.460      860.023
08/26/2013  19:47:00     -392.266      -98.856       -8.889      166.546      173.886       78.750    27737.529    30236.441     6201.624       11.394        3.209      404.531       79.540        0.039      346.306       24.456      860.013
08/26/2013  19:48:00     -378.602      -52.732      -32.559      147.771      117.388       71.763    21836.325    13780.058     5149.921        9.396        2.038      382.256       74.670        0.038      346.285       24.419      860.023
08/26/2013  19:49:00     -479.499      -56.639      -25.385      211.970      144.545       87.141    44931.140    20893.242     7593.520       15.358        3.671      482.833       93.254        0.037      346.283       24.416      860.015
08/26/2013  19:50:00     -367.353      -57.713      -10.771      206.818      139.690      100.532    42773.610    19513.395    10106.634       10.538        3.620      371.859      110.904        0.089      346.255       24.367      860.003
08/26/2013  19:51:00     -341.253      -44.702       -6.456      163.163      106.549       71.500    26622.319    11352.751     5112.267        8.078        2.154      344.168       73.386        0.045      346.234       24.331      860.032
08/26/2013  19:52:00     -126.515      -46.679        3.343      156.375       93.498       65.485    24453.173     8741.950     4288.267        2.783        1.874      134.851       70.951        0.277      346.210       24.291      860.040
08/26/2013  19:53:00     -368.229       35.412      -19.765      120.089       97.237       67.043    14421.288     9455.086     4494.782        8.280        1.419      369.928       66.981        0.033      346.238       24.336      860.063
08/26/2013  19:54:00     -294.417      -86.890      -13.021      129.945      115.176       54.284    16885.618    13265.482     2946.767        6.374        1.655      306.972       53.612        0.031      346.199       24.270      860.071
08/26/2013  19:55:00     -347.778     -148.857      -20.966      125.625      147.769       65.270    15781.701    21835.820     4260.140        9.270        2.094      378.296       58.665        0.024      346.211       24.290      860.083
08/26/2013  19:56:00     -293.027      -76.025      -13.293      163.390      139.141       75.461    26696.220    19360.124     5694.432        7.178        2.588      302.729       87.234        0.083      346.204       24.279      860.086
08/26/2013  19:57:00     -308.382      -30.412      -25.190      140.550       87.998       51.889    19754.214     7743.610     2692.428        6.342        1.510      309.878       56.120        0.033      346.198       24.268      860.085
08/26/2013  19:58:00     -295.630      -46.512      -15.006      142.166       78.545       55.956    20211.237     6169.350     3131.051        5.964        1.476      299.267       65.723        0.048      346.148       24.182      860.082
08/26/2013  19:59:00     -393.127     -110.377      -19.323      140.649       75.390       56.416    19782.252     5683.727     3182.770        9.787        1.432      408.328       61.026        0.022      346.144       24.179      860.057
08/26/2013  20:00:00     -112.361      -15.739       21.032      103.957      107.648       53.372    10807.135    11588.190     2848.570        1.927        1.262      113.458       63.451        0.313      346.088       24.083      860.047
08/26/2013  20:01:00     -222.639      -62.005      -16.855      138.756       87.611       54.263    19253.127     7675.600     2944.433        4.178        1.494      231.112       58.530        0.064      346.125       24.144      860.035
08/26/2013  20:02:00     -395.164      -12.809      -14.234      220.565      147.690       74.133    48648.883    21812.471     5495.697       11.622        3.798      395.372      100.164        0.064      346.109       24.118      860.025
08/26/2013  20:03:00     -489.707      -52.448      -37.338      192.322      138.231       74.180    36987.853    19107.693     5502.711       15.277        3.080      492.507       82.130        0.028      346.146       24.180      859.989
08/26/2013  20:04:00     -383.256      -53.398      -12.298      169.886      115.094       71.814    28861.212    13246.646     5157.260        9.857        2.363      386.958       80.557        0.043      346.138       24.166      859.991
08/26/2013  20:05:00     -177.656      -75.541        2.061      131.768      116.962       71.911    17362.840    13680.125     5171.194        3.674        1.811      193.050       81.733        0.179      346.097       24.097      860.008
08/26/2013  20:06:00     -161.233      -86.569        6.162      128.566       89.069       73.245    16529.264     7933.353     5364.863        3.167        1.491      183.003       69.260        0.143      346.119       24.133      859.991
08/26/2013  20:07:00     -218.926     -111.826       -4.485      146.968      108.192       69.488    21599.628    11705.604     4828.536        4.929        1.907      245.832       83.308        0.115      346.124       24.142      859.968
08/26/2013  20:08:00     -257.072      -30.986       -2.882      126.478       73.301       55.589    15996.561     5372.971     3090.136        4.575        1.223      258.933       58.485        0.051      346.064       24.039      859.951
08/26/2013  20:09:00     -451.254     -127.366      -23.931      188.312      134.299       85.733    35461.483    18036.278     7350.107       14.062        3.042      468.884      106.791        0.052      346.092       24.087      859.926
08/26/2013  20:10:00     -267.572      -79.487        5.008      140.692      122.669       67.092    19794.264    15047.683     4501.303        5.863        1.967      279.129       75.266        0.073      346.022       23.967      859.914
08/26/2013  20:11:00     -440.815      -69.087      -31.633      136.370      120.702       80.323    18596.886    14568.857     6451.711       11.985        1.981      446.196       71.894        0.026      346.053       24.020      859.902
08/26/2013  20:12:00     -367.911     -113.441       -5.591      169.919      148.089       90.370    28872.371    21930.369     8166.814       10.360        2.948      385.004       81.736        0.045      346.054       24.020      859.899
08/26/2013  20:13:00     -325.083      -78.101       -4.221      142.769      143.979       75.744    20383.074    20729.942     5737.166        7.931        2.343      334.333       83.302        0.062      346.049       24.013      859.921
08/26/2013  20:14:00     -284.507      -88.558       -9.507      147.222      101.325       64.625    21674.418    10266.784     4176.381        6.249        1.806      297.971       68.028        0.052      346.059       24.031      859.922
08/26/2013  20:15:00     -263.422      -81.995      -10.025      184.182      118.700       68.709    33922.841    14089.609     4720.928        6.446        2.637      275.888       66.614        0.058      346.038       23.995      859.947
08/26/2013  20:16:00     -333.613     -220.393      -12.611      168.098      122.608       61.474    28256.929    15032.765     3779.076       10.354        2.353      399.838       64.992        0.026      346.070       24.050      859.954
08/26/2013  20:17:00     -224.544      -94.609       -4.531      196.630      128.407       63.152    38663.197    16488.348     3988.169        5.925        2.957      243.662       82.773        0.115      346.064       24.039      859.973
08/26/2013  20:18:00     -362.847     -123.914      -13.699      161.862      117.892       68.308    26199.455    13898.482     4666.025        9.597        2.238      383.422       75.095        0.038      346.056       24.026      859.973
08/26/2013  20:19:00     -219.687      -50.918       11.993      136.008      126.198       69.477    18498.231    15925.831     4827.061        4.512        1.963      225.511       67.395        0.089      346.023       23.968      859.992
08/26/2013  20:20:00     -356.950     -139.944       -7.906      236.533      158.713       92.290    55948.007    25189.792     8517.524       11.834        4.483      383.403       99.463        0.067      346.052       24.018      860.003
08/26/2013  20:21:00     -204.061      -71.204       -4.504      134.257      118.442       54.396    18025.060    14028.502     2958.956        4.086        1.751      216.127       57.888        0.072      346.011       23.950      860.048
08/26/2013  20:22:00     -309.791      -38.000       -4.272      131.348      110.704       69.325    17252.388    12255.434     4806.013        6.587        1.716      312.113       67.071        0.046      346.013       23.952      860.065
08/26/2013  20:23:00     -328.151     -131.667        7.060      182.356      109.854       72.306    33253.736    12067.868     5228.208        8.780        2.527      353.581       87.423        0.061      346.006       23.939      860.083
08/26/2013  20:24:00     -279.997      -67.573       -9.914      170.241      141.289       71.119    28982.077    19962.608     5057.972        6.852        2.700      288.036       70.772        0.060      346.022       23.968      860.109
08/26/2013  20:25:00     -424.909      -57.261      -21.033      144.503      154.132       77.446    20881.239    23756.777     5997.807       11.744        2.532      428.750       75.773        0.031      346.079       24.064      860.132
08/26/2013  20:26:00     -208.619     -152.021      -13.357      119.970      138.515       57.634    14392.844    19186.489     3321.725        5.185        1.845      258.132       55.578        0.046      346.070       24.049      860.143
08/26/2013  20:27:00     -186.522      -44.287        9.178      112.346       73.413       48.880    12621.687     5389.491     2389.291        2.861        1.020      191.707       49.603        0.067      346.008       23.944      860.150
08/26/2013  20:28:00     -224.546        6.725      -15.367      181.752      102.920       59.959    33033.658    10592.439     3595.140        4.895        2.361      224.647       80.405        0.128      345.969       23.878      860.174
08/26/2013  20:29:00     -336.367     -128.991      -17.625      180.845      116.061       92.257    32704.938    13470.251     8511.311        9.238        2.734      360.252       88.561        0.060      346.030       23.982      860.172
08/26/2013  20:30:00     -311.125     -113.470        1.106      182.654      217.962       91.025    33362.344    47507.243     8285.574        9.940        4.458      331.171      107.901        0.106      346.035       23.989      860.177
08/26/2013  20:31:00     -243.567      -63.362       -7.822      123.125      115.558       58.202    15159.651    13353.544     3387.417        4.764        1.595      251.674       59.707        0.056      346.036       23.990      860.194
08/26/2013  20:32:00     -211.072      -89.811       -1.760      112.959      111.777       60.780    12759.797    12494.046     3694.151        4.078        1.447      229.385       62.856        0.075      345.982       23.899      860.212
08/26/2013  20:33:00     -212.025     -102.523       14.255      142.005      123.336       61.810    20165.302    15211.691     3820.520        4.743        1.960      235.512       62.506        0.070      345.997       23.925      860.220
08/26/2013  20:34:00     -264.470       21.403       -6.040      188.881      118.151       62.884    35676.047    13959.646     3954.424        6.200        2.680      265.335       75.353        0.081      346.014       23.955      860.227
08/26/2013  20:35:00     -162.091      -87.718       12.324      171.560      128.069       70.213    29432.709    16401.738     4929.927        4.243        2.538      184.304       82.800        0.202      345.992       23.917      860.225
08/26/2013  20:36:00     -254.555      -74.672       -4.243       97.360       98.150       54.485     9478.994     9633.473     2968.603        4.623        1.104      265.281       58.224        0.048      346.009       23.945      860.239
08/26/2013  20:37:00     -506.218     -148.841      -22.958      173.385      151.543       78.369    30062.503    22965.386     6141.685       16.904        2.958      527.646       69.115        0.017      346.051       24.017      860.211
08/26/2013  20:38:00     -307.836      -55.184       -3.594      181.313      156.682       75.998    32874.230    24549.349     5775.621        8.050        3.160      312.743       85.043        0.074      346.005       23.939      860.231
08/26/2013  20:39:00     -286.448      -15.153        3.250      211.417      130.082       83.226    44697.093    16921.356     6926.567        7.540        3.427      286.849      108.203        0.142      345.942       23.831      860.245
08/26/2013  20:40:00     -427.689     -171.027      -28.514      167.152      175.982       94.658    27939.701    30969.562     8960.062       14.041        3.393      460.617       96.535        0.044      346.035       23.989      860.247
08/26/2013  20:41:00     -143.142      -23.593       25.922      132.983      117.444       58.403    17684.455    13792.993     3410.910        2.830        1.744      145.073       49.224        0.115      345.932       23.815      860.279
08/26/2013  20:42:00     -365.324     -185.332      -18.925      153.046      118.339       73.850    23422.988    14004.017     5453.790       10.552        2.144      409.646       59.688        0.021      346.007       23.942      860.299
08/26/2013  20:43:00     -247.086      -92.086        8.349      146.569      160.776       85.763    21482.425    25848.867     7355.327        6.213        2.734      263.688       79.643        0.091      345.970       23.878      860.314
08/26/2013  20:44:00     -233.644     -107.745        7.774      181.557      118.593       71.837    32962.936    14064.309     5160.565        5.921        2.609      257.290       92.724        0.130      345.963       23.866      860.337
08/26/2013  20:45:00     -477.651     -106.564      -19.551      249.806      121.054       82.847    62403.186    14653.961     6863.700       16.189        4.196      489.394      103.204        0.044      345.981       23.896      860.341
08/26/2013  20:46:00     -295.197      -59.611        1.473      172.851      106.383       67.186    29877.429    11317.288     4513.993        6.819        2.285      301.156       75.102        0.062      345.936       23.822      860.379
08/26/2013  20:47:00     -201.655     -185.455      -17.592      108.528      143.848       61.326    11778.321    20692.238     3760.916        5.579        1.812      273.968       64.432        0.055      345.937       23.822      860.409
08/26/2013  20:48:00     -105.717      -69.907        4.953      136.968       95.528       60.201    18760.334     9125.587     3624.168        2.379        1.576      126.740       65.873        0.270      345.887       23.739      860.411
08/26/2013  20:49:00     -225.763      -53.694       -3.122      135.360       95.560       63.357    18322.337     9131.681     4014.155        4.266        1.573      232.060       61.486        0.070      345.877       23.719      860.433
08/26/2013  20:50:00     -114.687     -117.856        7.657      146.462      125.777       65.403    21451.216    15819.730     4277.512        3.432        2.077      164.448       72.066        0.192      345.834       23.648      860.427
08/26/2013  20:51:00     -159.682      -13.941        5.328      151.313       96.584       55.514    22895.734     9328.375     3081.831        3.051        1.765      160.289       49.020        0.094      345.850       23.674      860.435
08/26/2013  20:52:00     -397.516      -68.146      -21.973      174.923      173.990       66.574    30598.228    30272.625     4432.108       11.421        3.265      403.315       64.038        0.025      345.855       23.681      860.433
08/26/2013  20:53:00     -348.942      -62.794      -13.443      161.195      101.411       52.849    25983.812    10284.216     2793.046        8.246        1.953      354.547       51.941        0.021      345.798       23.584      860.442
08/26/2013  20:54:00     -334.567     -118.584       -6.894      148.466      111.298       61.124    22042.135    12387.268     3736.153        8.210        1.908      354.960       63.615        0.032      345.796       23.579      860.445
08/26/2013  20:55:00     -263.778      -89.566       -0.068      123.658       99.383       59.050    15291.186     9876.945     3486.878        5.312        1.433      278.570       55.907        0.040      345.778       23.550      860.451
08/26/2013  20:56:00     -209.706      -67.911        4.744      143.655      104.122       57.576    20636.889    10841.321     3314.940        4.170        1.740      220.428       48.609        0.049      345.761       23.521      860.469
08/26/2013  20:57:00     -304.722      -30.366      -15.951      110.355      103.187       61.222    12178.279    10647.624     3748.111        6.030        1.329      306.232       59.465        0.038      345.776       23.545      860.480
08/26/2013  20:58:00     -254.734      -57.344      -16.032      116.723      101.559       56.173    13624.323    10314.307     3155.362        4.776        1.355      261.109       48.018        0.034      345.755       23.510      860.483
08/26/2013  20:59:00     -290.355      -13.700      -14.032      134.882      129.291       67.670    18193.066    16716.062     4579.167        6.208        1.974      290.678       62.445        0.046      345.696       23.408      860.485
08/26/2013  21:00:00     -320.149       12.611      -17.762      166.726       94.808       66.113    27797.723     8988.555     4370.878        7.206        2.058      320.397       68.544        0.046      345.705       23.423      860.507
08/26/2013  21:01:00     -244.472     -161.842      -10.731      160.445      145.804       64.019    25742.674    21258.941     4098.447        6.858        2.555      293.188       56.755        0.037      345.735       23.475      860.512
08/26/2013  21:02:00     -261.161     -130.925       -7.634      117.409      111.387       52.124    13784.854    12406.994     2716.930        5.715        1.445      292.142       53.279        0.033      345.722       23.452      860.535
08/26/2013  21:03:00     -311.213      -98.350       -5.907      159.015      121.727       69.672    25285.893    14817.426     4854.248        7.575        2.248      326.383       71.232        0.048      345.761       23.519      860.561
08/26/2013  21:04:00     -283.829      -86.479        1.574      164.076      128.908       82.496    26920.908    16617.206     6805.523        6.918        2.517      296.711       90.030        0.092      345.717       23.443      860.605
08/26/2013  21:05:00     -333.140     -172.524      -15.371      182.626      130.649       62.359    33352.179    17069.194     3888.654        9.764        2.716      375.162       72.230        0.037      345.776       23.546      860.623
08/26/2013  21:06:00     -278.254     -202.728        1.687      159.421      106.613       76.495    25415.039    11366.344     5851.421        8.057        2.132      344.273       81.587        0.056      345.749       23.498      860.627
08/26/2013  21:07:00     -174.949      -33.384       -1.881      125.723       96.735       68.186    15806.384     9357.720     4649.360        3.076        1.491      178.105       78.047        0.192      345.712       23.434      860.634
08/26/2013  21:08:00     -286.119       19.142      -10.188      111.296       89.780       53.923    12386.904     8060.507     2907.741        5.284        1.168      286.758       48.608        0.029      345.717       23.445      860.619
08/26/2013  21:09:00     -269.278      -77.479      -20.803      119.710      108.473       48.806    14330.453    11766.463     2382.063        5.371        1.424      280.203       40.237        0.021      345.678       23.377      860.595
08/26/2013  21:10:00     -223.740      -72.770       -1.548      148.175      136.976       78.519    21955.858    18762.517     6165.201        5.111        2.344      235.276       88.321        0.141      345.641       23.314      860.591
08/26/2013  21:11:00     -299.417      -85.564      -17.879      199.561      129.275       74.982    39824.453    16712.122     5622.338        7.971        3.108      311.403       93.250        0.090      345.661       23.348      860.584
08/26/2013  21:12:00     -266.852     -146.459      -17.508      134.124      103.865       63.920    17989.270    10788.040     4085.806        6.291        1.643      304.402       55.192        0.033      345.686       23.391      860.593
08/26/2013  21:13:00     -224.159      -12.648        2.069      120.343      108.639       67.782    14482.418    11802.463     4594.400        4.064        1.544      224.516       59.853        0.071      345.671       23.365      860.625
08/26/2013  21:14:00     -324.143      -50.437       -9.077      130.010      139.449       66.852    16902.684    19445.978     4469.222        7.425        2.041      328.044       65.071        0.039      345.704       23.423      860.638
08/26/2013  21:15:00     -265.307      -96.200       -6.756      163.051      108.948       68.450    26585.595    11869.683     4685.440        6.141        2.157      282.209       69.568        0.061      345.690       23.399      860.641
08/26/2013  21:16:00     -342.455      -76.576      -19.957      117.058      105.201       61.766    13702.520    11067.227     3815.010        7.606        1.429      350.912       66.806        0.036      345.695       23.407      860.652
08/26/2013  21:17:00     -164.681      -81.353       21.650      104.667       91.383       58.458    10955.281     8350.934     3417.386        2.846        1.136      183.679       57.041        0.096      345.641       23.315      860.656
08/26/2013  21:18:00      -51.015      -71.171       37.980      100.573       84.788       71.857    10114.843     7189.012     5163.444        1.578        1.123       87.566       63.965        0.534      345.616       23.272      860.652
08/26/2013  21:19:00     -325.567      -10.386      -16.779      119.675      113.102       58.907    14322.011    12791.960     3470.051        6.848        1.529      325.733       44.882        0.019      345.638       23.308      860.656
08/26/2013  21:20:00      -84.333      -82.768       18.210      106.590       89.970       44.336    11361.466     8094.676     1965.716        1.785        1.071      118.163       46.730        0.156      345.615       23.270      860.670
08/26/2013  21:21:00     -141.854      -87.038       -4.237       79.298       60.149       34.022     6288.189     3617.884     1157.499        1.939        0.553      166.428       37.069        0.050      345.598       23.240      860.674
08/26/2013  21:22:00     -213.989      -24.003      -10.218       86.568       61.396       38.701     7494.062     3769.515     1497.779        2.961        0.638      215.331       39.691        0.034      345.595       23.235      860.683
08/26/2013  21:23:00      -96.826      -23.935        7.619       61.642       47.492       34.770     3799.707     2255.494     1208.985        0.863        0.363       99.740       30.565        0.094      345.499       23.073      860.688
08/26/2013  21:24:00     -194.636      -49.242       -0.163       95.475       77.919       44.951     9115.459     6071.362     2020.548        2.875        0.860      200.769       44.942        0.050      345.507       23.083      860.701
08/26/2013  21:25:00     -299.666      -22.718       -1.636      115.164       90.527       58.426    13262.844     8195.129     3413.631        5.759        1.244      300.526       64.223        0.046      345.529       23.122      860.714
08/26/2013  21:26:00     -288.237     -114.702       -9.082      112.025      108.421       53.630    12549.675    11755.042     2876.150        6.174        1.359      310.221       36.372        0.014      345.548       23.153      860.708
08/26/2013  21:27:00     -338.628      -39.968      -24.618      115.419       84.675       63.183    13321.472     7169.810     3992.111        7.067        1.224      340.979       70.094        0.042      345.583       23.215      860.712
08/26/2013  21:28:00     -292.804      -28.653      -24.242      124.358       62.970       46.020    15464.860     3965.222     2117.831        5.434        1.077      294.202       48.786        0.027      345.568       23.187      860.716
08/26/2013  21:29:00     -127.245      -52.653        6.658       83.038       74.454       42.027     6895.312     5543.404     1766.275        1.660        0.710      137.708       44.966        0.107      345.526       23.117      860.712
08/26/2013  21:30:00     -223.850       18.765      -14.140       79.639       61.760       33.844     6342.426     3814.264     1145.400        3.098        0.565      224.635       28.913        0.017      345.527       23.117      860.719
08/26/2013  21:31:00     -215.906      -80.048       -8.811       98.704       71.765       50.168     9742.381     5150.238     2516.842        3.525        0.870      230.267       51.140        0.049      345.578       23.205      860.718
08/26/2013  21:32:00     -196.466      -42.241       -9.049       60.935       58.919       35.753     3713.115     3471.445     1278.280        2.446        0.423      200.956       24.671        0.015      345.564       23.182      860.737
08/26/2013  21:33:00     -144.516       55.071      -16.651       78.508       52.106       28.213     6163.580     2715.045      795.958        1.693        0.484      154.654       20.809        0.018      345.576       23.204      860.758
08/26/2013  21:34:00      -18.640      109.883        8.236       39.738       56.766       33.792     1579.110     3222.363     1141.866        0.922        0.297      111.452       36.638        0.108      345.405       22.912      860.776
08/26/2013  21:35:00       -6.390      135.822      -20.428       43.463       42.111       19.601     1889.071     1773.373      384.190        1.148        0.202      135.972       19.101        0.020      345.438       22.967      860.790
08/26/2013  21:36:00       -6.856      180.854      -21.137       64.944       65.404       45.569     4217.687     4277.702     2076.576        2.188        0.529      180.984       45.590        0.063      345.374       22.857      860.802
08/26/2013  21:37:00      -67.323      235.586      -27.306       49.928       76.792       39.317     2492.779     5897.033     1545.788        3.536        0.497      245.017       33.317        0.018      345.361       22.832      860.822
08/26/2013  21:38:00      -72.385      252.635      -32.751       50.425       76.090       34.810     2542.682     5789.709     1211.746        3.984        0.477      262.801       23.331        0.008      345.527       23.116      860.808
08/26/2013  21:39:00      -37.557      179.440      -16.488       26.502       64.756       22.700      702.361     4193.394      515.269        1.965        0.271      183.328       27.740        0.023      345.439       22.968      860.819
08/26/2013  21:40:00        8.152      149.886      -14.551       40.802       60.140       36.725     1664.816     3616.836     1348.724        1.469        0.332      150.108       36.347        0.059      345.295       22.723      860.835
08/26/2013  21:41:00      -20.133      238.677      -29.222       49.302       54.270       28.936     2430.697     2945.261      837.317        3.222        0.311      239.525       27.859        0.014      345.347       22.807      860.854
08/26/2013  21:42:00     -109.354      298.476      -42.202      126.454      129.225       61.189    15990.637    16698.992     3744.141        6.962        1.822      317.877       58.616        0.034      345.380       22.866      860.876
08/26/2013  21:43:00     -141.002       96.170      -23.186       72.364       72.948       39.486     5236.537     5321.439     1559.155        2.089        0.606      170.676       41.611        0.059      345.415       22.926      860.871
08/26/2013  21:44:00     -144.546      144.656      -30.222       97.916       92.076       49.551     9587.485     8478.074     2455.290        3.162        1.026      204.496       49.807        0.059      345.358       22.828      860.900
08/26/2013  21:45:00      -73.401      237.621      -20.412       70.453       83.745       49.794     4963.682     7013.143     2479.489        3.836        0.723      248.700       51.418        0.043      345.259       22.658      860.898
08/26/2013  21:46:00      -73.591      128.117       -6.291       48.451       48.828       32.517     2347.513     2384.132     1057.350        1.383        0.289      147.749       30.916        0.044      345.175       22.518      860.903
08/26/2013  21:47:00     -101.396      121.759      -14.998       66.948       72.258       42.825     4482.057     5221.154     1834.015        1.843        0.577      158.450       37.827        0.057      345.223       22.598      860.908
08/26/2013  21:48:00      -71.396      112.713      -20.175       82.327       57.682       43.743     6777.773     3327.213     1913.464        1.511        0.601      133.422       47.743        0.128      345.233       22.615      860.912
08/26/2013  21:49:00      -58.612      206.338      -21.294       62.313       84.513       42.006     3882.885     7142.404     1764.485        2.962        0.639      214.501       49.484        0.053      345.259       22.658      860.926
08/26/2013  21:50:00      -26.066      320.949      -39.249       56.470       64.956       38.588     3188.873     4219.253     1489.018        5.706        0.445      322.006       27.221        0.007      345.279       22.689      860.925
08/26/2013  21:51:00     -150.898      191.414      -27.979       58.941       91.267       38.803     3474.075     8329.646     1505.656        3.675        0.665      243.741       33.732        0.019      345.259       22.657      860.922
08/26/2013  21:52:00     -147.766      136.945      -26.901       62.751       64.398       41.432     3937.676     4147.113     1716.623        2.555        0.490      201.466       35.963        0.032      345.245       22.637      860.925
08/26/2013  21:53:00     -151.425      125.171      -40.157       58.747       69.233       27.780     3451.232     4793.182      771.730        2.461        0.451      196.462       31.005        0.025      345.311       22.749      860.928
08/26/2013  21:54:00     -114.352      118.506      -17.179       44.180       81.587       32.930     1951.895     6656.503     1084.400        1.855        0.485      164.682       39.577        0.058      345.251       22.646      860.926
08/26/2013  21:55:00     -109.316      174.194      -15.586       58.067       85.600       53.064     3371.833     7327.395     2815.824        2.802        0.676      205.654       40.380        0.039      345.218       22.588      860.923
08/26/2013  21:56:00     -143.970      190.392      -47.838       46.326       54.917       32.544     2146.124     3015.918     1059.130        3.274        0.311      238.697       23.144        0.009      345.278       22.688      860.904
08/26/2013  21:57:00     -123.284      184.555      -21.617       64.614      102.630       48.228     4175.004    10532.831     2325.928        3.338        0.852      221.945       44.751        0.041      345.256       22.652      860.907
08/26/2013  21:58:00     -157.632      252.738      -39.318       61.895       63.274       42.437     3830.944     4003.611     1800.936        4.995        0.482      297.866       35.936        0.015      345.290       22.711      860.900
08/26/2013  21:59:00     -150.518      166.144      -30.533       54.983       64.806       37.157     3023.161     4199.866     1380.680        2.990        0.430      224.186       31.662        0.020      345.281       22.695      860.916
08/26/2013  22:00:00     -182.836      146.765      -41.616       65.542       89.579       38.768     4295.784     8024.457     1502.928        3.526        0.691      234.455       44.245        0.036      345.356       22.827      860.915
08/26/2013  22:01:00      -43.694       85.387       -7.922       51.376       45.748       19.545     2639.452     2092.858      382.022        0.719        0.256       95.917       17.229        0.032      345.270       22.680      860.889
08/26/2013  22:02:00      -32.464      144.130      -12.760       56.843       50.669       31.913     3231.132     2567.309     1018.454        1.440        0.341      147.741       31.032        0.044      345.208       22.571      860.879
08/26/2013  22:03:00      -72.004      223.338      -26.486       53.768       56.512       32.404     2891.049     3193.582     1050.025        3.145        0.357      234.658       27.109        0.013      345.244       22.633      860.878
08/26/2013  22:04:00      -70.626      113.134      -13.362       47.482       45.796       32.789     2254.553     2097.291     1075.144        1.170        0.271      133.369       24.310        0.033      345.181       22.526      860.879
08/26/2013  22:05:00      -53.101      183.986      -19.559       46.454       61.650       32.516     2157.999     3800.722     1057.321        2.203        0.351      191.496       25.533        0.018      345.137       22.452      860.880
08/26/2013  22:06:00      -95.091       64.658      -13.556       40.941       98.260       29.471     1676.162     9655.009      868.559        1.280        0.610      114.991       28.873        0.063      345.157       22.485      860.891
08/26/2013  22:07:00      -79.033      119.655      -15.615       41.754       54.337       29.792     1743.360     2952.467      887.552        1.319        0.279      143.400       27.073        0.036      345.115       22.415      860.887
08/26/2013  22:08:00      -96.985       47.335      -18.963       33.993       47.293       20.468     1155.492     2236.590      418.920        0.791        0.191      107.920        8.598        0.006      345.199       22.558      860.885
08/26/2013  22:09:00     -105.456       15.671      -14.943       36.420       63.626       30.906     1326.411     4048.328      955.192        0.896        0.316      106.614       17.890        0.028      345.199       22.558      860.888
08/26/2013  22:10:00      -63.889       56.188       -2.571       43.345       44.129       21.949     1878.790     1947.379      481.779        0.578        0.215       85.081       17.258        0.041      345.100       22.389      860.908
08/26/2013  22:11:00      -83.402       74.816      -12.767       43.782       55.872       24.631     1916.896     3121.680      606.676        0.918        0.282      112.042       22.611        0.041      345.217       22.590      860.914
08/26/2013  22:12:00      -43.859       95.837       -9.349       30.308       49.148       32.459      918.589     2415.526     1053.619        0.779        0.219      105.397       25.229        0.057      345.230       22.611      860.921
08/26/2013  22:13:00      -66.940       -1.784        4.173       37.299       69.696       22.038     1391.203     4857.519      485.660        0.562        0.337       66.964       19.773        0.087      345.090       22.372      860.938
08/26/2013  22:14:00     -186.793      -38.402      -21.725       72.280       47.448       26.452     5224.461     2251.326      699.701        2.251        0.409      190.699       21.874        0.013      345.233       22.614      860.963
08/26/2013  22:15:00     -109.777      -43.890       -2.831       38.768       43.272       24.534     1502.972     1872.453      601.937        0.898        0.199      118.225       15.552        0.017      345.187       22.537      860.994
08/26/2013  22:16:00     -142.549      -96.142       -1.181       54.474       41.250       29.046     2967.458     1701.528      843.647        1.754        0.276      171.941       26.750        0.024      345.182       22.530      860.996
08/26/2013  22:17:00     -152.177      -65.319       -6.884       53.313       40.485       27.223     2842.303     1639.010      741.111        1.635        0.261      165.603       27.029        0.027      345.173       22.514      860.998
08/26/2013  22:18:00      -43.504      -60.041       -0.231       60.489       38.637       27.030     3658.925     1492.848      730.641        0.569        0.294       74.145       33.051        0.199      345.169       22.507      860.998
08/26/2013  22:19:00       -3.144      -16.458        9.497       28.770       14.839       15.418      827.722      220.200      237.707        0.083        0.064       16.756        9.787        0.341      345.126       22.434      860.991
08/26/2013  22:20:00      -23.297        7.450       10.326       46.036       19.744       23.740     2119.278      389.812      563.574        0.189        0.154       24.459       28.069        1.317      345.112       22.410      860.989
08/26/2013  22:21:00        7.797      -19.009        2.262       16.573       14.608        7.456      274.651      213.380       55.585        0.049        0.027       20.546       10.745        0.273      345.190       22.546      861.003
08/26/2013  22:22:00       27.825      -74.423        3.700       10.674       18.165       12.654      113.940      329.964      160.112        0.347        0.030       79.454        8.971        0.013      345.184       22.533      861.014
08/26/2013  22:23:00        4.867      -86.651       10.094       37.603       27.351       16.651     1413.976      748.077      277.252        0.504        0.122       86.788       12.214        0.020      345.131       22.443      861.025
08/26/2013  22:24:00       10.605      -43.183       -0.149       40.541       19.783       16.482     1643.588      391.361      271.659        0.214        0.115       44.466       15.616        0.123      345.089       22.371      861.033
08/26/2013  22:25:00       12.146      -16.772        8.102       27.255       27.907       16.690      742.856      778.825      278.556        0.115        0.090       20.709       12.708        0.377      344.933       22.104      861.047
08/26/2013  22:26:00        1.678      -60.726        2.729       19.837       21.427       15.226      393.526      459.104      231.825        0.239        0.054       60.749       13.908        0.052      345.116       22.416      861.084
08/26/2013  22:27:00        1.556      -30.345        3.147       13.644       26.067       12.614      186.162      679.481      159.106        0.098        0.051       30.385        7.590        0.062      345.072       22.344      861.089
08/26/2013  22:28:00       61.158      -19.224       17.923       43.040       33.359       24.341     1852.459     1112.830      592.462        0.399        0.178       64.108       22.198        0.120      344.426       21.236      861.098
08/26/2013  22:29:00       48.504       -6.314       25.226       50.229       36.163       29.273     2522.935     1307.784      856.899        0.386        0.234       48.914       29.279        0.358      344.061       20.612      861.103
08/26/2013  22:30:00       70.753      -42.156        4.320       50.509       51.294       38.144     2551.156     2631.033     1454.979        0.672        0.332       82.359       30.278        0.135      344.119       20.712      861.109
08/26/2013  22:31:00       24.644      -36.107        4.667       45.912       55.063       31.888     2107.884     3031.985     1016.837        0.404        0.308       43.715       21.536        0.243      344.339       21.088      861.110
08/26/2013  22:32:00       31.969      -65.007       -2.693       33.156       37.351       36.138     1099.292     1395.083     1305.975        0.453        0.190       72.443       20.980        0.084      344.338       21.086      861.120
08/26/2013  22:33:00       48.193      -42.505        1.471       41.420       39.874       30.727     1715.637     1589.938      944.166        0.419        0.212       64.259       22.406        0.122      344.338       21.085      861.125
08/26/2013  22:34:00       47.407      -63.841       -5.512       37.341       37.178       26.095     1394.373     1382.233      680.950        0.490        0.173       79.518       20.524        0.067      344.454       21.286      861.124
08/26/2013  22:35:00       39.460      -56.585       -2.880       33.017       37.728       27.365     1090.133     1423.398      748.822        0.401        0.163       68.985       22.112        0.103      344.593       21.522      861.134
08/26/2013  22:36:00       23.212      -43.511        6.651       30.163       31.927       29.163      909.804     1019.359      850.501        0.263        0.139       49.316       23.438        0.226      344.040       20.576      861.146
08/26/2013  22:37:00       13.039      -16.319       -4.747       27.910       31.216       26.437      778.944      974.432      698.937        0.146        0.123       20.888       18.551        0.789      344.192       20.837      861.144
08/26/2013  22:38:00       23.324       45.383       22.562       32.103       28.725       29.377     1030.619      825.107      862.989        0.292        0.136       51.026       14.360        0.079      344.634       21.593      861.134
08/26/2013  22:39:00       16.013       25.009       36.955       27.774       21.468       13.971      771.383      460.874      195.201        0.184        0.071       29.696       10.086        0.115      344.450       21.278      861.139
08/26/2013  22:40:00       21.152      -13.180       11.679       26.635       21.703       21.304      709.433      471.034      453.843        0.120        0.082       24.923       14.651        0.346      344.088       20.660      861.146
08/26/2013  22:41:00       44.749      -30.971       12.916       29.673       21.126       21.250      880.484      446.313      451.546        0.245        0.089       54.421       11.069        0.041      343.876       20.296      861.144
08/26/2013  22:42:00       68.319      -29.559       10.653       34.174       25.792       24.882     1167.835      665.217      619.121        0.405        0.123       74.439       19.413        0.068      343.892       20.323      861.150
08/26/2013  22:43:00       16.208      -30.347       15.610       33.632       38.343       16.550     1131.128     1470.150      273.906        0.215        0.144       34.405       20.041        0.339      343.777       20.127      861.142
08/26/2013  22:44:00       14.353       31.236        8.269       28.027       26.485       15.600      785.487      701.449      243.374        0.149        0.087       34.376       10.147        0.087      344.142       20.752      861.137
08/26/2013  22:45:00       53.059       48.918       28.148       17.639       19.969       17.545      311.143      398.770      307.840        0.351        0.051       72.168       12.169        0.028      344.273       20.975      861.153
08/26/2013  22:46:00       16.131       14.817       11.852       24.310       21.374       16.247      590.995      456.845      263.963        0.097        0.066       21.903       16.171        0.545      344.378       21.154      861.160
08/26/2013  22:47:00        7.918      -55.521      -18.485       18.696       18.738       16.393      349.529      351.119      268.727        0.223        0.048       56.082       12.458        0.049      344.097       20.672      861.166
08/26/2013  22:48:00       51.021        3.215        8.096       21.765       28.680       26.562      473.728      822.557      705.524        0.234        0.100       51.122        9.752        0.036      344.026       20.553      861.186
08/26/2013  22:49:00       44.379      -17.435        2.334       30.018       25.837       28.224      901.110      667.540      796.570        0.232        0.118       47.681       21.546        0.204      343.996       20.501      861.187
08/26/2013  22:50:00       31.324        3.020       22.451       29.856       18.768       20.631      891.397      352.250      425.623        0.158        0.083       31.470       11.119        0.125      343.654       19.916      861.192
08/26/2013  22:51:00       62.497        1.640       -5.469       26.451       22.587       24.116      699.632      510.156      581.575        0.286        0.090       62.519        8.388        0.018      343.884       20.309      861.203
08/26/2013  22:52:00       38.829       40.984       -3.994       15.412       29.228       34.086      237.538      854.277     1161.845        0.273        0.113       56.457       18.746        0.110      343.949       20.422      861.203
08/26/2013  22:53:00       47.807       53.426      -10.594       23.299       29.415       23.646      542.855      865.231      559.147        0.361        0.098       71.692       15.814        0.049      344.241       20.920      861.215
08/26/2013  22:54:00       55.443       30.342       13.338       20.744       37.165       23.247      430.300     1381.224      540.433        0.326        0.118       63.202       16.396        0.067      343.947       20.418      861.224
08/26/2013  22:55:00       44.570      -10.958        1.939       38.260       33.686       24.753     1463.829     1134.745      612.711        0.266        0.161       45.897       20.663        0.203      343.707       20.007      861.231
08/26/2013  22:56:00       61.214      -37.805        4.986       31.028       32.915       25.918      962.734     1083.400      671.721        0.396        0.136       71.947       16.289        0.051      343.627       19.871      861.251
08/26/2013  22:57:00       24.520      -27.431       28.658       34.387       36.877       27.794     1182.460     1359.945      772.532        0.274        0.166       36.793       17.705        0.232      344.118       20.709      861.250
08/26/2013  22:58:00       46.362      -54.561        3.462       36.394       42.932       24.160     1324.512     1843.125      583.682        0.444        0.188       71.599       25.644        0.128      344.397       21.187      861.271
08/26/2013  22:59:00       43.831      -54.287        5.860       39.836       44.437       30.845     1586.873     1974.691      951.413        0.471        0.226       69.773       31.627        0.205      344.455       21.285      861.277
08/26/2013  23:00:00        6.668        3.321       28.566       19.055       25.355       24.111      363.074      642.878      581.330        0.123        0.079        7.450       16.194        4.725      344.136       20.741      861.289
08/26/2013  23:01:00       -6.173      -35.546       13.364       23.558       42.759       25.686      554.962     1828.324      659.777        0.226        0.152       36.078       10.040        0.077      344.109       20.694      861.297
08/26/2013  23:02:00      -12.377       -8.721       13.861       21.667       33.515       19.496      469.445     1123.222      380.113        0.120        0.099       15.141       18.618        1.512      344.232       20.905      861.298
08/26/2013  23:03:00       -5.991      -24.839       24.993       24.639       30.489       15.530      607.071      929.550      241.178        0.153        0.089       25.552        8.760        0.118      344.075       20.638      861.304
08/26/2013  23:04:00       -9.162        0.000       37.045       14.545       39.239       21.071      211.547     1539.723      444.006        0.183        0.110        9.162       20.304        4.911      344.112       20.700      861.311
08/26/2013  23:05:00       24.135      -26.503       26.121       26.310       45.535       18.468      692.240     2073.451      341.052        0.254        0.155       35.845       20.481        0.326      344.304       21.027      861.310
08/26/2013  23:06:00       14.388       -8.311       22.834       33.348       28.384       19.586     1112.102      805.666      383.609        0.155        0.115       16.616       10.941        0.434      344.115       20.704      861.332
08/26/2013  23:07:00      -16.681       18.125       30.163       19.783       19.123       21.924      391.353      365.678      480.644        0.138        0.062       24.633       13.588        0.304      344.017       20.538      861.345
08/26/2013  23:08:00       -0.656       -0.533       34.148       23.041       34.725       24.223      530.868     1205.856      586.748        0.174        0.116        0.845       21.301      635.154      344.195       20.842      861.346
08/26/2013  23:09:00       -4.811      -18.213       22.426       34.175       40.849       24.724     1167.952     1668.622      611.268        0.215        0.172       18.838       22.358        1.409      344.392       21.179      861.355
08/26/2013  23:10:00       -0.260       -9.054       30.500       25.811       38.817       24.281      666.229     1506.764      589.588        0.189        0.138        9.057       14.909        2.709      344.226       20.895      861.369
08/26/2013  23:11:00       16.275      -12.113       22.232       34.564       32.496       19.094     1194.679     1056.008      364.583        0.176        0.131       20.288       14.976        0.545      344.053       20.599      861.372
08/26/2013  23:12:00       15.664      -16.211       19.484       24.827       31.298       19.830      616.358      979.564      393.229        0.144        0.099       22.542       15.229        0.456      344.001       20.511      861.385
08/26/2013  23:13:00       16.679        1.533       17.877       22.593       21.143       15.547      510.450      447.046      241.702        0.090        0.060       16.749       12.870        0.590      343.728       20.043      861.402
08/26/2013  23:14:00       19.625        8.971       18.493       15.456       23.939       15.020      238.889      573.070      225.610        0.092        0.052       21.578       12.300        0.325      343.811       20.185      861.423
08/26/2013  23:15:00       21.085       -9.756       -9.751       27.326       42.748       20.736      746.684     1827.403      429.969        0.182        0.150       23.233       16.123        0.482      343.979       20.473      861.427
08/26/2013  23:16:00       76.482       53.248       13.983       19.874       16.296       22.377      394.959      265.558      500.740        0.502        0.058       93.193       13.870        0.022      343.974       20.466      861.432
08/26/2013  23:17:00       67.101       47.651        0.205       16.205       18.907       16.129      262.588      357.480      260.142        0.383        0.044       82.299       11.034        0.018      344.007       20.520      861.439
08/26/2013  23:18:00       84.363       46.752       15.588       30.038       28.030       16.004      902.252      785.662      256.130        0.574        0.097       96.452       10.688        0.012      343.985       20.483      861.455
08/26/2013  23:19:00       83.418       55.798       24.127       36.389       28.505       20.490     1324.168      812.540      419.828        0.660        0.128      100.360       13.022        0.017      344.005       20.516      861.453
08/26/2013  23:20:00       85.073       48.978       36.054       33.012       21.396       19.605     1089.794      457.772      384.352        0.643        0.097       98.165       13.634        0.019      343.984       20.481      861.456
08/26/2013  23:21:00       91.136       63.010       26.374       17.324       18.123       20.702      300.122      328.449      428.576        0.701        0.053      110.797       12.017        0.012      343.784       20.141      861.455
08/26/2013  23:22:00       80.780       61.789       21.573       32.390       28.181       29.419     1049.124      794.158      865.472        0.676        0.135      101.702       12.694        0.016      343.773       20.121      861.468
08/26/2013  23:23:00       63.263       52.917        7.163       37.045       27.717       25.312     1372.335      768.238      640.714        0.482        0.139       82.477       11.581        0.020      343.787       20.144      861.470
08/26/2013  23:24:00      121.344       69.491       31.356       26.282       27.489       30.639      690.769      755.654      938.733        1.146        0.119      139.834        6.445        0.002      343.880       20.304      861.467
08/26/2013  23:25:00      123.606       80.382       35.278       30.486       30.379       30.802      929.420      922.862      948.758        1.289        0.140      147.444       15.627        0.011      343.876       20.296      861.458
08/26/2013  23:26:00       99.158       79.500       35.357       30.112       31.493       32.796      906.736      991.836     1075.608        1.019        0.149      127.093       20.925        0.027      343.934       20.395      861.451
08/26/2013  23:27:00      100.405       67.920       28.914       24.995       20.727       28.387      624.737      429.614      805.828        0.869        0.093      121.220       10.286        0.007      343.916       20.364      861.452
08/26/2013  23:28:00       88.490       61.642       19.304       26.692       33.464       26.338      712.471     1119.825      693.709        0.726        0.126      107.844       20.530        0.036      343.798       20.163      861.456
08/26/2013  23:29:00       65.366       47.449       23.717       18.121       18.162       25.260      328.380      329.848      638.053        0.419        0.065       80.772        6.896        0.007      343.697       19.991      861.450
08/26/2013  23:30:00       56.347       33.585        9.234       21.174       14.146       18.751      448.330      200.119      351.600        0.269        0.050       65.597       10.912        0.028      343.847       20.246      861.445
08/26/2013  23:31:00       52.458       37.559        7.055       26.466       29.962       24.309      700.430      897.717      590.945        0.320        0.109       64.518       12.765        0.039      343.613       19.848      861.456
08/26/2013  23:32:00       -4.707       13.104       11.709       16.416       20.340       15.800      269.488      413.707      249.635        0.063        0.047       13.924        8.067        0.336      343.538       19.720      861.452
08/26/2013  23:33:00       34.890       39.589        6.717       21.084       24.845       21.449      444.522      617.266      460.053        0.218        0.076       52.769       11.140        0.045      343.518       19.685      861.454
08/26/2013  23:34:00       38.655       48.236       34.245       32.696       36.473       23.636     1069.034     1330.252      558.678        0.398        0.148       61.814       18.310        0.088      343.519       19.688      861.462
08/26/2013  23:35:00       39.764       42.239       15.155       25.136       25.525       30.544      631.826      651.535      932.941        0.291        0.111       58.011       12.859        0.049      343.427       19.530      861.471
08/26/2013  23:36:00       24.388       27.542      -12.105       16.416       31.749       14.642      269.501     1008.017      214.398        0.150        0.075       36.787       11.236        0.093      343.564       19.765      861.472
08/26/2013  23:37:00       25.423       12.260        1.479       16.633       19.620       15.745      276.642      384.938      247.895        0.085        0.045       28.225       10.341        0.134      343.722       20.033      861.480
08/26/2013  23:38:00       -9.424       28.795        2.772       12.259       24.492        8.458      150.288      599.850       71.538        0.087        0.041       30.298       11.546        0.145      343.767       20.109      861.487
08/26/2013  23:39:00       -3.064       66.305       -3.140       12.101       28.897       12.050      146.429      835.057      145.196        0.277        0.056       66.375       15.256        0.053      344.139       20.746      861.489
08/26/2013  23:40:00        2.566       62.303      -10.494       10.959       21.459        7.060      120.109      460.476       49.848        0.231        0.032       62.356        2.881        0.002      344.197       20.847      861.490
08/26/2013  23:41:00      -15.955       33.541       -7.901       16.607       21.655        7.250      275.785      468.924       52.569        0.112        0.040       37.142       10.311        0.077      344.150       20.765      861.494
08/26/2013  23:42:00      -47.824        9.736       -1.785       12.875       10.314        8.611      165.761      106.382       74.150        0.137        0.017       48.805        5.022        0.011      344.003       20.515      861.498
08/26/2013  23:43:00      -65.257       21.682       -7.030       23.788       16.192       11.113      565.848      262.192      123.503        0.286        0.048       68.765        9.136        0.018      344.005       20.516      861.492
08/26/2013  23:44:00      -95.264       -6.024       -8.981       16.676       16.702       10.471      278.097      278.971      109.636        0.493        0.033       95.454        7.610        0.006      344.056       20.605      861.482
08/26/2013  23:45:00     -103.786       10.595       -8.620       21.051       16.382       13.756      443.163      268.374      189.235        0.593        0.045      104.325       10.445        0.010      343.984       20.480      861.484
08/26/2013  23:46:00      -79.022        9.325       -0.797       40.367       24.419       17.188     1629.502      596.292      295.418        0.443        0.126       79.570       20.424        0.066      343.953       20.427      861.472
08/26/2013  23:47:00     -106.994        5.354      -12.630       11.841       10.319       11.739      140.220      106.481      137.793        0.601        0.019      107.128        7.274        0.005      343.991       20.491      861.462
08/26/2013  23:48:00     -107.035       -6.526      -16.048       22.391       32.844       15.360      501.374     1078.738      235.926        0.679        0.091      107.234       14.072        0.017      343.982       20.478      861.456
08/26/2013  23:49:00      -97.363      -27.662       -2.213       28.402       29.623       17.443      806.677      877.515      304.273        0.612        0.099      101.216       15.188        0.023      344.003       20.514      861.459
08/26/2013  23:50:00     -150.135        6.716      -23.827       37.845       32.843       23.905     1432.219     1078.667      571.453        1.312        0.154      150.286       21.325        0.020      343.995       20.501      861.452
08/26/2013  23:51:00      -94.071      -31.046       -8.647       15.824       18.428       14.980      250.384      339.575      224.390        0.535        0.041       99.062        7.677        0.006      344.007       20.519      861.441
08/26/2013  23:52:00     -100.262       -1.187       -6.270       30.399       17.910       23.058      924.104      320.753      531.657        0.593        0.089      100.269       19.561        0.038      343.951       20.423      861.437
08/26/2013  23:53:00      -55.864       -0.610       -6.417       27.730       12.828       11.046      768.936      164.560      122.013        0.211        0.053       55.868       13.372        0.057      343.927       20.383      861.441
08/26/2013  23:54:00      -26.290        1.397       -1.466       19.239       36.146       19.453      370.145     1306.511      378.411        0.137        0.103       26.327       13.452        0.261      343.914       20.362      861.436
08/26/2013  23:55:00      -70.466       36.522       -8.806       23.758       26.666       18.759      564.461      711.087      351.912        0.400        0.081       79.368       13.596        0.029      344.000       20.507      861.436
08/26/2013  23:56:00      -86.334       54.672      -15.124       22.733       28.435       15.230      516.782      808.571      231.948        0.611        0.078      102.189       11.841        0.013      344.135       20.738      861.433
08/26/2013  23:57:00      -72.186       57.569      -11.535       21.169       27.317       19.795      448.115      746.220      391.854        0.512        0.079       92.331       14.628        0.025      344.091       20.664      861.434
08/26/2013  23:58:00      -62.759       18.404       -9.803       24.764       22.214       10.515      613.274      493.449      110.555        0.280        0.061       65.401        2.822        0.002      343.985       20.484      861.444
08/26/2013  23:59:00      -54.605       -8.726       -3.675       19.929       13.835        8.700      397.155      191.417       75.691        0.187        0.033       55.298        7.093        0.016      343.947       20.417      861.443
